[[{"header":{"parameterUnit":"m.s-1","parameterCategory":1,"la1":30.6,"la2":28.766,"lo1":-90.7593,"lo2":-88.6598,"dy":0.0162,"dx":0.0183,"nx":116,"ny":114,"refTime":"2023-06-25T12:00:00:Z","depth":0,"parameterNumber":2,"parameterNumberName":"U-component_of_WINDS"},"data":[0.0,0.0,0.0,0.0,0.0,0.0,0.0,0.0,0.0,0.0,0.0,0.0,0.0,0.0,0.0,0.0,0.0,0.0,0.0,0.0,0.0,0.0,0.0,0.0,0.0,0.0,0.0,0.0,0.0,0.0,0.0,0.0,0.0,0.0,0.0,0.0,0.0,0.0,0.0,0.0,0.0,0.0,0.0,0.0,0.0,0.0,0.0,0.0,0.0,0.0,0.0,0.0,0.0,0.0,0.0,0.0,0.0,0.0,0.0,0.0,0.0,0.0,0.0,0.0,0.0,0.0,0.0,0.0,0.0,0.0,0.0,0.0,0.0,0.0,0.0,0.0,0.0,0.0,0.0,0.0,0.0,0.0,0.0,0.0,0.0,0.0,0.0,0.0,0.0,0.0,0.0,0.0,0.0,0.0,0.0,0.0,0.0,0.0,0.0,0.0,0.0,0.0,0.0,0.0,0.0,0.0,0.0,0.0,0.0,0.0,0.0,0.0,0.0,0.0,0.0,0.0,0.0,0.0,0.0,0.0,0.0,0.0,0.0,0.0,0.0,0.0,0.0,0.0,0.0,0.0,0.0,0.0,0.0,0.0,0.0,0.0,0.0,0.0,0.0,0.0,0.0,0.0,0.0,0.0,0.0,0.0,0.0,0.0,0.0,0.0,0.0,0.0,0.0,0.0,0.0,0.0,0.0,0.0,0.0,0.0,0.0,0.0,0.0,0.0,0.0,0.0,0.0,0.0,0.0,0.0,0.0,0.0,0.0,0.0,0.0,0.0,0.0,0.0,0.0,0.0,0.0,0.0,0.0,0.0,0.0,0.0,0.0,0.0,0.0,0.0,0.0,0.0,0.0,0.0,0.0,0.0,0.0,0.0,0.0,0.0,0.0,0.0,0.0,0.0,0.0,0.0,0.0,0.0,0.0,0.0,0.0,0.0,0.0,0.0,0.0,0.0,0.0,0.0,0.0,0.0,0.0,0.0,0.0,0.0,0.0,0.0,0.0,0.0,0.0,0.0,0.0,0.0,0.0,0.0,0.0,0.0,0.0,0.0,0.0,0.0,0.0,0.0,0.0,0.0,0.0,0.0,0.0,0.0,0.0,0.0,0.0,0.0,0.0,0.0,0.0,0.0,0.0,0.0,0.0,0.0,0.0,0.0,0.0,0.0,0.0,0.0,0.0,0.0,0.0,0.0,0.0,0.0,0.0,0.0,0.0,0.0,0.0,0.0,0.0,0.0,0.0,0.0,0.0,0.0,0.0,0.0,0.0,0.0,0.0,0.0,0.0,0.0,0.0,0.0,0.0,0.0,0.0,0.0,0.0,0.0,0.0,0.0,0.0,0.0,0.0,0.0,0.0,0.0,0.0,0.0,0.0,0.0,0.0,0.0,0.0,0.0,0.0,0.0,0.0,0.0,0.0,0.0,0.0,0.0,0.0,0.0,0.0,0.0,0.0,0.0,0.0,0.0,0.0,0.0,0.0,0.0,0.0,0.0,0.0,0.0,0.0,0.0,0.0,0.0,0.0,0.0,0.0,0.0,0.0,0.0,0.0,0.0,0.0,0.0,0.0,0.0,0.0,0.0,0.0,0.0,0.0,0.0,0.0,0.0,0.0,0.0,0.0,0.0,0.0,0.0,0.0,0.0,0.0,0.0,0.0,0.0,0.0,0.0,0.0,0.0,0.0,0.0,0.0,0.0,0.0,0.0,0.0,0.0,0.0,0.0,0.0,0.0,0.0,0.0,0.0,0.0,0.0,0.0,0.0,0.0,0.0,0.0,0.0,0.0,0.0,0.0,0.0,0.0,0.0,0.0,0.0,0.0,0.0,0.0,0.0,0.0,0.0,0.0,0.0,0.0,0.0,0.0,0.0,0.0,0.0,0.0,0.0,0.0,0.0,0.0,0.0,0.0,0.0,0.0,0.0,0.0,0.0,0.0,0.0,0.0,0.0,0.0,0.0,0.0,0.0,0.0,0.0,0.0,0.0,0.0,0.0,0.0,0.0,0.0,0.0,0.0,0.0,0.0,0.0,0.0,0.0,0.0,0.0,0.0,0.0,0.0,0.0,0.0,0.0,0.0,0.0,0.0,0.0,0.0,0.0,0.0,0.0,0.0,0.0,0.0,0.0,0.0,0.0,0.0,0.0,0.0,0.0,0.0,0.0,0.0,0.0,0.0,0.0,0.0,0.0,0.0,0.0,0.0,0.0,0.0,0.0,0.0,0.0,0.0,0.0,0.0,0.0,0.0,0.0,0.0,0.0,0.0,0.0,0.0,0.0,0.0,0.0,0.0,0.0,0.0,0.0,0.0,0.0,0.0,0.0,0.0,0.0,0.0,0.0,0.0,0.0,0.0,0.0,0.0,0.0,0.0,0.0,0.0,0.0,0.0,0.0,0.0,0.0,0.0,0.0,0.0,0.0,0.0,0.0,0.0,0.0,0.0,0.0,0.0,0.0,0.0,0.0,0.0,0.0,0.0,0.0,0.0,0.0,0.0,0.0,0.0,0.0,0.0,0.0,0.0,0.0,0.0,0.0,0.0,0.0,0.0,0.0,0.0,0.0,0.0,0.0,0.0,0.0,0.0,0.0,0.0,0.0,0.0,0.0,0.0,0.0,0.0,0.0,0.0,0.0,0.0,0.0,0.0,0.0,0.0,0.0,0.0,0.0,0.0,0.0,0.0,0.0,0.0,0.0,0.0,0.0,0.0,0.0,0.0,0.0,0.0,0.0,0.0,0.0,0.0,0.0,0.0,0.0,0.0,0.0,0.0,0.0,0.0,0.0,0.0,0.0,0.0,0.0,0.0,0.0,0.0,0.0,0.0,0.0,0.0,0.0,0.0,0.0,0.0,0.0,0.0,0.0,0.0,0.0,0.0,0.0,0.0,0.0,0.0,0.0,0.0,0.0,0.0,0.0,0.0,0.0,0.0,0.0,0.0,0.0,0.0,0.0,0.0,0.0,0.0,0.0,0.0,0.0,0.0,0.0,0.0,0.0,0.0,0.0,0.0,0.0,0.0,0.0,0.0,0.0,0.0,0.0,0.0,0.0,0.0,0.0,0.0,0.0,0.0,0.0,0.0,0.0,0.0,0.0,0.0,0.0,0.0,0.0,0.0,0.0,0.0,0.0,0.0,0.0,0.0,0.0,0.0,0.0,0.0,0.0,0.0,0.0,0.0,0.0,0.0,0.0,0.0,0.0,0.0,0.0,0.0,0.0,0.0,0.0,0.0,0.0,0.0,0.0,0.0,0.0,0.0,0.0,0.0,0.0,0.0,0.0,0.0,0.0,0.0,0.0,0.0,0.0,0.0,0.0,0.0,0.0,0.0,0.0,0.0,0.0,0.0,0.0,0.0,0.0,0.0,0.0,0.0,0.0,0.0,0.0,0.0,0.0,0.0,0.0,0.0,0.0,0.0,0.0,0.0,0.0,0.0,0.0,0.0,0.0,0.0,0.0,0.0,0.0,0.0,0.0,0.0,0.0,0.0,0.0,0.0,0.0,0.0,0.0,0.0,0.0,0.0,0.0,0.0,0.0,0.0,0.0,0.0,0.0,0.0,0.0,0.0,0.0,0.0,0.0,0.0,0.0,0.0,0.0,0.0,0.0,0.0,0.0,0.0,0.0,0.0,0.0,0.0,0.0,0.0,0.0,0.0,0.0,0.0,0.0,0.0,0.0,0.0,0.0,0.0,0.0,0.0,0.0,0.0,0.0,0.0,0.0,0.0,0.0,0.0,0.0,0.0,0.0,0.0,0.0,0.0,0.0,0.0,0.0,0.0,0.0,0.0,0.0,0.0,0.0,0.0,0.0,0.0,0.0,0.0,0.0,0.0,0.0,0.0,0.0,0.0,0.0,0.0,0.0,0.0,0.0,0.0,0.0,0.0,0.0,0.0,0.0,0.0,0.0,0.0,0.0,0.0,0.0,0.0,0.0,0.0,0.0,0.0,0.0,0.0,0.0,0.0,0.0,0.0,0.0,0.0,0.0,0.0,0.0,0.0,0.0,0.0,0.0,0.0,0.0,0.0,0.0,0.0,0.0,0.0,0.0,0.0,0.0,0.0,0.0,0.0,0.0,0.0,0.0,0.0,0.0,0.0,0.0,0.0,0.0,0.0,0.0,0.0,0.0,0.0,0.0,0.0,0.0,0.0,0.0,0.0,0.0,0.0,0.0,0.0,0.0,0.0,0.0,0.0,0.0,0.0,0.0,0.0,0.0,0.0,0.0,0.0,0.0,0.0,0.0,0.0,0.0,0.0,0.0,0.0,0.0,0.0,0.0,0.0,0.0,0.0,0.0,0.0,0.0,0.0,0.0,0.0,0.0,0.0,0.0,0.0,0.0,0.0,0.0,0.0,0.0,0.0,0.0,0.0,0.0,0.0,0.0,0.0,0.0,0.0,0.0,0.0,0.0,0.0,0.0,0.0,0.0,0.0,0.0,0.0,0.0,0.0,0.0,0.0,0.0,0.0,0.0,0.0,0.0,0.0,0.0,0.0,0.0,0.0,0.0,0.0,0.0,0.0,0.0,0.0,0.0,0.0,0.0,0.0,0.0,0.0,0.0,0.0,0.0,0.0,0.0,0.0,0.0,0.0,0.0,0.0,0.0,0.0,0.0,0.0,0.0,0.0,0.0,0.0,0.0,0.0,0.0,0.0,0.0,0.0,0.0,0.0,0.0,0.0,0.0,0.0,0.0,0.0,0.0,0.0,0.0,0.0,0.0,0.0,0.0,0.0,0.0,0.0,0.0,0.0,0.0,0.0,0.0,0.0,0.0,0.0,0.0,0.0,0.0,0.0,0.0,0.0,0.0,0.0,0.0,0.0,0.0,0.0,0.0,0.0,0.0,0.0,0.0,0.0,0.0,0.0,0.0,0.0,0.0,0.0,0.0,0.0,0.0,0.0,0.0,0.0,0.0,0.0,0.0,0.0,0.0,0.0,0.0,0.0,0.0,0.0,0.0,0.0,0.0,0.0,0.0,0.0,0.0,0.0,0.0,0.0,0.0,0.0,0.0,0.0,0.0,0.0,0.0,0.0,0.0,0.0,0.0,0.0,0.0,0.0,0.0,0.0,0.0,0.0,0.0,0.0,0.0,0.0,0.0,0.0,0.0,0.0,0.0,0.0,0.0,0.0,0.0,0.0,0.0,0.0,0.0,0.0,0.0,0.0,0.0,0.0,0.0,0.0,0.0,0.0,0.0,0.0,0.0,0.0,0.0,0.0,0.0,0.0,0.0,0.0,0.0,0.0,0.0,0.0,0.0,0.0,0.0,0.0,0.0,0.0,0.0,0.0,0.0,0.0,0.0,0.0,0.0,0.0,0.0,0.0,0.0,0.0,0.0,0.0,0.0,0.0,0.0,0.0,0.0,0.0,0.0,0.0,0.0,0.0,0.0,0.0,0.0,0.0,0.0,0.0,0.0,0.0,0.0,0.0,0.0,0.0,0.0,0.0,0.0,0.0,0.0,0.0,0.0,0.0,0.0,0.0,0.0,0.0,0.0,0.0,0.0,0.0,0.0,0.0,0.0,0.0,0.0,0.0,0.0,0.0,0.0,0.0,0.0,0.0,0.0,0.0,0.0,0.0,0.0,0.0,0.0,0.0,0.0,0.0,0.0,0.0,0.0,0.0,0.0,0.0,0.0,0.0,0.0,0.0,0.0,0.0,0.0,0.0,0.0,0.0,0.0,0.0,0.0,0.0,0.0,0.0,0.0,0.0,0.0,0.0,0.0,0.0,0.0,0.0,0.0,0.0,0.0,0.0,0.0,0.0,0.0,0.0,0.0,0.0,0.0,0.0,0.0,0.0,0.0,0.0,0.0,0.0,0.0,0.0,0.0,0.0,0.0,0.0,0.0,0.0,0.0,0.0,0.0,0.0,0.0,0.0,0.0,0.0,0.0,0.0,0.0,0.0,0.0,0.0,0.0,0.0,0.0,0.0,0.0,0.0,0.0,0.0,0.0,0.0,0.0,0.0,0.0,0.0,0.0,0.0,0.0,0.0,0.0,0.0,0.0,0.0,0.0,0.0,0.0,0.0,0.0,0.0,0.0,0.0,0.0,0.0,0.0,0.0,0.0,0.0,0.0,0.0,0.0,0.0,0.0,0.0,-4.9323,0.0,0.0,0.0,0.0,0.0,0.0,0.0,0.0,0.0,0.0,0.0,0.0,0.0,0.0,0.0,0.0,0.0,0.0,0.0,0.0,0.0,0.0,0.0,0.0,0.0,0.0,0.0,0.0,0.0,0.0,0.0,0.0,0.0,0.0,0.0,0.0,0.0,0.0,0.0,0.0,0.0,0.0,0.0,0.0,0.0,0.0,0.0,0.0,0.0,0.0,0.0,0.0,0.0,0.0,0.0,0.0,0.0,0.0,0.0,0.0,0.0,0.0,0.0,0.0,0.0,0.0,0.0,0.0,0.0,0.0,0.0,0.0,0.0,0.0,0.0,0.0,0.0,0.0,0.0,0.0,0.0,0.0,0.0,0.0,0.0,0.0,0.0,0.0,0.0,0.0,0.0,0.0,0.0,0.0,0.0,0.0,0.0,0.0,0.0,0.0,0.0,0.0,0.0,0.0,0.0,0.0,0.0,0.0,0.0,0.0,0.0,0.0,0.0,0.0,0.0,0.0,-4.8867,0.0,0.0,0.0,0.0,0.0,0.0,0.0,0.0,0.0,0.0,0.0,0.0,0.0,0.0,0.0,0.0,0.0,0.0,0.0,0.0,0.0,0.0,0.0,0.0,0.0,0.0,0.0,0.0,0.0,0.0,0.0,0.0,0.0,0.0,0.0,0.0,0.0,0.0,0.0,0.0,0.0,0.0,0.0,0.0,0.0,0.0,0.0,0.0,0.0,0.0,0.0,0.0,0.0,0.0,0.0,0.0,0.0,0.0,0.0,0.0,0.0,0.0,0.0,0.0,0.0,0.0,0.0,0.0,0.0,0.0,0.0,0.0,0.0,0.0,0.0,0.0,0.0,0.0,0.0,0.0,0.0,0.0,0.0,0.0,0.0,0.0,0.0,0.0,0.0,0.0,0.0,0.0,0.0,0.0,0.0,0.0,0.0,0.0,0.0,0.0,0.0,0.0,0.0,0.0,0.0,0.0,0.0,0.0,0.0,-4.8306,-4.8306,-4.8306,-4.8306,-4.8306,-4.8208,-4.8148,-4.8148,0.0,0.0,0.0,0.0,0.0,0.0,0.0,0.0,0.0,0.0,0.0,0.0,0.0,0.0,0.0,0.0,0.0,0.0,0.0,0.0,0.0,0.0,0.0,0.0,0.0,0.0,0.0,0.0,0.0,0.0,0.0,0.0,0.0,0.0,0.0,0.0,0.0,0.0,0.0,-4.6206,-4.6267,-4.6245,-4.6179,-4.605,0.0,0.0,0.0,0.0,0.0,0.0,0.0,0.0,0.0,0.0,0.0,0.0,0.0,0.0,0.0,0.0,0.0,0.0,0.0,0.0,0.0,0.0,0.0,0.0,0.0,0.0,0.0,0.0,0.0,0.0,0.0,0.0,0.0,0.0,0.0,0.0,0.0,0.0,0.0,0.0,0.0,0.0,0.0,-4.6231,-4.7003,0.0,0.0,0.0,0.0,0.0,0.0,0.0,0.0,0.0,0.0,0.0,0.0,0.0,0.0,-4.8306,-4.8306,-4.8306,-4.8306,-4.8306,-4.8306,-4.8306,-4.8306,-4.8306,-4.8306,-4.8111,0.0,-4.801,-4.7925,0.0,0.0,0.0,0.0,0.0,0.0,0.0,0.0,0.0,0.0,0.0,0.0,0.0,0.0,0.0,0.0,0.0,0.0,0.0,0.0,0.0,0.0,0.0,0.0,0.0,0.0,0.0,0.0,0.0,0.0,0.0,0.0,0.0,0.0,0.0,0.0,-4.6179,-4.6221,-4.6269,-4.6287,-4.6286,-4.625,-4.6191,-4.6151,-4.6109,-4.6072,0.0,0.0,0.0,0.0,0.0,0.0,0.0,0.0,0.0,0.0,0.0,0.0,0.0,0.0,0.0,0.0,0.0,0.0,0.0,0.0,0.0,0.0,0.0,0.0,0.0,0.0,0.0,0.0,0.0,0.0,0.0,0.0,0.0,0.0,0.0,0.0,0.0,0.0,0.0,-4.6403,-4.704,-4.8066,-4.7905,-4.7921,0.0,0.0,0.0,0.0,0.0,0.0,0.0,0.0,0.0,-4.9022,-4.9462,-4.9719,-4.9719,-4.9719,-4.9719,-4.9719,-4.9719,-4.9719,-4.9719,-4.9719,-4.9661,-4.9585,-4.8948,-4.8644,-4.8584,-4.8024,-4.7572,-4.7258,0.0,0.0,0.0,0.0,0.0,-4.4852,0.0,0.0,0.0,0.0,0.0,0.0,0.0,0.0,0.0,0.0,0.0,0.0,0.0,0.0,0.0,-4.6181,0.0,0.0,0.0,0.0,0.0,0.0,0.0,0.0,0.0,0.0,0.0,-4.6221,-4.6221,-4.6248,-4.6305,-4.63,-4.6297,-4.6295,-4.6306,-4.6254,-4.6204,-4.6205,-4.6158,0.0,0.0,0.0,0.0,0.0,0.0,0.0,0.0,0.0,0.0,0.0,0.0,0.0,0.0,0.0,0.0,0.0,0.0,0.0,0.0,0.0,0.0,0.0,0.0,0.0,0.0,0.0,0.0,0.0,0.0,0.0,0.0,0.0,0.0,0.0,0.0,0.0,0.0,-4.7404,-4.7868,-4.8709,-4.8514,-4.8306,0.0,0.0,0.0,0.0,0.0,0.0,-4.8636,-4.9426,-4.9903,-4.9903,-5.049,-5.0802,-5.0802,-5.0802,-5.0802,-5.0802,-5.0802,-5.0802,-5.0802,-5.0802,-5.0762,-5.0607,-4.982,-4.9482,-4.9343,-4.8176,-4.745,-4.7107,-4.6954,-4.631,0.0,-4.5355,-4.4981,-4.4587,0.0,0.0,0.0,0.0,0.0,0.0,0.0,0.0,0.0,0.0,0.0,0.0,0.0,0.0,-4.6179,-4.6112,-4.6105,-4.6091,0.0,0.0,0.0,0.0,0.0,0.0,0.0,0.0,0.0,-4.6289,-4.6289,-4.6308,-4.6308,-4.6307,-4.6305,-4.6301,-4.6295,-4.6269,-4.6196,-4.621,-4.6162,-4.6112,0.0,0.0,0.0,0.0,0.0,0.0,0.0,0.0,0.0,0.0,0.0,0.0,0.0,0.0,0.0,0.0,0.0,0.0,0.0,0.0,0.0,0.0,0.0,0.0,0.0,0.0,0.0,0.0,0.0,0.0,0.0,0.0,0.0,0.0,0.0,0.0,0.0,0.0,0.0,-4.8364,-4.8306,0.0,0.0,0.0,0.0,-4.8306,-4.9058,-4.9517,-4.9517,-5.0288,-5.0747,-5.0747,-5.0784,-5.0802,-5.0802,-5.0802,-5.0802,-5.0802,-5.0802,-5.0802,-5.0802,-5.0802,-5.0802,-5.0743,-5.0464,-5.0362,-5.0192,-4.8436,-4.7657,-4.7615,-4.7107,-4.6566,-4.6,-4.5511,-4.4981,-4.4587,0.0,0.0,0.0,0.0,0.0,0.0,0.0,0.0,0.0,0.0,0.0,0.0,0.0,-4.623,-4.6245,-4.6231,-4.6228,-4.6225,-4.6234,0.0,0.0,0.0,0.0,0.0,0.0,0.0,-4.6278,-4.6306,-4.6306,-4.6307,-4.6308,-4.6308,-4.6307,-4.6305,-4.6297,-4.6261,-4.6206,-4.6201,-4.617,-4.6107,-4.6138,-4.6125,0.0,0.0,0.0,0.0,0.0,0.0,0.0,0.0,0.0,0.0,0.0,0.0,0.0,0.0,0.0,0.0,0.0,0.0,0.0,0.0,0.0,0.0,0.0,0.0,0.0,0.0,0.0,0.0,0.0,0.0,0.0,0.0,0.0,0.0,0.0,0.0,0.0,-4.8748,-4.8569,0.0,0.0,-4.8802,-4.9132,-4.9132,-4.9903,-5.0362,-5.0362,-5.1132,-5.1573,-5.1573,-5.2068,-5.2344,-5.2344,-5.2344,-5.2344,-5.2344,-5.2344,-5.2344,-5.2344,-5.2344,-5.2302,-5.2163,-5.1505,-5.1158,-5.1017,-4.9778,-4.9027,-4.8621,-4.7553,-4.6803,-4.6239,-4.5223,-4.4759,-4.4587,0.0,0.0,0.0,0.0,0.0,0.0,0.0,0.0,0.0,0.0,0.0,-4.6153,-4.6191,-4.6264,-4.6308,-4.6307,-4.6306,-4.6305,-4.63,0.0,0.0,0.0,0.0,0.0,0.0,-4.6248,-4.63,-4.6301,-4.6301,-4.6303,-4.6306,-4.6307,-4.6308,-4.6307,-4.6301,-4.627,-4.6234,-4.6203,-4.6154,-4.6093,-4.6083,-4.6054,-4.6017,0.0,0.0,0.0,0.0,0.0,0.0,0.0,0.0,0.0,0.0,0.0,0.0,0.0,0.0,0.0,0.0,0.0,0.0,0.0,0.0,0.0,0.0,0.0,0.0,0.0,0.0,0.0,0.0,0.0,0.0,0.0,0.0,0.0,0.0,0.0,-4.8783,-4.8853,-4.866,-4.8567,-4.873,-4.9281,-4.9701,-4.9976,-5.0747,-5.1206,-5.1206,-5.1977,-5.2399,-5.2399,-5.2931,-5.3206,-5.3206,-5.3206,-5.3206,-5.3206,-5.3206,-5.3206,-5.3206,-5.3206,-5.3121,-5.2962,-5.2284,-5.1934,-5.1827,-5.0949,-5.0419,-4.9942,-4.8317,-4.7352,-4.6749,-4.5694,-4.5331,-4.5297,0.0,0.0,0.0,0.0,0.0,0.0,0.0,0.0,0.0,0.0,-4.5911,-4.6047,-4.6175,-4.6268,-4.6307,-4.6307,-4.6303,-4.63,-4.6293,-4.6293,0.0,0.0,0.0,0.0,-4.6293,-4.6293,-4.6295,-4.6301,-4.6301,-4.6301,-4.6301,-4.6306,-4.6307,-4.6308,-4.6306,-4.63,-4.629,-4.6234,-4.6162,-4.6093,-4.6035,-4.596,-4.5898,0.0,0.0,0.0,0.0,0.0,0.0,0.0,0.0,0.0,0.0,0.0,0.0,0.0,0.0,0.0,0.0,0.0,0.0,0.0,0.0,0.0,0.0,0.0,0.0,0.0,0.0,0.0,0.0,0.0,0.0,0.0,0.0,0.0,-4.9182,-4.9104,-4.8971,-4.866,-4.8569,-4.8844,-4.9617,-4.9687,-5.0034,-5.0784,-5.1573,-5.2032,-5.2032,-5.2784,-5.3206,-5.3206,-5.3206,-5.3206,-5.3206,-5.3206,-5.3206,-5.3206,-5.3206,-5.3206,-5.3206,-5.3206,-5.3121,-5.2999,-5.285,-5.2698,-5.2545,-5.1848,-5.1601,-5.134,-4.9254,-4.8101,-4.7554,-4.702,-4.6786,-4.6684,0.0,0.0,0.0,0.0,0.0,0.0,0.0,0.0,0.0,0.0,-4.5705,-4.5978,-4.6118,-4.6183,-4.6248,-4.6305,-4.63,-4.629,-4.6296,0.0,0.0,0.0,0.0,0.0,-4.6303,-4.6249,-4.6249,-4.6296,-4.6296,-4.63,-4.6306,-4.63,-4.6306,-4.6307,-4.6307,-4.6303,-4.6297,-4.623,-4.6189,-4.6154,-4.6047,-4.5953,-4.5898,0.0,0.0,0.0,0.0,0.0,0.0,0.0,0.0,0.0,0.0,0.0,0.0,0.0,0.0,0.0,0.0,0.0,0.0,0.0,0.0,0.0,0.0,0.0,0.0,0.0,0.0,0.0,0.0,0.0,0.0,0.0,0.0,-4.9693,-4.9346,-4.9108,-4.889,-4.8768,-4.9214,-4.964,-4.9843,-5.0894,-5.1609,-5.1713,-5.2486,-5.2923,-5.2876,-5.3096,-5.3206,-5.3206,-5.3206,-5.3206,-5.3206,-5.3206,-5.3206,-5.3206,-5.3206,-5.3206,-5.3206,-5.3206,-5.3121,-5.2999,-5.285,-5.2698,-5.2545,-5.1848,-5.1329,-5.077,-4.9286,-4.8609,-4.8333,-4.7206,-4.6786,-4.6752,0.0,0.0,0.0,0.0,0.0,0.0,0.0,0.0,0.0,0.0,-4.566,-4.5928,-4.6007,-4.6098,-4.6195,-4.625,-4.6265,-4.6273,-4.6308,0.0,0.0,0.0,0.0,-4.626,-4.6269,-4.6216,-4.6211,-4.626,-4.626,-4.6264,-4.6296,-4.6261,-4.6268,-4.6269,-4.6237,-4.6195,-4.6177,-4.6092,-4.606,-4.6018,-4.5922,-4.5886,-4.5905,-4.5905,-4.5867,-4.5814,-4.5827,-4.5814,-4.58,-4.58,0.0,0.0,0.0,0.0,0.0,0.0,0.0,0.0,0.0,0.0,0.0,0.0,0.0,0.0,0.0,0.0,0.0,0.0,0.0,0.0,0.0,0.0,0.0,0.0,-4.9372,-4.9627,-4.9569,-4.9389,-4.9155,-4.8874,-4.965,-5.0228,-5.0417,-5.158,-5.2428,-5.2662,-5.3083,-5.3277,-5.3254,-5.3206,-5.3206,-5.3206,-5.3206,-5.3206,-5.3206,-5.3206,-5.3206,-5.3206,-5.3206,-5.3206,-5.3206,-5.3206,-5.3103,0.0,-5.2806,-5.2717,-5.249,-5.1583,-5.1034,0.0,0.0,0.0,0.0,0.0,-4.753,-4.7259,0.0,0.0,0.0,0.0,0.0,0.0,0.0,0.0,0.0,0.0,0.0,-4.584,-4.5852,-4.5982,-4.6119,-4.6178,-4.6191,-4.6223,0.0,0.0,0.0,-4.6206,-4.6206,-4.6206,-4.6206,-4.6206,-4.6201,-4.6181,-4.6201,-4.6231,-4.6284,-4.6225,-4.621,-4.6202,-4.6128,-4.6072,-4.6005,-4.5949,-4.5871,-4.5796,-4.5728,-4.5775,-4.5893,-4.5893,-4.5867,-4.5814,-4.5893,-4.586,-4.58,-4.58,0.0,0.0,0.0,0.0,0.0,0.0,0.0,0.0,0.0,0.0,0.0,0.0,0.0,0.0,0.0,0.0,0.0,0.0,0.0,0.0,0.0,0.0,0.0,0.0,-4.9598,-4.9558,-4.9721,-4.9803,-4.9655,-4.9139,-4.9948,-5.0735,-5.1306,-5.2026,-5.2763,-5.3484,-5.34,-5.3318,-5.33,0.0,0.0,0.0,0.0,-5.3206,-5.3206,-5.3206,-5.3206,-5.3206,-5.3206,-5.3206,-5.3206,-5.3206,-5.306,-5.2806,-5.2806,-5.2645,-5.2322,-5.1191,-5.0626,-5.048,-4.9971,-4.9436,-4.9001,-4.9001,-4.8595,0.0,0.0,0.0,0.0,0.0,0.0,0.0,0.0,0.0,0.0,-4.4631,-4.5105,-4.5464,-4.5578,-4.5839,-4.6049,-4.6103,-4.6178,-4.6229,0.0,0.0,-4.6206,-4.6206,-4.6195,-4.6195,-4.6206,-4.6203,-4.6164,-4.613,-4.6177,-4.6176,-4.6133,-4.6234,-4.625,-4.6198,-4.6179,-4.6147,-4.6084,-4.608,-4.5978,-4.5873,-4.5815,-4.5789,-4.5827,-4.5827,-4.5841,-4.5893,-4.5893,-4.586,-4.58,-4.58,-4.5688,-4.5541,-4.5507,0.0,0.0,0.0,0.0,0.0,0.0,0.0,0.0,0.0,0.0,0.0,0.0,0.0,0.0,0.0,0.0,0.0,0.0,0.0,0.0,-4.9273,-4.9803,-4.991,-4.9529,-4.9857,-5.0164,-5.0266,-5.081,-5.149,-5.2252,-5.3069,-5.353,-5.3637,-5.3656,-5.3518,-5.33,-5.3277,0.0,-5.3206,-5.3206,-5.3206,-5.3206,-5.3206,-5.3206,-5.3206,0.0,0.0,-5.3206,-5.3206,-5.306,-5.2806,-5.2806,-5.2408,-5.1719,-5.0982,-5.0163,-4.9316,-4.9212,-4.9107,-4.9001,-4.9001,-4.8917,-4.8798,0.0,0.0,0.0,0.0,0.0,0.0,0.0,0.0,0.0,0.0,-4.4853,-4.5227,-4.5391,-4.5641,-4.5863,-4.6037,-4.6117,0.0,0.0,-4.6217,-4.6195,-4.6195,-4.6202,-4.6199,-4.6202,-4.6206,-4.6177,-4.6147,-4.6177,-4.6206,-4.6202,-4.6228,-4.6226,-4.6202,-4.6156,-4.6084,-4.5998,-4.5966,-4.5861,-4.5742,-4.5677,-4.5661,-4.5665,-4.5727,-4.5712,-4.5665,-4.5791,-4.5696,-4.5526,-4.5692,-4.556,-4.5343,-4.5265,-4.5182,-4.5074,0.0,0.0,0.0,0.0,0.0,0.0,0.0,0.0,0.0,0.0,0.0,0.0,0.0,0.0,-4.5803,0.0,0.0,-4.7994,-4.9029,-4.953,-4.9803,-4.9803,-5.0136,-5.044,-5.0592,-5.1204,-5.1838,-5.2512,-5.333,-5.3774,-5.3754,-5.3695,-5.3656,-5.3518,-5.3359,-5.3461,-5.3842,-5.3836,-5.3995,-5.4399,-5.4399,-5.4399,-5.4399,-5.4399,-5.4197,-5.3812,-5.3812,-5.3488,-5.2893,-5.2563,-5.2155,-5.1651,-5.0678,-4.9815,-4.9001,-4.9001,-4.9001,-4.9001,-4.9001,-4.9001,-4.9001,0.0,0.0,0.0,0.0,0.0,0.0,0.0,0.0,0.0,0.0,0.0,-4.4947,-4.5125,-4.5399,-4.5679,0.0,0.0,0.0,0.0,-4.619,-4.6171,-4.6171,-4.619,-4.6207,-4.6207,-4.62,-4.6195,-4.6192,-4.6206,-4.6231,-4.6282,-4.6229,-4.6195,-4.6201,-4.6127,-4.6037,-4.5925,-4.5847,-4.5735,-4.562,-4.555,-4.5495,-4.5476,-4.5601,-4.5547,-4.5456,-4.5648,-4.5528,-4.5303,-4.5565,-4.5437,-4.518,-4.5074,-4.5007,-4.4957,-4.4796,-4.4821,0.0,0.0,0.0,0.0,0.0,0.0,0.0,0.0,0.0,-4.5216,-4.5071,-4.554,-4.6026,-4.6013,-4.7106,-4.8229,-4.8824,-4.9292,-4.9684,-5.0087,-5.0468,-5.0736,-5.081,-5.1495,-5.2202,-5.2791,-5.3423,-5.3813,-5.3813,-5.3754,-5.3695,-5.3714,-5.3459,-5.3686,-5.4478,-5.4424,-5.4785,-5.5574,-5.5592,-5.5592,-5.5592,-5.5592,-5.5244,-5.4638,-5.4638,-5.4092,-5.3113,-5.2162,-5.1683,-5.1465,-5.0254,-4.9453,-4.9001,-4.9001,-4.9001,-4.9001,-4.9001,-4.9001,-4.9001,0.0,0.0,0.0,0.0,0.0,0.0,0.0,0.0,0.0,0.0,0.0,0.0,0.0,0.0,0.0,0.0,0.0,0.0,-4.6206,-4.6136,-4.61,-4.61,-4.6171,-4.6191,-4.6191,-4.6204,-4.6209,-4.6191,-4.6199,-4.6192,-4.6204,-4.619,-4.6192,-4.6206,-4.6135,-4.6095,-4.6066,-4.5944,-4.5805,-4.5684,-4.562,-4.5533,-4.5399,-4.5419,-4.5495,-4.558,-4.5472,-4.5493,-4.5531,-4.5457,-4.5342,-4.5201,-4.518,-4.5068,-4.4919,-4.487,0.0,-4.508,-4.5103,-4.5192,-4.5297,-4.5297,-4.5338,-4.5298,0.0,0.0,-4.477,-4.477,-4.4674,-4.4904,-4.5824,-4.6963,-4.791,-4.8472,-4.9417,-5.0062,-4.9865,-5.0523,-5.1196,-5.1611,-5.2169,-5.281,-5.359,-5.3757,-5.3813,-5.3813,-5.3813,-5.3754,-5.3695,-5.3558,-5.3769,-5.4478,-5.4424,-5.4785,-5.5574,-5.5592,-5.5592,-5.5592,-5.5592,-5.5537,-5.5464,-5.5464,-5.4873,-5.3763,-5.1732,-5.0858,-5.0751,-4.9598,-4.9063,-4.9001,-4.9001,-4.9001,-4.9001,-4.9001,-4.9001,-4.9001,0.0,0.0,0.0,0.0,0.0,0.0,0.0,0.0,0.0,0.0,0.0,0.0,0.0,0.0,0.0,0.0,0.0,0.0,-4.6076,-4.6098,-4.6112,-4.6112,-4.6167,-4.6209,-4.6209,-4.6247,-4.6269,-4.6269,-4.6268,-4.6269,-4.6268,-4.6262,-4.6245,-4.6206,-4.613,-4.6093,-4.6085,-4.5919,-4.5795,-4.57,-4.5637,-4.5533,-4.5418,-4.54,-4.54,-4.5419,-4.5491,-4.5437,0.0,0.0,-4.5342,-4.5137,-4.5135,-4.5065,-4.5033,-4.5033,-4.5057,0.0,-4.4943,-4.5148,-4.5338,0.0,-4.5279,-4.5321,-4.5094,-4.4985,-4.4896,-4.4776,-4.4572,-4.4578,-4.518,-4.6341,-4.7397,0.0,-4.9137,-4.9936,-4.983,-5.077,-5.1506,-5.1535,-5.2568,-5.3441,-5.3775,-5.3813,-5.3813,-5.3813,-5.3813,-5.3774,-5.3754,-5.3676,-5.3927,-5.4598,-5.503,-5.5544,-5.629,-5.6748,-5.6987,-5.6987,-5.6987,-5.6748,-5.6308,-5.6308,-5.5111,-5.2942,-5.156,-5.0466,-4.9681,-4.9212,-4.9001,-4.9001,-4.9001,-4.9001,-4.9001,-4.9001,-4.9001,-4.9001,0.0,0.0,0.0,0.0,0.0,0.0,0.0,0.0,0.0,0.0,0.0,0.0,0.0,0.0,0.0,0.0,0.0,0.0,0.0,-4.5975,-4.6046,-4.6046,-4.6123,-4.617,-4.6195,-4.6267,-4.63,-4.6295,-4.6305,-4.6284,-4.627,-4.6264,-4.6245,-4.617,-4.608,-4.6047,-4.6026,-4.58,-4.57,-4.5665,-4.5566,-4.5477,-4.5418,-4.54,-4.536,-4.5319,-4.5473,-4.538,0.0,0.0,-4.5399,-4.5225,-4.5194,-4.5173,-4.5173,-4.5192,-4.5173,-4.5151,-4.4991,-4.5192,0.0,-4.5148,-4.5218,-4.5263,-4.5052,-4.4962,-4.4872,-4.48,-4.4572,-4.4595,-4.5152,-4.6266,-4.7326,-4.7964,-4.9036,-4.9776,-4.9693,-5.091,-5.1742,-5.1416,-5.2921,-5.3889,-5.3813,-5.3813,-5.3813,-5.3813,-5.3813,-5.3813,-5.3813,-5.3734,-5.3986,-5.47,-5.5183,-5.5864,-5.6804,-5.7373,-5.7776,-5.7997,-5.7997,-5.7685,-5.7134,-5.6694,-5.5287,-5.3105,-5.1769,-5.0582,-4.9518,-4.9148,-4.9001,-4.9001,-4.9001,-4.9001,-4.9001,-4.9001,-4.9001,-4.9001,0.0,0.0,0.0,0.0,0.0,0.0,0.0,0.0,0.0,0.0,0.0,0.0,0.0,0.0,0.0,0.0,0.0,0.0,0.0,-4.5722,-4.5917,-4.5917,-4.6036,-4.6123,-4.6196,-4.6261,-4.6301,-4.6301,-4.6306,-4.6262,-4.6202,-4.6206,-4.617,-4.6107,-4.5966,-4.591,-4.5883,-4.5619,-4.5543,-4.5596,-4.54,-4.5341,-4.5398,-4.5398,-4.5359,-4.5298,-4.5304,0.0,0.0,0.0,-4.5483,-4.5555,-4.5419,-4.54,0.0,-4.5399,-4.54,-4.5381,-4.5379,-4.54,-4.5361,-4.5151,-4.509,-4.5052,-4.4776,-4.4546,-4.4493,-4.4751,-4.4572,-4.4817,-4.6183,-4.7131,-4.7949,-4.8808,-4.9436,-4.9693,-4.9457,-5.0842,-5.1761,-5.1434,-5.3099,-5.4161,0.0,-5.3813,-5.3813,-5.3813,-5.3813,-5.3813,-5.3813,-5.3734,-5.3986,-5.47,-5.4594,-5.5282,-5.6804,-5.6822,-5.7226,-5.7997,-5.7997,-5.7997,-5.7923,-5.6449,-5.5635,-5.5253,-5.2393,-5.1111,-5.0823,-4.9535,-4.9001,-4.9001,-4.9001,-4.9001,-4.9001,-4.9001,-4.9001,-4.9001,0.0,0.0,0.0,0.0,0.0,0.0,0.0,0.0,0.0,0.0,0.0,0.0,0.0,0.0,0.0,0.0,0.0,0.0,0.0,-4.5396,-4.5607,-4.5708,-4.5902,-4.6074,-4.6137,-4.6206,-4.6256,-4.6301,-4.6256,-4.6225,-4.6201,-4.6157,-4.6072,-4.5968,-4.5922,-4.5802,-4.5619,-4.5342,-4.5226,-4.5203,-4.5033,-4.5023,-4.508,-4.5213,-4.5233,-4.5194,0.0,0.0,0.0,0.0,0.0,0.0,-4.5438,-4.54,-4.54,-4.54,-4.54,-4.5381,-4.5241,-4.5341,-4.5381,-4.5004,-4.503,-4.5052,-4.4599,-4.4438,-4.443,-4.4519,-4.4465,-4.4729,-4.5727,-4.674,-4.7644,-4.8313,-4.9022,-4.9499,-4.9396,-5.0665,-5.1523,-5.1398,-5.2921,0.0,0.0,0.0,0.0,-5.3813,-5.3813,-5.3813,-5.3813,-5.3774,-5.3845,-5.4023,-5.4441,-5.4833,-5.5282,-5.6297,-5.695,-5.7207,-5.774,-5.7997,-5.7932,-5.6415,-5.54,-5.4776,-5.2269,-5.0901,-5.0328,-4.9368,-4.9001,-4.9001,-4.9001,-4.9001,-4.9001,-4.9001,-4.9001,-4.9001,0.0,0.0,0.0,0.0,0.0,0.0,0.0,0.0,0.0,0.0,0.0,0.0,0.0,0.0,0.0,0.0,0.0,0.0,0.0,0.0,-4.5398,-4.5555,-4.584,-4.6044,-4.6137,-4.6173,-4.6228,-4.6307,-4.6202,-4.614,-4.6131,-4.6016,-4.5844,-4.5655,-4.5561,-4.5395,-4.5126,-4.4909,-4.4792,-4.4738,-4.4676,-4.4688,-4.4783,-4.5038,-4.5103,0.0,0.0,0.0,0.0,0.0,0.0,0.0,-4.5494,-4.5438,-4.5438,-4.5438,-4.5438,-4.5419,-4.518,-4.5243,-4.5263,-4.4776,-4.4776,-4.48,-4.4346,-4.425,-4.4289,-4.4374,-4.4383,-4.4768,-4.5988,-4.6819,-4.761,-4.8453,-4.9081,-4.9521,-4.9714,-5.0735,-5.1563,-5.1897,-5.307,-5.3851,0.0,0.0,0.0,-5.3794,-5.3813,-5.3813,-5.3813,-5.3813,-5.3736,-5.3656,-5.4057,-5.4322,-5.4472,-5.5453,-5.6088,-5.6381,-5.6895,-5.7134,-5.7088,-5.5839,-5.4846,-5.4095,-5.2071,-5.0759,-5.0033,-4.9306,-4.9001,-4.9001,-4.9001,-4.9001,-4.9001,-4.9001,-4.9001,-4.9001,0.0,0.0,0.0,0.0,0.0,0.0,0.0,0.0,0.0,0.0,0.0,0.0,0.0,0.0,0.0,0.0,0.0,0.0,0.0,0.0,0.0,-4.5439,-4.5786,-4.6045,-4.6179,-4.6191,-4.6223,-4.6307,-4.6171,-4.6053,-4.5974,-4.5794,-4.5497,-4.5186,-4.4979,-4.473,-4.4478,-4.4337,-4.428,-4.428,-4.427,-4.4346,-4.4519,-4.4852,0.0,0.0,0.0,0.0,0.0,0.0,0.0,-4.5673,-4.5547,-4.5513,-4.5513,-4.5513,-4.5531,-4.5513,-4.5201,-4.514,-4.5052,-4.4546,-4.4383,-4.4318,-4.4048,-4.4005,-4.4079,-4.4318,-4.4383,-4.4973,0.0,0.0,-4.7851,-4.9246,-4.9558,-4.9781,-5.0314,-5.1052,-5.1857,0.0,0.0,0.0,0.0,0.0,0.0,-5.3813,0.0,-5.3813,-5.3813,-5.3813,-5.3717,-5.3539,-5.3499,-5.3787,-5.4326,-5.4381,-5.4803,-5.5592,-5.5592,-5.5592,-5.5574,-5.4858,-5.4092,-5.3315,-5.1852,-5.0772,-5.0033,-4.9306,-4.9001,-4.9001,-4.9001,-4.9001,-4.9001,-4.9001,-4.9001,-4.894,0.0,0.0,0.0,0.0,0.0,0.0,0.0,0.0,0.0,0.0,0.0,0.0,0.0,0.0,0.0,0.0,0.0,0.0,0.0,0.0,0.0,0.0,0.0,0.0,0.0,0.0,0.0,0.0,0.0,-4.5994,-4.5765,-4.5664,-4.5379,-4.4969,-4.482,-4.4556,-4.4195,-4.396,-4.3844,-4.3868,0.0,-4.3949,-4.4221,0.0,0.0,0.0,0.0,0.0,0.0,0.0,0.0,-4.5547,-4.5586,-4.5568,-4.5568,-4.5568,-4.5457,-4.5263,-4.5201,-4.5052,-4.4825,-4.4493,-4.4383,-4.4318,-4.4048,-4.4005,-4.4036,-4.4109,-4.4308,-4.4956,0.0,0.0,0.0,-4.9059,-4.9289,0.0,-5.0281,-5.1068,0.0,-5.2783,0.0,-5.4055,-5.4055,-5.4019,0.0,0.0,-5.3851,-5.3813,-5.3813,-5.3813,-5.3774,-5.3736,-5.3579,-5.3592,-5.3732,-5.4173,-5.4803,-5.5592,-5.5592,-5.5592,-5.5574,-5.4858,-5.4092,-5.3315,-5.1852,-5.0772,-5.0033,-4.9306,-4.9001,-4.9001,-4.9001,-4.9001,-4.9001,-4.9001,-4.9001,-4.894,0.0,0.0,0.0,0.0,0.0,0.0,0.0,0.0,0.0,0.0,0.0,0.0,0.0,0.0,0.0,0.0,0.0,0.0,0.0,0.0,0.0,0.0,0.0,0.0,0.0,0.0,0.0,0.0,0.0,0.0,0.0,-4.5302,-4.4947,-4.4546,-4.4327,-4.4009,-4.3656,-4.3539,0.0,0.0,0.0,0.0,0.0,0.0,0.0,0.0,0.0,0.0,0.0,0.0,0.0,-4.5381,-4.5438,-4.5438,-4.5419,-4.5322,0.0,-4.514,-4.4919,-4.4751,-4.4546,-4.4289,-4.4221,-4.421,-4.4017,-4.4005,-4.4005,-4.4085,-4.4298,0.0,-4.6023,-4.676,0.0,0.0,0.0,0.0,-5.0918,-5.1413,-5.2143,0.0,-5.3936,0.0,-5.42,-5.411,-5.4055,0.0,-5.3907,-5.3813,-5.3813,-5.3813,-5.3774,-5.3754,-5.3579,-5.3459,-5.3355,-5.3689,-5.4106,-5.4546,-5.4546,-5.4546,-5.4546,-5.3824,-5.3071,-5.2307,0.0,-5.0274,-4.9593,-4.9171,-4.9001,-4.9001,-4.9001,-4.9001,-4.9001,-4.9001,-4.9001,-4.894,0.0,0.0,0.0,0.0,0.0,0.0,0.0,0.0,0.0,0.0,0.0,0.0,0.0,0.0,0.0,0.0,0.0,0.0,0.0,0.0,0.0,0.0,0.0,0.0,0.0,0.0,0.0,0.0,0.0,0.0,0.0,0.0,0.0,0.0,0.0,0.0,0.0,0.0,0.0,0.0,0.0,0.0,0.0,0.0,0.0,0.0,0.0,0.0,0.0,0.0,-4.514,-4.5201,-4.5243,-4.5201,-4.5137,-4.4962,-4.5007,-4.4988,-4.4519,-4.4355,-4.4289,-4.4048,-4.4005,-4.4005,-4.4005,-4.4005,-4.4036,-4.4135,0.0,-4.4748,-4.5612,-4.6598,-4.7502,-4.8249,0.0,-5.0053,-5.1668,-5.1865,-5.245,-5.4202,-5.4359,-5.4289,-5.4289,-5.4181,-5.4073,-5.4019,-5.3888,-5.3813,-5.3813,-5.3813,-5.3793,-5.3714,-5.3558,-5.3418,-5.3206,-5.3206,-5.3206,-5.3206,-5.3206,-5.3164,-5.306,-5.2435,-5.1746,-5.0947,0.0,0.0,-4.9001,-4.9001,-4.9001,-4.9001,-4.9001,-4.9001,-4.9001,-4.9001,-4.9001,-4.894,0.0,0.0,0.0,0.0,0.0,0.0,0.0,0.0,0.0,0.0,0.0,0.0,0.0,0.0,0.0,0.0,0.0,0.0,0.0,0.0,0.0,0.0,0.0,0.0,0.0,0.0,0.0,0.0,0.0,0.0,0.0,0.0,0.0,0.0,0.0,0.0,0.0,0.0,0.0,0.0,0.0,0.0,0.0,0.0,0.0,0.0,0.0,0.0,-4.5381,-4.5222,-4.5201,-4.518,-4.503,-4.4943,-4.4962,-4.4896,-4.4726,-4.4519,-4.443,-4.425,-4.4048,-4.3986,-4.4005,-4.4005,-4.4005,-4.4005,0.0,0.0,-4.4188,-4.4568,-4.5421,-4.6382,-4.7314,-4.8104,-4.8957,-5.0053,-5.1668,-5.1879,-5.2498,0.0,-5.4409,0.0,0.0,0.0,0.0,0.0,0.0,0.0,-5.3813,-5.3813,-5.3793,-5.3714,-5.3558,-5.344,-5.3277,-5.323,-5.3206,-5.3206,-5.3206,-5.2955,-5.2518,-5.2242,-5.1512,-5.0442,0.0,0.0,-4.9001,-4.9001,-4.9001,-4.9001,-4.9001,-4.9001,-4.9001,-4.9001,-4.9001,-4.8956,0.0,0.0,0.0,0.0,0.0,0.0,0.0,0.0,0.0,0.0,0.0,0.0,0.0,0.0,0.0,0.0,0.0,0.0,0.0,0.0,0.0,0.0,0.0,0.0,0.0,0.0,0.0,0.0,0.0,0.0,0.0,0.0,0.0,0.0,0.0,0.0,0.0,0.0,0.0,0.0,0.0,0.0,0.0,0.0,0.0,0.0,0.0,0.0,-4.5222,-4.5096,-4.5004,-4.4929,-4.4833,-4.4764,-4.4695,-4.461,-4.4503,-4.4374,-4.4221,-4.4109,-4.4005,-4.4005,-4.4005,-4.4005,-4.4005,0.0,0.0,0.0,-4.4165,-4.4427,-4.4993,-4.611,0.0,-4.7664,-4.8716,-5.0053,-5.1668,-5.1912,0.0,-5.4202,-5.4409,0.0,0.0,0.0,0.0,0.0,0.0,0.0,-5.3794,-5.3813,-5.3793,-5.3714,-5.3558,-5.344,-5.33,-5.323,-5.3206,-5.3206,-5.3206,-5.2912,-5.2408,-5.2024,-5.1294,-5.0293,0.0,0.0,-4.9001,-4.9001,-4.9001,-4.9001,-4.9001,-4.9001,-4.9001,-4.9001,-4.8956,-4.8894,0.0,0.0,0.0,0.0,0.0,0.0,0.0,0.0,0.0,0.0,0.0,0.0,0.0,0.0,0.0,0.0,0.0,0.0,0.0,0.0,0.0,0.0,0.0,0.0,0.0,0.0,0.0,0.0,0.0,0.0,0.0,0.0,0.0,0.0,0.0,0.0,0.0,0.0,0.0,0.0,0.0,0.0,0.0,0.0,0.0,0.0,0.0,0.0,0.0,0.0,-4.4764,-4.4685,-4.4659,-4.4568,-4.4467,-4.4325,-4.4335,-4.4308,-4.4048,-4.4005,-4.4005,-4.4005,-4.4005,-4.4005,-4.4005,-4.4005,0.0,-4.4135,-4.4184,-4.4266,-4.4557,-4.5876,-4.6963,0.0,-4.8512,-5.0053,-5.1668,-5.1912,-5.2531,0.0,-5.4409,0.0,0.0,0.0,0.0,0.0,0.0,0.0,0.0,-5.3813,-5.3793,-5.3734,-5.3598,-5.3499,-5.3359,-5.3254,-5.3206,-5.3206,-5.3206,-5.2868,-5.2203,-5.175,-5.0999,-5.0085,0.0,0.0,0.0,-4.9001,-4.9001,-4.9001,-4.9001,-4.9001,-4.9001,-4.9001,-4.8894,-4.8769,0.0,0.0,0.0,0.0,0.0,0.0,0.0,0.0,0.0,0.0,0.0,0.0,0.0,0.0,0.0,0.0,0.0,0.0,0.0,0.0,0.0,0.0,0.0,0.0,0.0,0.0,0.0,0.0,0.0,0.0,0.0,0.0,0.0,0.0,0.0,0.0,0.0,0.0,0.0,0.0,0.0,0.0,0.0,0.0,0.0,0.0,0.0,0.0,0.0,0.0,0.0,-4.4685,-4.4496,-4.4411,-4.4383,-4.4314,0.0,0.0,-4.4036,-4.4005,-4.4005,-4.4005,-4.4005,-4.4005,-4.4005,0.0,-4.4005,-4.4005,-4.4104,-4.4244,-4.4314,-4.5739,-4.6922,-4.7022,-4.8401,-5.0053,-5.1668,-5.1912,-5.2531,-5.4202,0.0,0.0,0.0,0.0,0.0,0.0,0.0,0.0,0.0,-5.3813,-5.3813,-5.3813,-5.3734,-5.3616,-5.3481,-5.3359,-5.3254,-5.3206,-5.3206,-5.2654,-5.1669,-5.1447,-5.0715,-4.953,0.0,0.0,0.0,-4.9001,-4.9001,-4.9001,-4.9001,-4.9001,-4.9001,-4.9001,-4.8894,-4.8769,0.0,0.0,0.0,0.0,0.0,0.0,0.0,0.0,0.0,0.0,0.0,0.0,0.0,0.0,0.0,0.0,0.0,0.0,0.0,0.0,0.0,0.0,0.0,0.0,0.0,0.0,0.0,0.0,0.0,0.0,0.0,0.0,0.0,0.0,0.0,0.0,0.0,0.0,0.0,0.0,0.0,0.0,0.0,0.0,0.0,0.0,0.0,0.0,0.0,0.0,0.0,0.0,-4.4458,-4.4458,0.0,0.0,-4.4244,-4.4184,-4.4055,-4.4005,-4.4005,-4.4005,-4.4005,-4.4005,-4.4005,0.0,-4.4005,-4.4005,-4.4036,-4.4265,-4.489,-4.5978,-4.6974,-4.7601,-4.872,0.0,-5.1668,-5.1912,-5.2531,0.0,0.0,0.0,0.0,0.0,0.0,0.0,0.0,0.0,0.0,-5.4351,-5.3813,-5.3813,-5.3716,-5.3656,-5.3499,-5.3359,-5.3254,-5.3206,-5.3206,-5.2654,-5.1601,-5.1396,-5.0643,-4.9488,0.0,0.0,0.0,-4.9001,-4.9001,-4.9001,-4.9001,-4.9001,-4.9001,-4.9001,-4.8894,-4.8769,0.0,0.0,0.0,0.0,0.0,0.0,0.0,0.0,0.0,0.0,0.0,0.0,0.0,0.0,0.0,0.0,0.0,0.0,0.0,0.0,0.0,0.0,0.0,0.0,0.0,0.0,0.0,0.0,0.0,0.0,0.0,0.0,0.0,0.0,0.0,0.0,0.0,0.0,0.0,0.0,0.0,0.0,0.0,0.0,0.0,0.0,0.0,0.0,0.0,0.0,0.0,0.0,0.0,-4.4487,-4.4487,0.0,-4.4285,-4.4195,-4.4085,-4.4036,-4.4005,-4.4005,-4.4005,-4.4005,0.0,0.0,-4.4005,-4.4005,-4.4005,-4.4278,-4.5289,-4.6153,-4.7018,-4.8002,0.0,-5.0053,-5.1668,-5.1912,-5.2531,0.0,0.0,0.0,0.0,0.0,0.0,0.0,0.0,0.0,0.0,-5.4444,-5.3924,-5.4166,-5.4086,-5.3896,-5.3499,-5.3359,-5.3193,-5.2955,-5.2955,-5.2408,-5.1365,-5.1209,-5.057,0.0,0.0,0.0,0.0,-4.9001,-4.9001,-4.9001,-4.9001,-4.9001,-4.9001,-4.9001,-4.8894,-4.8707,0.0,0.0,0.0,0.0,0.0,0.0,0.0,0.0,0.0,0.0,0.0,0.0,0.0,0.0,0.0,0.0,0.0,0.0,0.0,0.0,0.0,0.0,0.0,0.0,0.0,0.0,0.0,0.0,0.0,0.0,0.0,0.0,0.0,0.0,0.0,0.0,0.0,0.0,0.0,0.0,0.0,0.0,0.0,0.0,0.0,0.0,0.0,0.0,0.0,0.0,0.0,0.0,0.0,-4.4458,-4.4487,-4.4411,-4.4354,-4.4285,-4.4214,-4.4104,-4.4005,-4.4005,-4.4005,-4.4005,0.0,-4.4005,-4.4005,-4.4005,-4.4005,-4.4296,-4.5246,-4.6122,-4.7006,-4.7947,-4.8884,0.0,-5.1668,-5.1912,0.0,0.0,0.0,0.0,0.0,0.0,0.0,0.0,0.0,0.0,0.0,0.0,-5.4166,-5.4964,-5.492,-5.4452,-5.3499,-5.3359,-5.2987,-5.2408,-5.2408,-5.1866,-5.0803,-5.0803,0.0,0.0,0.0,0.0,0.0,-4.9001,-4.9001,-4.9001,-4.9001,-4.9001,-4.9001,-4.9001,-4.8815,-4.8483,0.0,0.0,0.0,0.0,0.0,0.0,0.0,0.0,0.0,0.0,0.0,0.0,0.0,0.0,0.0,0.0,0.0,0.0,0.0,0.0,0.0,0.0,0.0,0.0,0.0,0.0,0.0,0.0,0.0,0.0,0.0,0.0,0.0,0.0,0.0,0.0,0.0,0.0,0.0,0.0,0.0,0.0,0.0,0.0,0.0,0.0,0.0,0.0,0.0,0.0,0.0,0.0,0.0,0.0,0.0,-4.4458,-4.4411,-4.4344,-4.4244,-4.4184,-4.4104,-4.4005,-4.4005,-4.4005,-4.4005,-4.4005,-4.4005,-4.4005,-4.4469,-4.517,-4.6065,-4.6917,-4.7783,-4.8752,-4.9677,0.0,0.0,0.0,0.0,0.0,0.0,0.0,0.0,0.0,0.0,0.0,0.0,0.0,0.0,0.0,-5.4481,-5.4203,-5.4105,-5.3896,-5.3499,-5.3359,-5.2987,-5.2408,-5.2408,-5.1866,-5.082,-5.0659,0.0,0.0,0.0,0.0,0.0,-4.8318,-4.7953,-4.7496,-4.7496,-4.7496,-4.7496,-4.7496,-4.7436,-4.7299,0.0,0.0,0.0,0.0,0.0,0.0,0.0,0.0,0.0,0.0,0.0,0.0,0.0,0.0,0.0,0.0,0.0,0.0,0.0,0.0,0.0,0.0,0.0,0.0,0.0,0.0,0.0,0.0,0.0,0.0,0.0,0.0,0.0,0.0,0.0,0.0,0.0,0.0,0.0,0.0,0.0,0.0,-4.4248,0.0,0.0,0.0,0.0,0.0,0.0,0.0,0.0,0.0,0.0,0.0,0.0,0.0,-4.4487,-4.4411,-4.4314,-4.4244,-4.4184,-4.4104,-4.4055,-4.4005,-4.4005,-4.4005,-4.4098,-4.4413,-4.4915,-4.5653,-4.6801,-4.7448,-4.811,-4.9067,-4.9973,-5.0829,0.0,0.0,0.0,0.0,0.0,0.0,0.0,0.0,0.0,0.0,0.0,0.0,0.0,0.0,-5.4333,-5.3831,-5.3973,-5.3894,-5.3499,-5.3133,-5.2516,-5.164,-5.1449,-5.0744,-4.9637,0.0,0.0,0.0,0.0,0.0,0.0,-4.7539,-4.7208,-4.6786,-4.6786,-4.6786,-4.6786,-4.6786,-4.6727,-4.6608,0.0,0.0,0.0,0.0,0.0,0.0,0.0,0.0,0.0,0.0,0.0,0.0,0.0,0.0,0.0,0.0,0.0,0.0,0.0,0.0,0.0,0.0,0.0,0.0,0.0,0.0,0.0,0.0,-4.3251,-4.3196,-4.3178,0.0,0.0,0.0,0.0,0.0,0.0,0.0,0.0,0.0,0.0,0.0,0.0,0.0,0.0,0.0,0.0,0.0,0.0,0.0,0.0,0.0,0.0,0.0,0.0,0.0,0.0,0.0,0.0,-4.4314,-4.4214,-4.4184,-4.4085,-4.4023,-4.4079,-4.4066,0.0,-4.5194,-4.5384,-4.5834,-4.7389,-4.772,-4.8051,-4.8885,-4.9791,0.0,0.0,0.0,0.0,0.0,0.0,0.0,0.0,0.0,0.0,0.0,0.0,0.0,0.0,0.0,0.0,-5.3624,-5.4094,-5.4049,-5.3367,-5.2579,-5.1549,-5.0249,-4.9764,-4.8852,-4.7717,0.0,0.0,0.0,0.0,0.0,0.0,-4.676,-4.6684,-4.6633,-4.6633,-4.6633,-4.6633,-4.6633,-4.6439,-4.614,0.0,0.0,0.0,0.0,0.0,0.0,0.0,0.0,0.0,0.0,0.0,0.0,0.0,0.0,0.0,0.0,0.0,0.0,0.0,0.0,0.0,0.0,0.0,0.0,0.0,0.0,0.0,-4.2804,-4.305,-4.3123,-4.2975,-4.2938,0.0,0.0,0.0,0.0,0.0,0.0,0.0,0.0,0.0,0.0,0.0,0.0,0.0,0.0,-4.3883,-4.3961,0.0,0.0,0.0,0.0,0.0,0.0,0.0,0.0,-4.4344,-4.4344,-4.4344,0.0,-4.4226,-4.4085,-4.4005,-4.4172,0.0,-4.4724,-4.4791,-4.5964,-4.6194,-4.6335,-4.7059,-4.7421,-4.7722,-4.7983,-4.923,-5.0259,0.0,0.0,0.0,0.0,0.0,0.0,0.0,0.0,0.0,0.0,0.0,0.0,0.0,0.0,0.0,-5.1803,-5.1271,-5.1358,-5.2035,-5.0805,-4.9758,-4.8937,-4.8852,-4.8417,-4.7717,0.0,0.0,0.0,0.0,0.0,0.0,-4.5998,-4.5618,-4.5111,-4.5111,-4.5111,-4.5111,-4.5111,-4.4963,-4.4774,0.0,0.0,0.0,0.0,0.0,0.0,0.0,0.0,0.0,0.0,0.0,0.0,0.0,0.0,0.0,0.0,0.0,0.0,0.0,0.0,0.0,0.0,0.0,0.0,0.0,0.0,0.0,0.0,0.0,-4.305,0.0,0.0,0.0,0.0,0.0,0.0,0.0,0.0,0.0,0.0,-4.3719,0.0,0.0,0.0,0.0,0.0,-4.3832,-4.3929,0.0,-4.4005,-4.4036,-4.4085,0.0,0.0,0.0,0.0,-4.4285,-4.4285,-4.4255,-4.4255,-4.4226,-4.4135,-4.4352,-4.4679,-4.4909,-4.5072,-4.5388,-4.6287,-4.6442,-4.6563,0.0,-4.7448,-4.7741,0.0,-4.9234,0.0,0.0,0.0,0.0,0.0,0.0,0.0,0.0,0.0,0.0,0.0,0.0,0.0,0.0,0.0,0.0,0.0,-5.0695,-5.0335,-5.0703,-4.965,-4.8746,-4.801,-4.7736,-4.7298,-4.6665,0.0,0.0,0.0,0.0,0.0,-4.5371,-4.5235,-4.4942,-4.4587,-4.4587,-4.4587,-4.4587,-4.4587,-4.444,-4.4196,0.0,0.0,0.0,0.0,0.0,0.0,0.0,0.0,0.0,0.0,0.0,0.0,0.0,0.0,0.0,0.0,0.0,0.0,0.0,0.0,0.0,0.0,0.0,0.0,0.0,0.0,0.0,0.0,0.0,0.0,0.0,0.0,0.0,0.0,0.0,0.0,0.0,0.0,0.0,0.0,-4.3667,0.0,0.0,0.0,0.0,0.0,0.0,0.0,0.0,-4.3942,-4.4055,-4.4153,-4.4184,0.0,0.0,0.0,0.0,0.0,-4.4104,-4.4116,-4.4178,-4.4259,-4.4684,-4.5041,-4.4894,-4.5351,-4.595,-4.6472,-4.647,0.0,0.0,-4.7601,0.0,0.0,0.0,0.0,0.0,0.0,0.0,0.0,0.0,0.0,0.0,0.0,0.0,0.0,0.0,0.0,0.0,0.0,0.0,0.0,-5.0748,-4.9906,-4.9435,-4.8873,-4.8221,-4.7436,-4.6845,-4.6251,-4.5596,-4.5492,0.0,0.0,0.0,0.0,-4.4776,-4.4626,-4.4587,-4.4587,-4.4587,-4.4587,-4.4587,-4.457,-4.4327,-4.4097,0.0,0.0,0.0,0.0,0.0,0.0,0.0,0.0,0.0,0.0,0.0,0.0,0.0,0.0,0.0,0.0,0.0,0.0,0.0,0.0,0.0,0.0,0.0,0.0,0.0,0.0,0.0,0.0,0.0,0.0,-4.2378,-4.2768,-4.2938,0.0,0.0,0.0,0.0,-4.3123,-4.3214,-4.3268,-4.3411,0.0,0.0,0.0,0.0,0.0,0.0,0.0,0.0,-4.3897,-4.3929,-4.3979,-4.4005,0.0,0.0,0.0,0.0,0.0,-4.3526,-4.3778,-4.4126,-4.447,-4.4382,-4.4558,-4.5824,-4.5894,-4.6047,-4.7163,-4.6775,0.0,0.0,-4.7707,-4.7682,0.0,0.0,0.0,0.0,0.0,0.0,0.0,0.0,0.0,0.0,0.0,0.0,0.0,0.0,0.0,0.0,0.0,0.0,0.0,0.0,-4.866,-4.833,-4.8242,-4.7995,-4.7637,-4.6961,-4.6544,-4.6406,-4.5734,-4.5247,0.0,0.0,0.0,-4.4626,-4.4626,-4.4587,-4.4587,-4.4587,-4.4587,-4.457,-4.444,-4.4253,-4.4039,0.0,0.0,0.0,0.0,0.0,0.0,0.0,0.0,0.0,0.0,0.0,0.0,0.0,0.0,0.0,0.0,0.0,0.0,0.0,0.0,0.0,0.0,0.0,0.0,0.0,0.0,0.0,0.0,0.0,-4.1864,-4.2338,-4.2844,-4.3013,-4.29,0.0,0.0,0.0,-4.3049,-4.3123,-4.3214,0.0,0.0,0.0,0.0,0.0,0.0,0.0,0.0,0.0,0.0,-4.3869,-4.3818,-4.3664,0.0,0.0,0.0,0.0,0.0,-4.3652,-4.3713,-4.3899,-4.4949,-4.5247,-4.5427,-4.5917,-4.6203,-4.6435,-4.6791,0.0,0.0,0.0,0.0,-4.8257,0.0,0.0,0.0,0.0,0.0,0.0,0.0,0.0,0.0,0.0,0.0,0.0,0.0,0.0,0.0,0.0,0.0,0.0,0.0,0.0,0.0,-4.9353,-4.9336,-4.8771,-4.7717,-4.7372,-4.72,-4.72,-4.682,-4.6315,0.0,0.0,-4.5244,-4.4682,-4.4626,-4.4587,-4.4587,-4.4587,-4.4587,-4.457,-4.427,-4.4097,-4.3939,0.0,0.0,0.0,0.0,0.0,0.0,0.0,0.0,0.0,0.0,0.0,0.0,0.0,0.0,0.0,0.0,0.0,0.0,0.0,0.0,0.0,0.0,0.0,0.0,0.0,0.0,0.0,-4.0628,-4.0849,-4.141,-4.2378,-4.2806,-4.2957,0.0,0.0,0.0,0.0,-4.3012,-4.3123,-4.3196,0.0,0.0,0.0,0.0,0.0,0.0,0.0,0.0,0.0,0.0,0.0,0.0,0.0,0.0,0.0,-4.3102,-4.3139,-4.3395,-4.392,-4.393,-4.405,-4.5257,-4.5837,-4.6047,-4.5863,-4.6315,-4.6702,-4.6499,0.0,0.0,0.0,-4.8556,0.0,0.0,0.0,0.0,0.0,0.0,0.0,0.0,0.0,0.0,0.0,0.0,0.0,0.0,0.0,0.0,0.0,0.0,0.0,0.0,0.0,0.0,-5.0397,-5.0415,-4.9656,-4.8252,-4.8062,-4.7976,-4.7976,-4.7786,-4.7262,-4.6567,-4.64,-4.5879,-4.5031,-4.4897,-4.4739,-4.4587,-4.4587,-4.457,-4.4457,-4.4212,-4.3998,-4.3822,0.0,0.0,0.0,0.0,0.0,0.0,0.0,0.0,0.0,0.0,0.0,0.0,0.0,0.0,0.0,0.0,0.0,0.0,0.0,0.0,0.0,0.0,0.0,0.0,0.0,-4.0138,-4.0121,-4.0171,-4.058,-4.1276,-4.2198,-4.2378,-4.2634,-4.29,0.0,0.0,-4.2882,-4.292,-4.2994,-4.3104,-4.3104,0.0,0.0,0.0,0.0,0.0,0.0,0.0,0.0,0.0,0.0,0.0,0.0,0.0,-4.2706,-4.3346,-4.3275,-4.3215,-4.4041,-4.4541,-4.4861,-4.5062,-4.5193,-4.5369,-4.6024,-4.6235,-4.6481,-4.7151,0.0,0.0,0.0,0.0,0.0,0.0,0.0,0.0,0.0,0.0,0.0,0.0,0.0,0.0,0.0,0.0,0.0,0.0,0.0,0.0,0.0,0.0,0.0,0.0,0.0,0.0,-5.0397,-5.0415,-5.0194,-4.9838,-4.9097,-4.8734,-4.8717,-4.8027,-4.7589,-4.7408,-4.7204,-4.6664,-4.5796,-4.5659,-4.5213,-4.4587,-4.4587,-4.44,-4.4155,-4.4097,-4.3923,-4.3628,0.0,0.0,0.0,0.0,0.0,0.0,0.0,0.0,0.0,0.0,0.0,0.0,0.0,0.0,0.0,0.0,0.0,0.0,0.0,0.0,0.0,0.0,0.0,-4.1116,-4.0798,-4.0307,-4.007,-4.007,-4.058,-4.0972,-4.1338,-4.1674,0.0,0.0,0.0,0.0,0.0,-4.2768,-4.2806,-4.2709,-4.2974,-4.2994,0.0,0.0,0.0,0.0,0.0,0.0,0.0,0.0,-4.2519,-4.244,0.0,0.0,-4.3089,-4.29,-4.3235,-4.3809,-4.4378,-4.4642,-4.4928,-4.5481,-4.5653,-4.5772,-4.6119,-4.6172,-4.6449,-4.7222,-4.7766,0.0,0.0,0.0,0.0,0.0,0.0,0.0,0.0,0.0,0.0,0.0,0.0,0.0,0.0,0.0,0.0,0.0,0.0,0.0,0.0,0.0,0.0,0.0,0.0,0.0,0.0,-4.9833,-4.9496,-4.9269,-4.9459,-4.9562,-4.9545,-4.9269,-4.8557,-4.7606,-4.7364,-4.6532,-4.535,-4.5106,-4.484,-4.4587,-4.4587,-4.4457,-4.4196,-4.4155,-4.3998,-4.3763,0.0,0.0,0.0,0.0,0.0,0.0,0.0,0.0,0.0,0.0,0.0,0.0,0.0,0.0,0.0,0.0,0.0,0.0,0.0,0.0,0.0,0.0,0.0,-4.0943,-4.0889,-4.0404,-4.0137,-4.007,-4.0451,-4.0659,-4.0802,0.0,0.0,0.0,0.0,0.0,0.0,0.0,-4.232,-4.2157,-4.2476,-4.2418,0.0,0.0,0.0,0.0,0.0,0.0,0.0,0.0,0.0,0.0,0.0,0.0,0.0,0.0,-4.3533,-4.4265,-4.4829,-4.4954,-4.5144,-4.58,-4.5922,-4.5972,-4.6073,-4.6315,-4.6818,-4.759,-4.8556,-4.9592,-5.0697,0.0,0.0,0.0,0.0,0.0,0.0,0.0,0.0,0.0,0.0,0.0,0.0,0.0,0.0,0.0,0.0,0.0,0.0,0.0,0.0,0.0,0.0,0.0,0.0,-4.9136,-4.8643,-4.8476,-4.9028,-4.9286,-4.9286,-4.9286,-4.8717,-4.7662,-4.742,-4.6515,-4.5337,-4.5038,-4.479,-4.4587,-4.4587,-4.4497,-4.4293,-4.4155,-4.3998,-4.3898,0.0,0.0,0.0,0.0,0.0,0.0,0.0,0.0,0.0,0.0,0.0,0.0,0.0,0.0,0.0,0.0,0.0,0.0,0.0,0.0,0.0,0.0,0.0,-4.0318,-4.0222,-4.0172,-4.0151,-4.007,-4.007,-4.0353,-4.0802,-4.0802,0.0,0.0,0.0,0.0,0.0,0.0,-4.1481,-4.1481,-4.1481,-4.1481,-4.1481,0.0,0.0,0.0,0.0,0.0,0.0,0.0,-4.1168,0.0,0.0,0.0,0.0,0.0,-4.4285,-4.4509,-4.5373,-4.5632,-4.5632,-4.577,0.0,0.0,-4.5787,-4.6634,-4.7608,-4.8363,-4.9785,-5.0891,-5.0891,0.0,0.0,0.0,0.0,0.0,0.0,0.0,0.0,0.0,0.0,0.0,0.0,0.0,0.0,0.0,0.0,0.0,0.0,0.0,0.0,0.0,0.0,0.0,0.0,-4.8266,-4.783,-4.77,-4.77,-4.77,-4.7717,-4.7717,-4.7717,-4.7644,-4.7329,-4.6772,-4.6071,-4.5784,-4.5263,-4.4587,-4.4587,-4.4497,-4.431,-4.4155,-4.3998,-4.3898,0.0,0.0,0.0,0.0,0.0,0.0,0.0,0.0,0.0,0.0,0.0,0.0,0.0,0.0,0.0,0.0,0.0,0.0,0.0,0.0,0.0,0.0,0.0,0.0,0.0,0.0,-4.0151,-4.007,-4.007,-4.0171,0.0,0.0,0.0,-4.1019,0.0,0.0,0.0,0.0,0.0,0.0,-4.1348,-4.1303,0.0,0.0,0.0,0.0,0.0,0.0,0.0,0.0,0.0,0.0,0.0,0.0,0.0,-4.4044,-4.4613,-4.513,-4.5424,-4.5476,-4.5476,-4.5632,0.0,0.0,0.0,-4.6899,0.0,0.0,-4.9938,-5.0675,-5.0675,0.0,0.0,0.0,0.0,0.0,0.0,0.0,0.0,0.0,0.0,0.0,0.0,0.0,0.0,0.0,0.0,0.0,0.0,0.0,0.0,0.0,0.0,0.0,0.0,0.0,-4.6978,-4.6924,-4.6372,-4.6665,-4.7717,-4.7717,-4.7441,-4.6886,-4.6542,-4.6003,-4.532,-4.5021,-4.479,-4.4587,-4.4587,-4.457,-4.4514,-4.4212,-4.4039,-4.3998,0.0,0.0,0.0,0.0,0.0,0.0,0.0,0.0,0.0,0.0,0.0,0.0,0.0,0.0,0.0,0.0,0.0,0.0,0.0,0.0,0.0,0.0,0.0,0.0,0.0,-4.1009,-4.0879,0.0,0.0,0.0,0.0,0.0,0.0,-4.1422,0.0,-4.1422,0.0,0.0,0.0,0.0,-4.1401,-4.1202,0.0,0.0,0.0,0.0,0.0,0.0,0.0,0.0,0.0,0.0,0.0,0.0,0.0,-4.4386,-4.485,-4.53,-4.53,-4.5371,0.0,-4.5528,-4.5528,-4.5805,-4.7001,0.0,0.0,0.0,0.0,-5.0492,0.0,0.0,0.0,0.0,0.0,0.0,0.0,0.0,0.0,0.0,0.0,0.0,0.0,0.0,0.0,0.0,0.0,0.0,0.0,0.0,0.0,0.0,0.0,0.0,0.0,0.0,0.0,-4.613,-4.5648,-4.5906,-4.6803,-4.6803,-4.6562,-4.6094,-4.5826,-4.5333,-4.4831,-4.4682,-4.4587,-4.4587,-4.4587,-4.4587,-4.457,-4.4212,-4.4097,-4.4039,0.0,0.0,0.0,0.0,0.0,0.0,0.0,0.0,0.0,0.0,0.0,0.0,0.0,0.0,0.0,0.0,0.0,0.0,0.0,0.0,0.0,0.0,0.0,0.0,0.0,0.0,0.0,0.0,0.0,0.0,0.0,0.0,-4.166,-4.2286,0.0,-4.2286,0.0,0.0,0.0,0.0,0.0,0.0,0.0,0.0,0.0,0.0,0.0,0.0,0.0,0.0,0.0,0.0,-4.3246,-4.3829,-4.4107,-4.479,-4.5086,-4.5177,-4.5177,-4.53,-4.5371,-4.5371,-4.5422,0.0,-4.7389,-4.8526,-4.9455,-5.0202,0.0,0.0,0.0,0.0,0.0,0.0,0.0,0.0,0.0,0.0,0.0,0.0,0.0,0.0,0.0,0.0,0.0,0.0,0.0,0.0,0.0,0.0,0.0,0.0,0.0,0.0,0.0,0.0,0.0,0.0,-4.5216,-4.5216,-4.5216,-4.5354,-4.5371,-4.5371,-4.5086,-4.4831,-4.4587,-4.4587,-4.4587,-4.4587,-4.4587,-4.457,-4.4514,-4.4212,-4.4097,-4.4039,0.0,0.0,0.0,0.0,0.0,0.0,0.0,0.0,0.0,0.0,0.0,0.0,0.0,0.0,0.0,0.0,0.0,0.0,0.0,0.0,0.0,0.0,0.0,0.0,0.0,0.0,0.0,0.0,0.0,0.0,0.0,0.0,0.0,-4.2286,0.0,-4.2286,0.0,0.0,0.0,0.0,0.0,0.0,-4.2049,0.0,0.0,0.0,0.0,0.0,0.0,0.0,0.0,0.0,-4.3373,-4.4007,-4.4627,-4.478,-4.4923,-4.5032,-4.5032,-4.514,0.0,-4.5247,-4.5782,-4.6596,-4.751,-4.8342,-4.9102,-4.9936,0.0,0.0,0.0,0.0,0.0,0.0,0.0,0.0,0.0,0.0,0.0,0.0,0.0,0.0,0.0,0.0,0.0,0.0,0.0,0.0,0.0,0.0,0.0,0.0,0.0,0.0,-4.4768,-4.4027,-4.3647,0.0,-4.3647,-4.3647,-4.3699,-4.4889,-4.5264,-4.5103,-4.494,-4.4737,-4.4587,-4.4587,-4.4587,-4.4587,-4.4587,-4.4497,-4.4367,-4.4155,-4.4056,-4.3881,0.0,0.0,0.0,0.0,0.0,0.0,0.0,0.0,0.0,0.0,0.0,0.0,0.0,0.0,0.0,0.0,0.0,0.0,0.0,0.0,0.0,0.0,0.0,0.0,0.0,0.0,0.0,0.0,0.0,0.0,0.0,0.0,0.0,-4.3386,0.0,-4.3386,0.0,0.0,0.0,0.0,0.0,-4.2828,-4.2794,-4.2422,0.0,0.0,-4.2286,0.0,0.0,0.0,0.0,0.0,0.0,0.0,-4.4682,-4.4682,-4.4776,-4.4869,-4.4869,0.0,0.0,-4.4691,0.0,-4.6642,-4.7489,-4.8043,-4.8531,0.0,0.0,0.0,0.0,0.0,0.0,0.0,0.0,0.0,0.0,0.0,0.0,0.0,0.0,0.0,0.0,0.0,0.0,0.0,0.0,0.0,0.0,0.0,0.0,0.0,0.0,0.0,-4.3339,-4.3253,-4.3214,-4.3214,-4.3114,-4.3081,-4.3065,-4.389,-4.4077,-4.3778,-4.3724,-4.3634,-4.3487,-4.3487,-4.3487,-4.3487,-4.3487,-4.3432,-4.325,-4.3099,-4.2946,-4.2832,0.0,0.0,0.0,0.0,0.0,0.0,0.0,0.0,0.0,0.0,0.0,0.0,0.0,0.0,0.0,0.0,0.0,0.0,0.0,0.0,0.0,0.0,0.0,0.0,0.0,0.0,0.0,0.0,0.0,0.0,0.0,0.0,0.0,-4.4587,0.0,0.0,0.0,0.0,0.0,0.0,-4.3876,-4.3623,-4.3555,-4.2929,-4.2692,-4.2692,-4.2692,-4.2692,-4.2777,-4.3403,0.0,0.0,0.0,0.0,-4.4587,-4.4587,-4.4682,-4.472,-4.4592,0.0,-4.3864,-4.3946,-4.4891,0.0,-4.6879,-4.7191,-4.7558,0.0,0.0,0.0,0.0,0.0,0.0,0.0,0.0,0.0,0.0,0.0,0.0,0.0,0.0,0.0,0.0,0.0,0.0,0.0,0.0,0.0,0.0,0.0,0.0,0.0,0.0,-4.1996,-4.2119,-4.2501,-4.2668,-4.2785,-4.2635,-4.2483,-4.2398,-4.2483,-4.2535,-4.2481,-4.2481,-4.2375,-4.2286,-4.2286,-4.2286,-4.2286,-4.2286,-4.2196,-4.2051,-4.1959,-4.1794,-4.161,0.0,0.0,0.0,0.0,0.0,0.0,0.0,0.0,0.0,0.0,0.0,0.0,0.0,0.0,0.0,0.0,0.0,0.0,-4.0011,0.0,0.0,-4.0524,0.0,0.0,0.0,0.0,0.0,0.0,0.0,0.0,0.0,0.0,0.0,-4.4587,0.0,0.0,0.0,0.0,0.0,0.0,-4.4468,-4.4418,-4.4418,-4.4316,-4.4265,-4.4265,-4.4265,-4.4265,-4.4299,-4.4401,-4.4418,0.0,0.0,0.0,-4.4587,-4.4587,-4.4626,-4.4497,-4.3839,0.0,-4.3015,0.0,-4.3306,-4.3614,0.0,0.0,0.0,0.0,0.0,0.0,0.0,0.0,0.0,0.0,0.0,0.0,0.0,0.0,0.0,0.0,0.0,0.0,0.0,0.0,0.0,0.0,0.0,0.0,0.0,0.0,-4.0804,-4.0626,-4.0562,0.0,-4.1357,-4.0748,-4.0643,-4.1054,-4.0891,-4.0743,-4.0644,-4.0644,-4.1342,-4.2481,-4.2392,-4.2339,-4.2286,-4.2286,-4.2286,-4.2286,-4.2286,-4.2159,-4.1904,-4.1921,-4.1722,-4.1425,0.0,0.0,0.0,0.0,0.0,0.0,0.0,0.0,0.0,0.0,0.0,0.0,0.0,0.0,0.0,-3.9424,-3.9625,-3.9925,-4.0137,-4.0401,-4.0524,-4.0524,-4.0524,0.0,0.0,0.0,0.0,0.0,0.0,0.0,0.0,-4.3604,-4.4121,0.0,0.0,0.0,0.0,0.0,0.0,-4.444,-4.4105,-4.3931,-4.3931,-4.4384,-4.4327,-4.3948,-4.444,-4.431,-4.3972,-4.3972,-4.3972,-4.3914,-4.3529,0.0,0.0,0.0,-4.341,-4.329,-4.2583,-4.252,-4.2583,0.0,-4.2583,-4.3133,-4.3945,0.0,0.0,0.0,0.0,0.0,0.0,0.0,0.0,0.0,0.0,0.0,0.0,0.0,0.0,0.0,0.0,0.0,0.0,0.0,0.0,0.0,0.0,0.0,0.0,-3.9415,-3.923,-3.8846,-3.9056,0.0,-3.9582,-3.9796,-4.0087,-4.0502,-4.0404,-4.0337,-4.0188,-4.0188,-4.0527,-4.1138,-4.1103,-4.1052,-4.1052,-4.1052,-4.1052,-4.1052,-4.1052,-4.0896,-4.0665,-4.0665,-4.0488,-4.0216,0.0,0.0,0.0,0.0,0.0,0.0,0.0,0.0,0.0,0.0,0.0,0.0,0.0,0.0,0.0,0.0,-3.9625,-3.991,-4.0331,-4.0455,-4.0524,-4.0524,-4.0524,-4.0524,0.0,0.0,0.0,0.0,0.0,0.0,-4.2205,-4.2785,-4.3366,0.0,-4.4121,-4.4047,0.0,0.0,0.0,-4.3722,-4.3333,-4.3092,-4.3108,-4.3739,-4.3545,-4.3047,-4.3739,0.0,0.0,-4.3257,-4.3257,-4.3136,-4.2645,-4.2831,0.0,0.0,0.0,-4.2141,0.0,0.0,-4.1901,-4.1541,-4.1852,-4.2413,0.0,0.0,0.0,0.0,0.0,0.0,0.0,0.0,0.0,0.0,0.0,0.0,0.0,0.0,0.0,0.0,0.0,0.0,0.0,0.0,0.0,0.0,0.0,0.0,-3.8318,-3.8254,-3.8017,-3.7496,-3.7886,-3.8141,-3.8238,-3.9226,-3.9833,-4.007,-4.0188,-4.0188,-4.007,-4.007,-4.007,-4.007,-4.007,-4.007,-4.007,-4.007,-4.007,-4.007,-4.007,-3.9935,-3.9677,-3.9677,-3.952,-3.9272,0.0,0.0,0.0,0.0,0.0,0.0,0.0,0.0,0.0,0.0,0.0,0.0,-3.9424,-3.9424,-3.9424,-3.9424,-3.9783,-4.0137,-4.047,-4.0539,-4.0524,-4.0524,-4.0524,0.0,-4.0524,0.0,0.0,0.0,0.0,0.0,-4.1393,-4.2013,-4.2252,-4.2189,-4.2814,-4.2737,-4.2125,0.0,0.0,0.0,-4.2189,-4.2189,-4.2332,-4.2189,0.0,0.0,0.0,0.0,0.0,0.0,-4.2583,-4.2583,-4.252,-4.2504,-4.2583,0.0,0.0,0.0,0.0,-4.1091,0.0,-4.0593,-4.0578,0.0,0.0,0.0,0.0,0.0,0.0,0.0,0.0,0.0,0.0,0.0,0.0,0.0,0.0,0.0,0.0,0.0,0.0,0.0,0.0,0.0,0.0,0.0,0.0,0.0,-3.7575,-3.7528,-3.7512,-3.748,-3.7539,-3.7743,-3.8116,-3.8957,-3.9437,-3.9437,-3.9901,-4.0138,-4.007,-4.007,-4.007,-4.007,-4.007,-4.007,-4.007,-4.007,-4.007,-4.007,-4.007,-3.9935,-3.9677,-3.9677,-3.952,-3.9272,0.0,0.0,0.0,0.0,0.0,0.0,0.0,0.0,0.0,0.0,0.0,0.0,0.0,-3.8512,-3.8751,-3.8751,-3.9526,-3.9996,-3.9965,-4.0261,-4.0401,-4.0401,-4.0401,-4.0401,-4.0524,0.0,0.0,0.0,0.0,-4.0715,-4.0646,-4.1075,-4.0977,-4.0585,-4.1804,-4.2173,-4.1804,-4.1494,0.0,0.0,0.0,0.0,0.0,0.0,0.0,0.0,0.0,0.0,0.0,0.0,-4.1575,-4.1509,-4.1209,-4.1393,-4.1641,-4.1343,-4.0956,-4.0783,0.0,0.0,0.0,-4.0401,-4.047,-4.0455,0.0,0.0,0.0,0.0,0.0,0.0,0.0,0.0,0.0,0.0,0.0,0.0,0.0,0.0,0.0,0.0,0.0,0.0,0.0,0.0,0.0,0.0,0.0,0.0,-3.7496,-3.748,-3.748,-3.748,-3.7389,-3.7476,-3.778,-3.8108,-3.8613,-3.9295,-3.9418,-3.9747,-4.007,-4.007,-4.007,-4.007,-4.007,-4.007,-4.007,-4.007,-4.007,-4.007,-3.9986,-3.9833,-3.9677,-3.959,-3.9484,-3.9272,0.0,0.0,0.0,0.0,0.0,0.0,0.0,0.0,0.0,0.0,0.0,0.0,0.0,0.0,-3.8153,-3.8447,-3.939,-3.9854,-3.9839,-4.0066,-4.0207,-4.0207,-4.0277,-4.0331,-4.0331,0.0,0.0,0.0,0.0,0.0,0.0,-4.0285,-4.0076,-3.961,-4.0653,-4.1028,0.0,0.0,0.0,-4.1028,0.0,0.0,-4.0447,0.0,0.0,0.0,0.0,0.0,0.0,0.0,0.0,0.0,-4.0331,-4.0524,-4.0768,-4.0455,-4.0261,-4.0207,-4.0331,0.0,0.0,0.0,0.0,0.0,0.0,0.0,0.0,0.0,0.0,0.0,0.0,0.0,0.0,0.0,0.0,0.0,0.0,0.0,0.0,0.0,0.0,0.0,0.0,0.0,0.0,0.0,0.0,0.0,-3.7361,-3.7361,-3.7361,-3.7361,-3.715,-3.7118,-3.7326,-3.7429,-3.7895,-3.859,-3.9028,-3.9418,-3.9799,-4.002,-4.007,-4.007,-4.007,-4.007,-4.007,-4.007,-4.007,-4.0037,-3.9935,-3.9798,-3.9642,-3.9537,-3.9448,-3.9272,0.0,0.0,0.0,0.0,0.0,0.0,0.0,0.0,0.0,-3.736,0.0,0.0,0.0,0.0,0.0,-3.8641,-3.9305,-3.9768,-3.9996,-3.9996,-3.9996,-3.9996,-4.0207,-4.0207,-3.9996,0.0,0.0,0.0,0.0,0.0,0.0,0.0,-3.9625,-3.9424,-3.9424,-3.9424,-3.9424,0.0,-3.9481,-3.9681,0.0,-3.9553,-3.9696,0.0,0.0,0.0,-3.9625,-3.9681,0.0,-3.9925,0.0,0.0,0.0,-4.0011,-4.0011,-4.0011,-4.0011,-3.9996,0.0,0.0,0.0,0.0,0.0,0.0,0.0,0.0,0.0,0.0,0.0,0.0,0.0,0.0,0.0,0.0,0.0,0.0,0.0,0.0,0.0,0.0,0.0,0.0,0.0,0.0,0.0,0.0,0.0,-3.7015,-3.7015,-3.7015,-3.7015,-3.7015,-3.68,-3.6723,-3.6723,-3.7118,-3.7358,-3.7417,-3.859,-3.9189,-3.9206,-3.9799,-4.007,-4.007,-4.007,-4.007,-4.007,-4.007,-4.0037,-3.9901,-3.9901,-3.9746,-3.9501,-3.9501,-3.9379,-3.9272,0.0,0.0,0.0,0.0,0.0,0.0,0.0,0.0,-3.5681,0.0,0.0,0.0,-3.6028,-3.6866,-3.7674,-3.8417,-3.9219,-3.9696,-3.9568,-3.9696,-3.9768,-3.9768,-3.9839,-3.991,-4.0011,0.0,0.0,0.0,0.0,0.0,0.0,0.0,0.0,0.0,-3.9424,-3.9424,-3.9424,-3.9424,0.0,0.0,-3.9409,-3.9424,0.0,0.0,0.0,0.0,0.0,-3.9481,-3.9481,0.0,-3.9568,-3.9568,0.0,0.0,-4.0011,-4.0011,-3.9925,-3.9839,-3.9925,0.0,0.0,0.0,0.0,0.0,0.0,0.0,0.0,0.0,0.0,0.0,0.0,0.0,0.0,0.0,0.0,0.0,0.0,0.0,0.0,0.0,0.0,0.0,0.0,0.0,0.0,0.0,0.0,-3.7015,-3.7015,-3.7015,-3.6938,-3.68,-3.6723,-3.6662,-3.6554,-3.6662,-3.6952,-3.7417,-3.8181,-3.8794,-3.9206,-3.9799,-4.007,-4.007,-4.007,-4.0037,-3.9952,-3.9952,-3.9935,-3.9901,-3.9694,-3.9554,-3.9501,-3.9379,-3.9325,-3.9272,0.0,0.0,0.0,0.0,0.0,0.0,0.0,0.0,-3.5001,0.0,0.0,0.0,-3.5504,-3.6417,-3.7285,-3.7928,-3.8727,-3.9253,-3.9394,-3.9481,-3.9553,-3.9553,-3.9696,-3.9696,-3.9783,0.0,0.0,0.0,0.0,0.0,0.0,0.0,0.0,0.0,0.0,0.0,0.0,0.0,0.0,0.0,-3.9424,0.0,0.0,-3.9424,-3.9424,0.0,0.0,0.0,-3.9424,-3.9424,-3.9424,0.0,0.0,0.0,0.0,0.0,0.0,-3.9625,-3.9711,-3.9625,-3.9553,0.0,0.0,0.0,-3.9625,-3.964,0.0,0.0,0.0,0.0,0.0,0.0,0.0,0.0,0.0,0.0,0.0,0.0,0.0,0.0,0.0,0.0,0.0,0.0,0.0,0.0,-3.7157,-3.7111,-3.6831,-3.6816,-3.6739,-3.66,-3.6616,-3.66,-3.6492,-3.6492,-3.6662,-3.7013,-3.7621,-3.8238,-3.8849,-3.947,-3.985,-4.007,-4.007,-4.0037,-3.9901,-3.9849,-3.9798,-3.9694,-3.9537,-3.9448,-3.9395,-3.9325,-3.9272,-3.9272,0.0,0.0,0.0,0.0,0.0,0.0,0.0,0.0,0.0,0.0,-3.5294,-3.5504,-3.5504,-3.6088,-3.6731,-3.736,-3.8003,-3.8676,-3.9379,-3.9424,-3.9424,-3.9424,-3.9553,-3.9553,-3.9409,0.0,0.0,0.0,0.0,0.0,0.0,0.0,0.0,0.0,0.0,0.0,0.0,0.0,0.0,-3.9424,-3.9424,-3.9424,0.0,0.0,-3.9424,-3.9424,-3.9424,-3.9424,-3.9424,-3.9424,-3.9424,0.0,0.0,0.0,0.0,0.0,-3.9424,-3.9424,-3.9424,-3.9424,-3.9394,0.0,0.0,0.0,-3.9215,-3.92,0.0,0.0,0.0,0.0,0.0,0.0,0.0,0.0,0.0,0.0,0.0,0.0,0.0,0.0,0.0,0.0,0.0,0.0,0.0,-3.743,-3.7384,-3.7123,-3.6522,-3.6492,-3.6492,-3.6492,-3.6492,-3.6492,-3.6492,-3.6492,-3.6492,-3.6492,-3.7134,-3.7679,-3.8222,-3.8903,-3.947,-4.002,-4.0087,-3.9986,-3.9849,-3.9729,-3.959,-3.9501,-3.9484,-3.9379,-3.9272,-3.9272,-3.9272,-3.9272,-3.0355,0.0,0.0,0.0,0.0,0.0,0.0,0.0,0.0,-3.4002,-3.4787,-3.5294,-3.5504,-3.6088,-3.6731,-3.736,-3.8003,-3.8676,-3.9379,-3.9424,-3.9424,-3.9424,-3.9424,-3.9424,-3.9424,-3.929,0.0,0.0,0.0,0.0,0.0,0.0,0.0,0.0,0.0,0.0,0.0,0.0,0.0,-3.9424,-3.9424,0.0,-3.9424,-3.9424,-3.9424,-3.9424,-3.9424,-3.9424,-3.9424,-3.9424,-3.9424,-3.9424,0.0,0.0,0.0,-3.9424,0.0,0.0,0.0,0.0,0.0,0.0,0.0,0.0,-3.7913,-3.7793,-3.7793,0.0,0.0,0.0,0.0,0.0,0.0,0.0,0.0,0.0,0.0,0.0,0.0,0.0,0.0,0.0,0.0,0.0,-3.6499,-3.6488,-3.6614,-3.663,-3.6507,-3.6492,-3.6492,-3.6492,-3.6492,-3.6492,-3.6492,-3.6492,-3.6492,-3.6492,-3.7134,-3.746,-3.7637,-3.8701,-3.9259,-3.9418,-3.9781,-3.9833,-3.9729,-3.959,-3.9537,-3.9501,-3.9379,-3.9325,-3.9272,-3.9272,-3.9272,-3.9272,-2.9856,0.0,0.0,0.0,0.0,0.0,0.0,0.0,0.0,-3.2975,-3.3915,-3.4903,-3.5917,-3.6215,-3.6768,-3.7838,-3.8197,-3.8676,-3.9379,-3.9424,-3.9424,-3.9424,-3.9424,-3.9424,-3.9424,-3.9424,-3.9424,0.0,0.0,0.0,0.0,0.0,0.0,0.0,0.0,0.0,0.0,0.0,-3.9424,-3.9424,-3.9424,0.0,-3.9424,-3.9424,-3.9424,-3.9424,-3.9424,-3.9424,-3.9424,-3.9424,-3.9424,0.0,0.0,-3.9424,-3.9424,0.0,-3.9424,-3.9424,0.0,0.0,0.0,-3.8482,0.0,0.0,0.0,-3.7404,-3.7404,0.0,0.0,0.0,0.0,0.0,0.0,0.0,0.0,0.0,0.0,0.0,0.0,0.0,0.0,0.0,0.0,0.0,-3.6888,-3.6618,-3.6473,-3.6352,-3.6352,-3.6429,-3.6492,-3.6492,-3.6492,-3.6492,-3.6492,-3.6492,-3.6492,-3.6492,-3.6785,-3.7134,-3.7417,-3.8026,-3.8645,-3.9206,-3.9382,-3.9556,-3.9677,-3.9537,-3.9448,-3.9379,-3.9325,-3.9272,-3.9272,-3.9272,-3.9272,-3.9218,-2.9792,0.0,0.0,0.0,0.0,0.0,0.0,0.0,0.0,-3.2268,-3.3193,-3.4381,-3.5933,-3.5938,-3.6346,-3.7721,-3.778,-3.8147,-3.906,-3.9104,-3.9177,-3.9424,-3.9424,-3.9424,-3.9424,-3.9424,-3.9424,0.0,0.0,0.0,0.0,0.0,0.0,0.0,0.0,0.0,0.0,0.0,0.0,-3.9337,0.0,-3.9337,-3.9424,-3.9424,-3.9424,-3.9424,-3.9424,-3.9424,-3.9424,-3.9424,0.0,-3.9424,-3.9424,-3.9424,0.0,0.0,0.0,0.0,0.0,0.0,0.0,0.0,0.0,-3.7044,0.0,0.0,0.0,0.0,0.0,0.0,0.0,0.0,0.0,0.0,0.0,0.0,0.0,0.0,0.0,0.0,0.0,0.0,0.0,0.0,-3.7207,-3.6808,-3.6246,-3.6006,-3.6148,-3.6289,-3.6429,-3.6414,-3.6414,-3.6492,-3.6492,-3.6492,-3.6492,-3.6492,-3.6492,-3.6785,-3.7238,-3.7358,-3.8026,-3.9028,-3.899,-3.9222,-3.9677,-3.9537,-3.9379,-3.9272,-3.9272,-3.9272,-3.9272,-3.9272,-3.9218,-3.9023,-2.9792,-2.9869,0.0,0.0,0.0,0.0,0.0,0.0,0.0,-3.2133,-3.3301,-3.4122,-3.4497,-3.4566,-3.4843,-3.5607,-3.5649,0.0,-3.7875,0.0,-3.8383,-3.9337,-3.9424,-3.9424,-3.9424,-3.9424,-3.9424,-3.9424,0.0,0.0,0.0,0.0,0.0,0.0,-3.8383,0.0,0.0,0.0,-3.8472,0.0,-3.9104,-3.9265,0.0,-3.9424,-3.9424,-3.9424,-3.9424,-3.9424,-3.9424,0.0,-3.9424,-3.9424,0.0,-3.9424,-3.9424,0.0,0.0,0.0,0.0,0.0,0.0,0.0,-3.6704,0.0,0.0,0.0,0.0,0.0,0.0,0.0,0.0,0.0,0.0,0.0,0.0,0.0,0.0,0.0,0.0,0.0,0.0,0.0,0.0,0.0,0.0,-3.5808,-3.5329,-3.535,-3.5973,-3.6037,-3.61,-3.6211,-3.6211,-3.6336,-3.6492,-3.6492,-3.6492,-3.6492,-3.6492,-3.6554,-3.6616,-3.7178,-3.7796,-3.8407,-3.8717,-3.9185,-3.9677,-3.9432,-3.9325,-3.9272,-3.9272,-3.9272,-3.9272,-3.9272,-3.8898,-3.8407,-2.9792,-2.9792,-2.9792,0.0,0.0,0.0,0.0,0.0,0.0,0.0,0.0,0.0,0.0,0.0,0.0,-3.5747,0.0,-3.6106,0.0,0.0,-3.7281,-3.7753,-3.7904,-3.7904,-3.7753,-3.7753,-3.7663,-3.7558,-3.7558,0.0,0.0,0.0,0.0,0.0,-3.7021,0.0,-3.7357,0.0,0.0,0.0,0.0,0.0,0.0,-3.887,-3.9031,-3.9031,-3.9031,-3.9031,-3.9031,0.0,-3.9104,0.0,0.0,0.0,0.0,0.0,0.0,0.0,0.0,0.0,0.0,0.0,0.0,0.0,-3.4994,0.0,-3.4868,0.0,0.0,0.0,0.0,0.0,0.0,0.0,0.0,0.0,0.0,0.0,0.0,0.0,0.0,0.0,0.0,0.0,0.0,0.0,0.0,-3.4876,-3.5139,-3.5703,-3.5831,-3.5479,-3.5879,-3.6085,-3.6226,-3.6226,-3.6226,-3.6226,-3.6289,-3.6289,-3.6226,-3.6569,-3.6966,-3.7472,-3.7546,-3.8124,-3.8974,-3.8423,-3.8423,-3.8645,-3.8311,-3.8423,-3.8717,-3.8606,-3.8181,-3.7515,-2.9792,-2.9792,-2.9792,0.0,0.0,0.0,0.0,0.0,0.0,0.0,0.0,0.0,-3.458,-3.4576,0.0,0.0,-3.5346,-3.5507,0.0,0.0,-3.616,0.0,0.0,0.0,-3.6476,-3.6476,-3.6383,-3.6198,0.0,0.0,0.0,0.0,0.0,0.0,0.0,-3.5828,-3.6001,0.0,0.0,-3.7035,-3.6383,-3.6462,-3.7035,-3.7814,-3.8219,-3.8472,-3.8472,-3.862,-3.8782,-3.8782,-3.887,0.0,-3.887,0.0,0.0,0.0,0.0,0.0,-3.8782,0.0,0.0,0.0,0.0,0.0,0.0,0.0,0.0,0.0,0.0,0.0,0.0,0.0,0.0,-3.3528,0.0,0.0,0.0,0.0,0.0,0.0,0.0,0.0,0.0,0.0,0.0,0.0,-3.4274,0.0,-3.4758,-3.5219,-3.535,-3.5154,-3.5623,-3.5973,-3.5973,-3.5973,-3.5973,-3.5973,-3.6085,-3.6085,-3.5973,-3.6085,-3.643,-3.689,-3.6784,-3.731,-3.8222,-3.7663,-3.7663,-3.7994,-3.7531,-3.7472,-3.7706,-3.7822,-3.7413,-3.6707,-2.9792,-2.9792,-2.9792,0.0,0.0,0.0,0.0,0.0,0.0,0.0,0.0,0.0,0.0,0.0,0.0,0.0,0.0,-3.3641,-3.4664,0.0,-3.521,0.0,0.0,-3.6198,0.0,-3.6198,-3.6198,-3.6198,0.0,0.0,0.0,0.0,0.0,0.0,0.0,-3.5292,-3.6132,-3.5129,-3.521,-3.5935,-3.5935,-3.5775,-3.5695,0.0,-3.6774,-3.751,-3.751,0.0,0.0,-3.8782,-3.8782,0.0,0.0,0.0,0.0,0.0,0.0,0.0,0.0,0.0,0.0,-3.5711,0.0,0.0,0.0,0.0,-3.2362,0.0,0.0,0.0,0.0,0.0,-3.1969,-3.1314,-3.1779,0.0,0.0,0.0,0.0,0.0,0.0,0.0,0.0,0.0,0.0,0.0,-3.2434,0.0,-3.5067,-3.4461,-3.4581,-3.5608,-3.5688,-3.5831,-3.5973,-3.5973,-3.5973,-3.5973,-3.5973,-3.5973,-3.5973,-3.5973,-3.6321,-3.689,-3.6784,-3.7071,-3.7589,-3.7488,-3.7429,-3.7429,-3.7175,-3.6784,-3.6321,-3.689,-3.6723,-3.6196,0.0,-2.9792,-2.9792,0.0,0.0,0.0,0.0,-3.1976,0.0,0.0,0.0,0.0,0.0,-3.3081,-3.3081,0.0,0.0,-3.324,-3.3641,-3.3797,0.0,0.0,0.0,-3.4485,0.0,0.0,0.0,0.0,0.0,0.0,0.0,0.0,0.0,0.0,0.0,-3.3566,0.0,0.0,0.0,0.0,0.0,-3.4524,-3.4108,0.0,0.0,-3.6253,-3.6253,-3.6411,0.0,-3.6646,-3.6802,-3.688,-3.6724,-3.6632,-3.6774,-3.7372,-3.7462,0.0,0.0,0.0,-3.5378,-3.4122,0.0,0.0,0.0,0.0,0.0,0.0,0.0,0.0,0.0,-3.2074,-3.2019,-3.1816,-3.1612,-3.1425,0.0,0.0,0.0,0.0,0.0,0.0,0.0,0.0,0.0,-3.1842,-3.0949,-3.0949,0.0,-3.2591,-3.3056,-3.3966,-3.4451,-3.5011,-3.5683,-3.5683,-3.5683,-3.5683,-3.5782,-3.5782,-3.5683,-3.5782,-3.5894,-3.5973,-3.5925,-3.6258,-3.6784,-3.6321,-3.6383,-3.6662,-3.6054,-3.5703,-3.5574,-3.5961,-3.5721,-3.5198,-2.9792,0.0,0.0,0.0,0.0,0.0,0.0,0.0,0.0,0.0,-3.3081,0.0,-3.3345,0.0,-3.3445,0.0,-3.3658,-3.3658,-3.3658,-3.3644,0.0,-3.3617,-3.35,0.0,0.0,0.0,0.0,0.0,0.0,-3.2968,0.0,0.0,0.0,0.0,0.0,-3.2554,-3.2252,0.0,-3.3411,0.0,0.0,-3.3569,0.0,0.0,-3.491,0.0,0.0,-3.5386,-3.5615,-3.5615,-3.5695,-3.5775,-3.5615,-3.5615,-3.5695,-3.6267,-3.6194,-3.5852,-3.5711,-3.5016,0.0,0.0,-3.2152,0.0,-3.1709,0.0,0.0,0.0,0.0,0.0,0.0,0.0,-3.1228,-3.0916,-3.0659,-3.0275,0.0,-2.882,0.0,0.0,0.0,0.0,0.0,0.0,-2.9521,-3.0351,-2.987,-2.9939,0.0,0.0,-3.174,-3.2364,-3.3253,-3.3994,-3.4566,-3.5094,-3.5359,-3.5424,-3.5524,-3.5604,-3.5504,-3.5604,-3.5604,-3.5504,-3.5504,-3.5668,-3.5943,-3.5539,-3.5589,-3.58,-3.5264,-3.5016,-3.5016,-3.5234,-3.4986,-3.4563,0.0,0.0,0.0,0.0,-3.1537,0.0,0.0,0.0,-3.3081,0.0,-3.3106,-3.3319,-3.3847,-3.3922,-3.4148,-3.4675,-3.4726,-3.4726,-3.4726,-3.4211,0.0,0.0,-3.337,-3.3081,-3.3081,0.0,0.0,0.0,0.0,0.0,0.0,0.0,0.0,0.0,-3.1951,0.0,-3.2215,-3.2817,-3.3081,-3.3081,-3.3081,-3.3081,-3.3081,-3.3081,0.0,-3.4314,-3.4314,-3.4855,-3.5453,-3.5453,-3.5453,-3.5453,-3.5453,-3.4924,-3.4468,-3.5278,-3.4553,-3.3631,-3.4429,-3.3824,-3.2745,-3.1974,0.0,0.0,0.0,0.0,-2.9921,0.0,0.0,0.0,0.0,0.0,0.0,-2.8698,-2.8725,-2.8387,-2.7083,0.0,0.0,0.0,0.0,0.0,0.0,-2.8021,-2.8312,-2.9073,-2.9047,-2.9442,0.0,0.0,0.0,-3.0957,-3.2132,-3.282,-3.2944,-3.442,-3.5184,-3.5213,-3.5359,-3.5504,-3.5504,-3.5504,-3.5504,-3.5504,-3.5504,-3.5359,-3.5213,-3.5213,-3.5082,-3.4868,-3.475,-3.4698,-3.4698,-3.4698,-3.4563,-3.4414,-3.0331,-3.116,-3.18,0.0,-3.2026,-3.2353,0.0,0.0,0.0,0.0,-3.3432,-3.3746,-3.3884,-3.4261,-3.4562,-3.4713,-3.4726,0.0,0.0,0.0,0.0,-3.3897,-3.337,-3.3081,-3.3081,-3.3081,-3.3081,-3.3081,0.0,0.0,-3.2215,0.0,0.0,0.0,0.0,0.0,-3.1662,-3.2654,-3.3081,-3.3081,-3.3081,-3.3081,0.0,0.0,-3.324,-3.3398,-3.3398,-3.3569,-3.3713,-3.3713,-3.3713,-3.3713,-3.3713,-3.3556,-3.3479,-3.3917,-3.3763,-3.338,-3.2841,-3.2378,-3.1909,-3.0612,-3.0176,-3.0062,0.0,0.0,0.0,0.0,0.0,0.0,0.0,0.0,0.0,-2.8786,-2.7879,-2.7026,-2.6276,0.0,0.0,0.0,0.0,0.0,0.0,-2.6611,-2.6751,-2.6961,-2.6949,0.0,0.0,0.0,0.0,-3.0813,-3.1176,-3.2105,-3.3674,-3.4124,-3.4528,-3.5001,-3.5148,-3.5294,-3.5294,-3.5439,-3.5439,-3.5294,-3.5294,-3.5148,-3.5001,-3.5001,-3.4935,-3.4868,-3.475,-3.4631,-3.4481,-3.4481,-3.4414,-3.4414,-3.0748,0.0,0.0,-3.2554,0.0,0.0,-3.3031,0.0,0.0,-3.3432,-3.3922,0.0,-3.4587,-3.4901,-3.5177,-3.5416,-3.5441,0.0,-3.5441,0.0,0.0,-3.4274,-3.3734,-3.3319,-3.3081,-3.3081,0.0,-3.3081,0.0,0.0,-3.1851,0.0,0.0,0.0,0.0,-3.1474,0.0,-3.2604,-3.3081,-3.3081,-3.3081,0.0,0.0,-3.3081,-3.3081,-3.3081,-3.3081,-3.3081,-3.3081,-3.3081,-3.3081,-3.3081,-3.3081,-3.2905,-3.2714,-3.2874,-3.2603,-3.2089,-3.1525,-3.1164,-3.0753,-2.9829,-2.9611,-2.9611,-2.9534,-2.9365,-2.9275,0.0,0.0,0.0,0.0,0.0,0.0,-2.7978,-2.6906,0.0,0.0,0.0,0.0,0.0,0.0,0.0,0.0,0.0,-2.6062,0.0,0.0,0.0,0.0,0.0,0.0,0.0,-2.9463,-3.0457,-3.204,-3.2926,-3.3733,-3.4376,-3.4868,-3.5082,-3.5082,-3.5213,-3.5148,-3.5082,-3.5082,-3.4949,-3.4817,-3.4817,-3.4735,-3.4668,-3.4616,-3.4481,-3.4414,-3.4414,-3.4414,-3.4414,0.0,0.0,0.0,0.0,0.0,0.0,0.0,-3.3395,0.0,-3.3809,0.0,-3.4848,-3.5399,-3.5512,-3.575,-3.632,0.0,-3.637,-3.637,-3.5762,-3.5211,-3.466,-3.4109,-3.3558,-3.3007,-3.2995,-3.2995,0.0,-3.3081,-3.2528,-3.1499,0.0,0.0,0.0,0.0,0.0,0.0,-3.2629,-3.3081,0.0,-3.3081,-3.3081,-3.3081,-3.3081,-3.3081,-3.3081,-3.3081,-3.3081,-3.3081,-3.3081,-3.3081,-3.3068,-3.2993,-3.2616,-3.219,-3.2039,-3.1254,-3.0515,-3.044,-3.0077,-2.9624,-2.9431,-2.9341,-2.9353,-2.9131,-2.9052,-2.9052,-2.8803,-2.8882,0.0,0.0,0.0,0.0,0.0,0.0,0.0,0.0,0.0,0.0,0.0,0.0,0.0,0.0,0.0,0.0,0.0,0.0,0.0,0.0,0.0,0.0,0.0,-2.7708,0.0,-2.9494,0.0,-3.2763,-3.3558,-3.4325,-3.478,-3.4868,-3.4868,-3.4868,-3.4868,-3.4868,-3.4817,-3.4631,-3.4631,-3.4563,-3.4414,-3.4414,-3.4414,-3.4414,-3.4346,-3.4346,-3.4346,0.0,0.0,0.0,0.0,0.0,-3.2475,-3.2475,-3.2561,-3.2783,-3.3227,-3.3757,-3.4403,-3.5133,-3.5499,-3.5796,-3.6345,-3.6193,0.0,0.0,0.0,0.0,-3.4126,-3.3572,-3.303,-3.2487,-3.2562,-3.2636,0.0,-3.281,-3.2559,-3.2051,0.0,0.0,0.0,0.0,0.0,-3.2114,-3.2792,0.0,-3.3081,-3.3081,-3.3081,-3.3081,-3.3081,-3.3081,-3.3081,-3.3081,-3.3081,-3.3081,-3.3081,-3.3081,-3.2993,-3.2516,-3.229,-3.1955,-3.0973,-3.0505,-3.0176,-2.9559,-2.9283,-2.9209,-2.9131,-2.9131,-2.9131,-2.9131,-2.8961,-2.8882,-2.8803,-2.8736,-2.8524,-2.8154,0.0,0.0,0.0,0.0,0.0,0.0,0.0,0.0,0.0,0.0,0.0,0.0,0.0,0.0,0.0,0.0,0.0,0.0,0.0,0.0,0.0,0.0,0.0,0.0,0.0,0.0,-3.2652,-3.3529,-3.4222,-3.4765,-3.4868,-3.4802,-3.4765,-3.4765,-3.4631,-3.4481,-3.4481,-3.4414,-3.4414,-3.4414,-3.4414,-3.4346,-3.4059,-3.3908,-3.3908,0.0,0.0,0.0,0.0,0.0,0.0,0.0,-3.2369,0.0,-3.3543,-3.433,-3.4944,-3.5404,-3.5556,-3.5704,-3.5991,-3.5908,-3.5812,-3.5812,-3.5565,-3.4965,-3.4047,-3.3752,0.0,-3.2412,-3.24,-3.2475,-3.2562,-3.2636,-3.2523,-3.2047,0.0,0.0,0.0,0.0,-3.1148,0.0,0.0,0.0,-3.2736,-3.2736,-3.2736,-3.2736,-3.2736,-3.2736,-3.2698,-3.2413,-3.2313,-3.2313,-3.2544,-3.2544,-3.2372,-3.181,-3.1365,-3.0959,-3.0357,-2.9918,-2.9621,-2.9204,-2.9131,-2.9052,-2.8961,-2.8961,-2.8882,-2.8816,-2.8736,-2.8657,-2.8657,-2.8578,-2.8258,-2.7517,-2.6795,0.0,0.0,0.0,0.0,0.0,0.0,0.0,0.0,0.0,0.0,0.0,0.0,0.0,0.0,0.0,0.0,0.0,0.0,0.0,0.0,0.0,0.0,0.0,0.0,0.0,-3.2477,-3.2858,-3.3561,-3.4563,-3.4616,-3.4616,-3.4549,-3.4549,-3.4481,-3.4414,-3.4414,-3.4264,-3.4059,-3.4059,-3.3991,-3.3839,-3.3632,-3.3563,-3.3563,0.0,-3.2125,0.0,0.0,-3.2038,0.0,0.0,-3.2412,-3.2998,-3.3778,-3.4658,-3.5294,-3.5512,-3.5416,-3.5524,-3.562,-3.5524,-3.5512,-3.5512,-3.5512,-3.5034,-3.3876,-3.3827,-3.3313,-3.2237,-3.2213,-3.23,0.0,-3.2463,-3.229,0.0,-3.1365,0.0,0.0,0.0,0.0,0.0,0.0,-3.2154,-3.2044,-3.2044,-3.2044,-3.2044,-3.2044,-3.2044,-3.1982,-3.1564,-3.1404,-3.1477,-3.1664,-3.1701,-3.1546,-3.1013,-3.0474,-2.9954,-2.9831,-2.9395,-2.9052,-2.8973,-2.8973,-2.8895,-2.8803,-2.8724,-2.8724,-2.851,-2.851,-2.851,-2.851,-2.833,-2.7885,-2.6935,-2.631,0.0,0.0,0.0,0.0,0.0,0.0,0.0,0.0,0.0,0.0,0.0,0.0,0.0,0.0,0.0,0.0,0.0,0.0,0.0,0.0,0.0,0.0,-2.7723,0.0,-2.9322,0.0,-3.217,-3.3011,-3.4211,-3.4356,-3.4414,-3.4414,-3.4414,-3.4414,-3.4414,-3.4346,-3.4059,-3.377,-3.3701,-3.3548,-3.3269,-3.3199,-3.3129,-3.2974,0.0,0.0,0.0,0.0,0.0,0.0,0.0,-3.2875,-3.3236,-3.3377,-3.3859,-3.439,-3.5174,-3.503,-3.503,-3.5524,-3.5428,-3.5223,-3.5223,-3.5223,-3.4653,-3.3425,-3.3377,-3.2871,-3.1773,-3.1749,-3.1849,0.0,0.0,-3.1675,-3.0885,-3.0873,0.0,0.0,0.0,0.0,0.0,-3.1404,-3.1368,-3.0971,-3.0971,-3.0971,-3.0971,-3.0971,-3.0971,-3.0971,-3.0922,-3.0897,-3.0823,-3.0367,-3.0515,-3.0811,-3.0294,-3.0016,-2.9868,-2.9114,-2.884,-2.8803,-2.8578,-2.859,-2.859,-2.851,-2.851,-2.851,-2.851,-2.851,-2.851,-2.851,-2.7753,-2.6899,-2.6286,-2.5745,-2.536,0.0,0.0,0.0,0.0,0.0,0.0,0.0,0.0,0.0,0.0,0.0,0.0,0.0,0.0,0.0,0.0,0.0,0.0,0.0,0.0,-2.5968,-2.6107,-2.7201,0.0,-2.9535,-3.1204,-3.2594,-3.3572,-3.4153,-3.4414,-3.4414,-3.4414,-3.4414,-3.4346,-3.3991,-3.3839,-3.377,-3.3479,-3.3339,-3.3269,-3.2917,-3.239,-3.1869,0.0,0.0,0.0,0.0,0.0,0.0,0.0,-3.2947,-3.3392,-3.3705,-3.4186,-3.4595,-3.4908,-3.4823,-3.4932,-3.5126,-3.503,-3.4932,-3.4932,-3.4932,-3.4462,-3.3332,-3.3284,-3.2779,-3.1685,-3.1661,-3.1749,0.0,0.0,-3.1807,-3.1553,0.0,0.0,0.0,0.0,-3.0416,-3.0135,-3.0518,-3.0627,-3.0408,-3.0408,-3.0408,-3.0408,-3.0408,-3.0408,-3.0372,-3.0044,-2.9934,-2.9849,-2.9258,-2.9577,-2.9988,-2.9462,-2.9224,-2.904,-2.8718,-2.8657,-2.8578,-2.851,-2.851,-2.851,-2.851,-2.851,-2.851,-2.851,-2.851,-2.8426,-2.8102,-2.7176,-2.6358,-2.6142,-2.5469,-2.5052,0.0,0.0,0.0,0.0,0.0,0.0,0.0,0.0,-2.4622,0.0,0.0,0.0,0.0,0.0,0.0,0.0,0.0,0.0,-2.5382,0.0,-2.5804,-2.6321,-2.6402,-2.7475,-2.952,-3.0044,-3.1359,-3.3192,-3.3665,-3.3917,-3.4059,-3.3839,-3.3534,-3.3241,-3.3409,-3.3115,-3.2605,-3.2832,-3.2547,-3.2028,-3.1882,-3.1442,-3.0908,-3.1104,0.0,-3.0913,0.0,-3.1282,-3.1621,-3.2623,-3.3056,-3.3525,-3.4186,-3.4595,-3.4823,-3.4823,-3.4823,-3.4823,-3.4823,-3.4823,-3.4823,-3.4823,-3.4679,-3.421,-3.3332,-3.314,0.0,-3.1685,-3.1661,-3.1661,-3.1661,-3.1849,0.0,0.0,0.0,0.0,0.0,-3.0179,-3.0046,-2.9549,-2.9772,-2.9761,-2.9629,-2.9629,-2.9629,-2.9629,-2.9629,-2.9629,-2.9581,-2.9208,-2.9063,-2.9015,-2.8643,-2.8831,-2.9221,-2.8846,-2.8578,-2.851,-2.851,-2.851,-2.851,-2.851,-2.851,-2.851,-2.851,-2.851,-2.851,-2.851,-2.839,-2.8077,-2.7392,-2.6635,-2.6057,-2.5756,-2.5241,-2.4861,0.0,0.0,0.0,0.0,0.0,0.0,0.0,-2.42,-2.42,-2.42,0.0,0.0,0.0,0.0,0.0,0.0,0.0,0.0,0.0,0.0,0.0,0.0,0.0,-2.6784,-2.8772,-2.8893,-3.0065,-3.2075,-3.2862,-3.326,-3.3409,-3.3339,-3.296,-3.2434,-3.2747,-3.2318,-3.1576,-3.1882,-3.1589,-3.0934,-3.0934,-3.0545,-3.0024,-3.026,-2.9418,-2.905,-3.0068,-3.026,-3.0891,-3.3023,-3.3284,-3.3657,-3.4679,-3.4823,-3.4823,-3.4823,-3.4823,-3.4823,-3.4823,-3.4823,-3.4823,-3.4823,-3.4342,-3.3825,0.0,0.0,-3.225,-3.1673,-3.1661,-3.1661,-3.1661,0.0,0.0,-3.0098,0.0,-2.9593,-3.0074,-3.0086,-2.9797,-2.9304,-2.9304,-2.9003,-2.8522,-2.8522,-2.8522,-2.8522,-2.8522,-2.8522,-2.8522,-2.8522,-2.8522,-2.8522,-2.851,-2.851,-2.8522,-2.851,-2.851,-2.851,-2.851,-2.851,-2.851,-2.851,-2.851,-2.851,-2.851,-2.851,-2.851,-2.851,-2.8114,-2.7428,-2.6334,-2.6105,-2.5804,-2.4967,-2.4801,-2.4646,-2.4273,0.0,0.0,0.0,0.0,0.0,0.0,-2.42,-2.42,-2.42,0.0,0.0,0.0,0.0,0.0,0.0,0.0,0.0,-2.5312,-2.5312,0.0,-2.5312,-2.5873,-2.6346,-2.6637,-2.7841,-2.8897,-2.9771,-3.1588,-3.242,-3.2434,-3.3044,-3.296,-3.2362,-3.2015,-3.1489,-3.0895,-3.0456,-3.0317,-3.0317,-3.0317,-2.9947,-2.9341,-2.905,-2.8958,-2.8773,-2.9143,-2.9143,-2.9746,-3.1484,-3.2078,-3.2735,-3.4102,-3.4607,-3.4823,-3.4823,-3.4823,-3.4823,0.0,-3.4823,-3.4679,0.0,-3.4138,-3.3657,-3.2791,-3.2587,-3.2238,-3.1673,-3.1661,-3.1661,-3.1661,0.0,0.0,0.0,-3.0999,-3.0615,-3.0086,-3.0086,-2.9593,-2.8763,-2.8763,-2.8667,-2.851,-2.851,-2.851,-2.851,-2.851,-2.851,-2.851,-2.851,-2.851,-2.851,-2.851,-2.851,-2.851,-2.851,-2.851,-2.851,-2.851,-2.851,-2.851,-2.851,-2.851,-2.851,-2.851,-2.8246,-2.7969,-2.7969,-2.7272,-2.644,-2.5811,-2.5406,-2.505,-2.4525,-2.42,-2.4043,-2.42,0.0,0.0,0.0,0.0,0.0,0.0,-2.3372,-2.3372,0.0,-2.3604,0.0,0.0,0.0,0.0,0.0,0.0,0.0,0.0,-2.5312,0.0,-2.5312,-2.5523,-2.5861,-2.6346,-2.6896,-2.8092,-2.9757,-3.0459,-3.103,-3.1402,-3.1267,-3.0895,-3.038,-3.0683,-3.038,-2.9935,-3.0165,-3.0024,-2.9639,-2.9406,-2.8882,-2.8339,-2.833,-2.7851,-2.7568,-2.8226,-2.8028,-2.8376,-3.0019,-3.0544,-3.1213,-3.2494,-3.294,-3.3235,-3.3646,-3.3646,0.0,-3.4414,-3.4354,0.0,-3.3777,-3.3573,-3.3176,-3.2527,-3.2298,-3.2022,-3.1673,0.0,0.0,-3.1661,-3.1661,-3.1661,-3.1661,-3.1456,-3.0903,-3.0074,-2.9881,-2.9316,-2.851,-2.851,-2.851,-2.851,-2.851,-2.851,-2.851,-2.851,-2.851,-2.851,-2.851,-2.851,-2.851,-2.851,-2.851,-2.851,-2.851,-2.851,-2.851,-2.851,-2.851,-2.851,-2.851,-2.851,-2.8462,-2.827,-2.7969,-2.7531,-2.6983,-2.6375,-2.568,-2.5137,-2.4783,-2.4418,-2.4043,-2.3751,-2.3604,-2.3751,0.0,-2.3075,0.0,0.0,0.0,0.0,0.0,0.0,0.0,-2.3298,0.0,0.0,0.0,0.0,0.0,0.0,0.0,-2.5312,-2.5312,0.0,-2.5312,-2.5312,-2.5523,-2.5873,-2.6255,-2.7112,-2.8363,-2.8954,-2.9532,-3.0059,-2.9997,-2.9745,-2.9419,-2.9793,-2.9651,-2.9118,-2.9341,-2.9184,-2.8803,-2.8395,-2.7926,-2.7534,-2.7882,-2.6476,0.0,0.0,-2.6819,0.0,-2.8721,-2.9009,-2.9288,-3.0035,-3.0219,-3.063,-3.1517,-3.159,-3.2132,-3.3589,0.0,0.0,0.0,-3.2779,-3.2478,-3.2442,-3.1949,0.0,-3.1661,-3.1661,-3.1661,-3.1661,-3.1661,-3.1661,-3.1661,-3.112,-3.0591,-3.0062,-2.9532,-2.9003,-2.851,-2.851,-2.851,-2.851,-2.851,-2.851,-2.851,-2.851,-2.851,-2.851,-2.851,-2.851,-2.851,-2.851,-2.851,-2.8431,-2.8431,-2.8431,-2.8431,-2.851,-2.851,-2.8498,-2.8383,-2.845,-2.833,-2.7711,-2.7555,-2.7102,-2.5706,-2.5409,-2.5195,-2.4365,-2.4127,-2.4043,-2.3604,-2.353,-2.3446,-2.3075,-2.3001,-2.3001,-2.3001,0.0,0.0,0.0,0.0,0.0,0.0,-2.3224,-2.3001,0.0,0.0,0.0,0.0,0.0,0.0,-2.5241,-2.5312,-2.5312,-2.5312,-2.5312,-2.5312,-2.5312,-2.5805,-2.6057,-2.6117,-2.7201,-2.7953,-2.8549,-2.9062,-2.9303,-2.9291,-2.9279,-2.8924,-2.8431,-2.8042,-2.7881,-2.78,-2.7348,-2.7174,-2.7092,0.0,0.0,-2.5128,-2.5703,-2.5509,-2.5723,-2.7153,-2.7548,-2.799,-2.8967,-2.9397,-2.9808,-3.0003,-2.9676,-2.9704,-3.0219,-3.2137,-3.3116,-3.2719,-3.2575,-3.231,-3.1877,-3.1733,-3.1661,-3.1661,-3.1661,-3.1661,-3.1661,-3.1661,-3.1661,-3.1661,-3.112,-3.0591,-3.0062,-2.9532,-2.9003,-2.851,-2.851,-2.851,-2.851,-2.851,-2.851,-2.851,-2.851,-2.851,-2.851,-2.851,-2.851,-2.851,-2.851,-2.8283,-2.8042,-2.8042,-2.7777,-2.7603,-2.8259,-2.851,-2.8335,-2.7613,-2.7663,-2.7621,-2.6546,-2.5972,-2.5443,-2.4657,-2.4519,-2.4326,-2.3847,-2.3751,-2.3604,-2.3224,-2.315,-2.3075,-2.3001,-2.3001,-2.3001,-2.3001,0.0,0.0,0.0,-2.3075,-2.3001,-2.315,-2.3075,-2.315,0.0,0.0,0.0,0.0,0.0,-2.4622,-2.4921,-2.5182,-2.5312,-2.5312,-2.5312,-2.5312,-2.5312,-2.5432,-2.5709,-2.6105,-2.6372,-2.6809,-2.733,-2.748,-2.7709,-2.8053,-2.7807,-2.781,-2.7962,-2.7522,-2.736,-2.7278,-2.6857,-2.6693,-2.661,-2.5411,-2.5314,-2.5411,-2.58,-2.5401,-2.5401,-2.6167,-2.6064,-2.6212,-2.6875,-2.7185,-2.7621,-2.8001,-2.7783,-2.7925,-2.8496,-3.0079,-3.1182,-3.1463,-3.1451,-3.1513,-3.1673,-3.1661,-3.1661,-3.1661,-3.1661,-3.1661,-3.1661,-3.1661,-3.1661,-3.1649,-3.0879,-3.0362,-3.0062,-2.928,-2.8775,-2.851,-2.851,-2.851,-2.851,-2.851,-2.851,-2.851,-2.851,-2.851,-2.851,-2.851,-2.851,-2.851,-2.851,-2.8191,-2.7893,-2.7893,-2.7463,-2.6933,-2.7425,-2.7596,-2.7446,-2.6927,-2.6839,-2.6611,-2.5639,-2.5056,-2.4533,-2.4039,-2.3897,-2.3824,-2.3372,-2.3298,-2.3224,-2.3075,-2.3001,-2.3001,-2.3001,-2.3001,-2.3001,-2.3001,-2.3001,0.0,-2.3001,-2.3001,-2.3001,-2.3001,-2.3001,-2.3075,-2.3298,0.0,0.0,-2.3666,-2.3824,-2.4189,-2.479,-2.4992,-2.5182,-2.5312,-2.5312,-2.5312,-2.5312,-2.5312,-2.5456,-2.5733,-2.5733,-2.6033,-2.655,-2.6339,-2.6562,-2.7038,-2.6652,-2.6659,-2.6951,-2.6668,-2.6587,-2.654,-2.6284,-2.6218,-2.6207,-2.5596,-2.5499,-2.5596,-2.6071,-2.5586,-2.5197,-2.5499,-2.4922,-2.4538,-2.4735,-2.4833,-2.5118,-2.5954,-2.6051,-2.6416,-2.7358,-2.7558,-2.8308,-2.9795,-2.9886,-3.026,-3.1092,-3.1104,-3.1193,-3.1193,-3.1383,-3.1472,-3.1472,-3.1661,-3.1625,-3.1529,-3.0543,-3.005,-2.9929,-2.8943,-2.851,-2.851,-2.851,-2.851,-2.851,-2.851,-2.851,-2.851,-2.851,-2.851,-2.851,-2.8431,-2.8431,-2.8431,-2.8351,-2.803,-2.7708,-2.7626,-2.6967,-2.6291,-2.6211,-2.6143,-2.6074,-2.6153,-2.5776,-2.5283,-2.486,-2.4436,-2.3897,-2.3604,-2.3519,-2.3446,-2.3075,-2.3001,-2.3001,-2.3001,-2.3001,-2.3001,-2.3001,-2.3001,-2.3001,-2.3001,0.0,-2.3001,-2.3001,-2.3001,-2.3001,-2.3001,-2.3001,-2.3001,-2.3001,-2.3001,0.0,0.0,-2.3298,-2.3824,-2.4574,-2.4646,-2.4849,-2.5241,-2.5241,-2.5241,-2.5312,-2.5312,-2.5312,-2.5312,-2.5312,-2.5481,-2.5913,-2.5559,-2.5632,-2.6112,-2.5731,-2.5624,-2.5661,-2.5599,-2.5596,-2.5583,-2.5766,-2.5786,-2.5797,-2.4538,-2.444,-2.4538,-2.4726,-2.4538,-2.444,-2.4627,-2.444,-2.4251,-2.435,-2.435,-2.435,-2.4529,-2.4529,-2.4627,-2.5001,-2.5099,-2.5945,-2.8111,-2.8297,-2.8297,-2.8484,-2.8473,-2.8577,-2.8784,-2.9886,-3.0441,-3.0441,-3.1282,-3.1432,-3.0987,-3.0374,-2.9845,-2.94,-2.8787,-2.851,-2.851,-2.851,-2.851,-2.851,-2.851,-2.851,-2.851,-2.851,-2.851,-2.8431,-2.8122,-2.7962,-2.7962,-2.7522,-2.7103,-2.6625,-2.6278,-2.5775,-2.5341,-2.4944,-2.4525,-2.426,-2.4644,-2.4122,-2.3508,-2.3727,-2.3512,-2.315,-2.3075,-2.3075,-2.3075,-2.3001,-2.3001,-2.3001,-2.3001,-2.3001,-2.3001,-2.3001,-2.3001,-2.3001,0.0,0.0,-2.3001,-2.3001,-2.3001,-2.3001,-2.3001,-2.3001,-2.3001,-2.3001,-2.3001,-2.3001,-2.3001,-2.3075,-2.3298,-2.3751,-2.4127,-2.449,-2.4861,-2.4861,-2.5052,-2.5312,-2.5312,-2.5312,-2.5312,-2.5312,-2.5159,-2.4979,-2.4907,-2.5043,-2.5136,-2.4683,-2.4779,-2.5161,-2.4869,-2.4664,-2.473,-2.519,-2.5284,-2.5349,-2.4341,-2.4538,-2.4815,-2.4913,-2.4815,-2.4815,-2.4913,-2.4538,-2.4152,-2.4152,-2.4152,-2.4152,-2.4152,-2.4529,-2.4815,-2.4913,-2.5304,-2.5868,-2.6416,-2.6894,-2.7358,-2.7923,-2.7913,-2.7923,-2.8121,-2.8669,-2.8947,-2.8947,-2.9229,-2.9161,-2.8924,-2.8166,-2.7691,-2.7454,-2.6945,-2.6905,-2.7267,-2.7267,-2.7267,-2.7267,-2.7684,-2.7603,-2.7267,-2.7684,-2.7765,-2.7765,-2.7615,-2.7534,-2.7522,-2.7267,-2.6758,-2.608,-2.5856,-2.4941,-2.3939,-2.4059,-2.3919,-2.3667,-2.3632,-2.3315,-2.3075,-2.3224,-2.315,-2.3001,-2.3001,-2.3001,-2.3001,-2.3001,-2.3001,-2.3001,-2.3001,-2.3001,-2.3001,-2.3001,-2.3001,0.0,0.0,-2.3001,-2.3001,-2.3001,-2.3001,-2.3001,-2.3001,-2.3001,-2.3001,-2.3001,-2.3001,-2.3001,-2.3001,-2.3001,-2.3075,-2.3298,-2.3897,-2.4273,-2.4502,-2.4502,-2.4562,-2.4683,-2.4683,-2.4683,-2.4683,-2.4683,-2.4622,-2.449,-2.4273,-2.418,-2.4237,-2.3791,-2.3774,-2.4006,-2.4051,-2.4082,-2.4137,-2.4628,-2.4803,-2.4836,-2.4637,-2.4913,-2.5294,-2.5294,-2.5197,-2.5001,-2.5001,-2.4529,-2.4152,-2.4152,-2.4152,-2.4152,-2.4152,-2.4726,-2.5001,-2.5001,-2.5586,-2.5684,-2.5109,-2.5761,-2.6426,-2.6979,-2.7074,-2.7074,-2.7074,-2.7358,-2.7589,-2.767,-2.7565,-2.7547,-2.741,-2.677,-2.6281,-2.6162,-2.5804,-2.5902,-2.6434,-2.6434,-2.6434,-2.6445,-2.7021,-2.6857,-2.6517,-2.7021,-2.7185,-2.7185,-2.7103,-2.6928,-2.6823,-2.6721,-2.6172,-2.5411,-2.5349,-2.4211,-2.3062,-2.3427,-2.3406,-2.3253,-2.3025,-2.3001,-2.3001,-2.3001,-2.2927,-2.2777,-2.2777,-2.2692,-2.2617,-2.2777,-2.2777,-2.2852,-2.3001,-2.3001,-2.3001,-2.3001,0.0,0.0,0.0,-2.3001,-2.3001,-2.3001,-2.3001,-2.3001,-2.3001,-2.3001,-2.3001,-2.3001,-2.3001,-2.3001,-2.3001,-2.3001,-2.3001,-2.3001,-2.3593,-2.397,-2.4043,-2.4043,-2.4116,-2.42,-2.42,-2.42,-2.42,-2.42,-2.4116,-2.4043,-2.3751,-2.353,-2.3446,-2.315,-2.3001,-2.3045,-2.3416,-2.3558,-2.3624,-2.4126,-2.4312,-2.4334,-2.5392,-2.5294,-2.5294,-2.5294,-2.4726,-2.4251,-2.4251,-2.4251,-2.4152,-2.4152,-2.4152,-2.4152,-2.4152,-2.4251,-2.4251,-2.4251,-2.435,-2.4341,-2.4251,-2.5011,-2.5099,-2.4538,-2.4627,-2.4716,-2.4716,-2.5954,-2.6699,-2.6938,-2.7789,-2.812,-2.795,-2.787,-2.7595,-2.7067,-2.7033,-2.7092,-2.7103,-2.7103,-2.7103,-2.7103,-2.7185,-2.7185,-2.7103,-2.7185,-2.7185,-2.7185,-2.6693,-2.6174,-2.5597,-2.5442,-2.4848,-2.4154,-2.3948,-2.3787,-2.3558,-2.3187,-2.2682,-2.2294,-2.2863,-2.3001,-2.3001,-2.3001,-2.2553,-2.2187,-2.2187,-2.1711,-2.1471,-2.2025,-2.2187,-2.2327,-2.2927,-2.3001,-2.3001,-2.3001,0.0,0.0,-2.3001,-2.3001,-2.3001,-2.3001,-2.3001,-2.3001,-2.3001,-2.3001,-2.3001,-2.3001,-2.3001,-2.3001,-2.3001,-2.3001,-2.3001,-2.3001,-2.3075,-2.3298,-2.3666,-2.3666,-2.3824,-2.42,-2.42,-2.42,-2.42,-2.42,-2.397,-2.3666,-2.3593,-2.3372,-2.3075,-2.3001,-2.3001,-2.3001,-2.3045,-2.3056,-2.311,-2.3602,-2.3787,-2.3853,-2.5577,-2.5294,-2.5197,-2.4726,-2.4341,-2.4152,-2.4152,-2.4152,-2.4152,-2.4152,-2.4152,-2.4152,-2.4152,-2.4627,-2.4913,-2.4913,-2.5304,-2.5401,-2.4913,-2.5099,-2.5197,-2.4913,-2.4913,-2.4897,-2.4553,-2.5484,-2.5728,-2.5093,-2.5179,-2.4946,-2.4424,-2.424,-2.4018,-2.378,-2.378,-2.4296,-2.5062,-2.4648,-2.5009,-2.5768,-2.5768,-2.5768,-2.5779,-2.6207,-2.6385,-2.6385,-2.6218,-2.5771,-2.5311,-2.5229,-2.4347,-2.3303,-2.319,-2.2418,-2.1464,-2.1292,-2.1395,-2.1558,-2.1852,-2.1852,-2.1852,-2.1852,-2.17,-2.1558,-2.1558,-2.1634,-2.1787,-2.2025,-2.2402,-2.2703,-2.2927,-2.3001,-2.3001,-2.3001,0.0,-2.3001,-2.3001,-2.3001,-2.3001,-2.3001,-2.3001,-2.3001,-2.3001,-2.3001,-2.3001,-2.3001,-2.3001,-2.3001,-2.3001,-2.3001,-2.3001,-2.3001,-2.3001,-2.3075,-2.3224,-2.3224,-2.3298,-2.3457,-2.3457,-2.3457,-2.3457,-2.3457,-2.3372,-2.3224,-2.3224,-2.315,-2.3001,-2.3001,-2.3001,-2.3001,-2.3001,-2.3001,-2.3023,-2.3209,-2.3199,-2.308,-2.6254,-2.6061,-2.5868,-2.5392,-2.5109,-2.4824,-2.4529,-2.4538,-2.444,-2.4251,-2.4152,-2.4152,-2.4152,-2.4515,-2.4714,-2.4714,-2.5073,-2.5102,-2.4621,-2.4524,-2.4581,-2.4704,-2.4591,-2.4392,-2.4032,-2.4581,-2.4452,-2.3842,-2.3563,-2.3162,-2.2749,-2.2732,-2.2687,-2.2687,-2.295,-2.3551,-2.4413,-2.4003,-2.4348,-2.52,-2.52,-2.52,-2.5295,-2.5728,-2.5895,-2.5884,-2.5471,-2.5024,-2.4538,-2.4239,-2.3297,-2.2183,-2.2283,-2.1474,-2.0547,-2.0712,-2.0857,-2.0934,-2.1165,-2.0934,-2.0769,-2.1328,-2.1471,-2.1395,-2.1242,-2.1328,-2.1558,-2.1787,-2.2166,-2.2542,-2.2927,-2.3001,-2.3001,-2.3001,-2.3001,-2.3001,-2.3001,-2.3001,-2.3001,-2.3001,-2.3001,-2.3001,-2.3001,-2.3001,-2.3001,-2.3001,-2.3001,-2.3001,-2.3001,-2.3001,-2.3001,-2.3001,-2.3001,-2.3001,-2.3001,-2.3001,-2.3001,-2.3001,-2.3001,-2.3001,-2.3001,-2.3001,-2.3001,-2.3001,-2.3001,-2.3001,-2.3001,-2.3001,-2.2927,-2.2927,-2.2927,-2.2852,-2.2777,-2.2777,-2.2703,-2.2628,-2.7788,-2.7589,-2.7589,-2.7589,-2.702,-2.6264,-2.5392,-2.5285,-2.5001,-2.4341,-2.4242,-2.4242,-2.4242,-2.3776,-2.3538,-2.3538,-2.318,-2.296,-2.2857,-2.2857,-2.303,-2.3519,-2.3162,-2.2951,-2.2857,-2.2951,-2.3112,-2.3409,-2.3409,-2.3545,-2.38,-2.4509,-2.4861,-2.4861,-2.5559,-2.5895,-2.5906,-2.5895,-2.5895,-2.5895,-2.5895,-2.5895,-2.5895,-2.5895,-2.5895,-2.5746,-2.4585,-2.3732,-2.3089,-2.2211,-2.1421,-2.0854,-2.1063,-2.1165,-2.1318,-2.1873,-2.1175,-2.0323,-2.1011,-2.0235,-1.9766,-2.1634,-2.2101,-2.1949,-2.1318,-2.0702,-2.0391,-2.1088,-2.1242,-2.1548,-2.2767,-2.3001,-2.3001,-2.3001,-2.3001,-2.3001,-2.3001,-2.3001,-2.3001,-2.3001,-2.3001,-2.3001,-2.3001,-2.3001,-2.3001,-2.3001,-2.3001,-2.3001,-2.3001,-2.3001,-2.3001,-2.3001,-2.3001,-2.3001,-2.3001,-2.3001,-2.3001,-2.3001,-2.3001,-2.3001,-2.3001,-2.3001,-2.3001,-2.3001,-2.3001,-2.3001,-2.3001,-2.3001,-2.2852,-2.2703,-2.2703,-2.2553,-2.2402,-2.2402,-2.2402,-2.2402,-2.7714,-2.7589,-2.74,-2.6924,-2.6648,-2.6456,-2.6167,-2.543,-2.4766,-2.4583,-2.4231,-2.4042,-2.4042,-2.4397,-2.459,-2.459,-2.4018,-2.3495,-2.2951,-2.2676,-2.2566,-2.2685,-2.3317,-2.3549,-2.3256,-2.3774,-2.366,-2.2986,-2.2986,-2.2742,-2.2334,-2.2511,-2.2687,-2.2696,-2.2862,-2.3222,-2.3657,-2.3212,-2.3551,-2.4413,-2.3907,-2.3993,-2.4413,-2.4413,-2.4217,-2.3928,-2.3617,-2.3002,-2.2271,-2.2009,-2.1224,-2.032,-1.996,-1.9844,-1.9923,-2.0079,-1.9844,-1.9687,-2.0313,-2.0547,-2.0547,-2.0235,-2.0469,-2.0712,-2.0547,-2.1011,-2.1558,-2.1787,-2.2166,-2.2542,-2.2927,-2.3001,-2.3001,-2.3001,-2.3001,-2.3001,-2.3001,-2.3001,-2.2927,-2.2777,-2.2927,-2.2927,-2.2777,-2.2927,-2.2852,-2.2402,-2.2014,-2.208,-2.2927,-2.2628,-2.2553,-2.3001,-2.3001,-2.3001,-2.3001,-2.3001,-2.3001,-2.3001,-2.3001,-2.3001,-2.3001,-2.3001,-2.3001,-2.3001,-2.3001,-2.2927,-2.2777,-2.2777,-2.2703,-2.2478,-2.2478,-2.209,-2.1451,-2.1451,-2.1385,-2.1308,-2.7462,-2.7515,-2.7331,-2.6868,-2.6775,-2.6682,-2.6402,-2.5795,-2.5075,-2.4513,-2.4198,-2.3849,-2.3588,-2.3798,-2.3958,-2.3958,-2.3458,-2.2915,-2.2474,-2.2509,-2.2541,-2.2541,-2.349,-2.3609,-2.273,-2.315,-2.3034,-2.2353,-2.2353,-2.2176,-2.1741,-2.2008,-2.2176,-2.2176,-2.2432,-2.2775,-2.3135,-2.2687,-2.3018,-2.379,-2.3387,-2.3464,-2.378,-2.3609,-2.3378,-2.3106,-2.2506,-2.1957,-2.1491,-2.0986,-2.0368,-1.9766,-1.9381,-1.9301,-1.9381,-1.9923,-1.9687,-1.946,-2.0391,-2.0547,-2.0313,-1.9766,-2.0313,-2.0867,-2.0624,-2.1165,-2.1711,-2.1711,-2.2166,-2.2628,-2.2852,-2.2852,-2.2777,-2.2777,-2.2777,-2.2777,-2.2777,-2.2852,-2.2777,-2.2402,-2.2553,-2.2467,-2.2166,-2.2241,-2.2166,-2.2035,-2.1939,-2.2166,-2.2703,-2.2478,-2.2478,-2.2777,-2.2777,-2.2777,-2.2777,-2.2777,-2.2852,-2.3001,-2.3001,-2.2927,-2.2852,-2.2852,-2.2852,-2.2777,-2.2777,-2.2703,-2.2553,-2.2553,-2.2478,-2.2252,-2.2252,-2.1939,-2.1308,-2.0991,-2.076,-2.0605,-2.7304,-2.7315,-2.7315,-2.7315,-2.7315,-2.7039,-2.6415,-2.6204,-2.5622,-2.4346,-2.4132,-2.3836,-2.3112,-2.2769,-2.2628,-2.2628,-2.2203,-2.1909,-2.1909,-2.2441,-2.2803,-2.2882,-2.3377,-2.3115,-2.183,-2.182,-2.182,-2.183,-2.183,-2.1731,-2.1731,-2.2362,-2.2706,-2.2706,-2.3377,-2.3627,-2.3627,-2.3627,-2.3627,-2.3627,-2.3627,-2.3597,-2.3527,-2.3128,-2.2938,-2.2758,-2.1393,-2.0922,-2.0745,-1.9739,-1.9301,-1.9301,-1.9301,-1.9301,-1.9529,-2.0624,-2.0235,-1.9608,-2.0769,-2.0313,-1.9618,-2.0245,-2.1252,-2.1873,-2.1395,-2.1318,-2.1318,-2.1318,-2.1634,-2.2025,-2.2553,-2.2478,-2.2241,-2.2241,-2.2241,-2.2166,-2.2241,-2.2467,-2.2402,-2.1883,-2.2025,-2.1873,-2.1318,-2.1165,-2.1242,-2.1721,-2.2327,-2.2617,-2.2402,-2.2553,-2.2553,-2.2402,-2.2402,-2.2402,-2.2402,-2.2402,-2.2553,-2.2927,-2.2927,-2.2852,-2.2703,-2.2703,-2.2553,-2.2402,-2.2402,-2.2327,-2.2252,-2.2252,-2.2101,-2.1863,-2.1863,-2.1711,-2.1328,-2.0537,-2.0304,-2.0138,-2.7239,-2.7315,-2.7315,-2.7315,-2.7315,-2.7227,-2.705,-2.6285,-2.5622,-2.5259,-2.4939,-2.4635,-2.4461,-2.4888,-2.5093,-2.5093,-2.4034,-2.3367,-2.3367,-2.296,-2.3047,-2.3551,-2.3222,-2.2882,-2.2539,-2.3125,-2.3115,-2.253,-2.253,-2.2264,-2.1741,-2.182,-2.1909,-2.1909,-2.2078,-2.2167,-2.2167,-2.2167,-2.2167,-2.2167,-2.2167,-2.1961,-2.1652,-2.1568,-2.1137,-2.0566,-2.0226,-2.0269,-2.0361,-2.0117,-1.9687,-1.9301,-1.9301,-1.9301,-1.9301,-1.9231,-1.9469,-1.9854,-2.0294,-2.0692,-2.1185,-2.1787,-2.1797,-2.1655,-2.1645,-2.1939,-2.2166,-2.2166,-2.2176,-2.2327,-2.2478,-2.1852,-2.1375,-2.1375,-2.0837,-2.0682,-2.1298,-2.1451,-2.1614,-2.2025,-2.2176,-2.2252,-2.1949,-2.0991,-2.0672,-2.1221,-2.0537,-2.0769,-2.2327,-2.1949,-2.1959,-2.2402,-2.2402,-2.2402,-2.2402,-2.2402,-2.2478,-2.2553,-2.2553,-2.2478,-2.2478,-2.2478,-2.2478,-2.2402,-2.2402,-2.1928,-2.1155,-2.1155,-2.0682,-1.9885,-1.9885,-1.9502,-1.8789,-1.863,-1.8559,-1.863,-2.6594,-2.6638,-2.6638,-2.6638,-2.6638,-2.6638,-2.6638,-2.6174,-2.5669,-2.5314,-2.5018,-2.4605,-2.4003,-2.4176,-2.4433,-2.4433,-2.3734,-2.3464,-2.379,-2.3464,-2.3551,-2.4327,-2.4262,-2.4262,-2.4262,-2.4594,-2.3983,-2.2274,-2.2274,-2.2087,-2.1741,-2.1741,-2.1741,-2.1741,-2.1741,-2.1741,-2.1741,-2.1741,-2.1909,-2.2167,-2.1599,-2.1475,-2.1579,-2.078,-2.0292,-1.9907,-1.9705,-1.9645,-1.9775,-1.9548,-1.9548,-1.9539,-1.9381,-1.9301,-1.9301,-1.9371,-1.9222,-1.9063,-1.9502,-1.9756,-2.0001,-2.0605,-2.0459,-2.0313,-2.0924,-2.1231,-2.1221,-2.0837,-2.0914,-2.1155,-2.1548,-2.1155,-2.0924,-2.1395,-2.1078,-2.0924,-2.1395,-2.1145,-2.0991,-2.1078,-2.0914,-2.076,-2.0779,-2.0779,-2.0934,-2.1098,-2.0934,-2.1011,-2.1471,-2.1318,-2.1088,-2.0914,-2.0904,-2.0904,-2.0904,-2.0904,-2.0904,-2.0914,-2.1538,-2.1538,-2.1078,-2.1078,-2.0991,-2.0904,-2.0904,-2.0595,-2.0051,-2.0051,-1.9737,-1.9335,-1.9335,-1.9027,-1.855,-1.8158,-1.7764,-1.7448,-2.5895,-2.5895,-2.5895,-2.5895,-2.5895,-2.5895,-2.5895,-2.5895,-2.5644,-2.4946,-2.4861,-2.4433,-2.3135,-2.2969,-2.2969,-2.2969,-2.2882,-2.3047,-2.38,-2.3714,-2.3973,-2.468,-2.5115,-2.538,-2.538,-2.5211,-2.4251,-2.2264,-2.2264,-2.2167,-2.2078,-2.1909,-2.1919,-2.1909,-2.1741,-2.1741,-2.1741,-2.1741,-2.205,-2.2397,-2.1506,-2.137,-2.1683,-2.043,-1.9888,-1.9778,-1.95,-1.945,-1.9381,-1.924,-1.9399,-1.9706,-1.9381,-1.9222,-1.9301,-1.9668,-1.9045,-1.8193,-1.8727,-1.8496,-1.8345,-1.8877,-1.9045,-1.9125,-1.9737,-2.0041,-2.0051,-1.9432,-1.9678,-2.0148,-2.0847,-2.0615,-2.0537,-2.1252,-2.1088,-2.1011,-2.1328,-2.0924,-2.044,-2.0216,-1.9747,-1.9441,-1.9292,-2.0401,-2.0954,-2.0644,-2.1242,-2.1231,-2.0372,-2.045,-2.0129,-1.9344,-1.9335,-1.9335,-1.9335,-1.9335,-1.9265,-1.9097,-2.0119,-2.0207,-1.952,-1.952,-1.9432,-1.9335,-1.9335,-1.9186,-1.9107,-1.9107,-1.9027,-1.8868,-1.8868,-1.8868,-1.8789,-1.8078,-1.7286,-1.673,-2.5895,-2.5895,-2.5895,-2.5895,-2.5895,-2.5895,-2.5895,-2.5895,-2.5644,-2.4946,-2.4861,-2.4594,-2.38,-2.3627,-2.3627,-2.3627,-2.3135,-2.3047,-2.38,-2.3299,-2.3222,-2.3887,-2.3484,-2.3232,-2.3232,-2.2608,-2.295,-2.4433,-2.4433,-2.4155,-2.3541,-2.296,-2.2618,-2.2627,-2.1998,-2.1741,-2.1741,-2.1741,-2.153,-2.1364,-2.1126,-2.078,-2.0163,-1.9971,-1.9705,-1.9454,-1.9951,-2.0089,-2.0157,-2.0702,-2.0235,-1.9381,-1.9301,-1.9073,-1.8692,-1.8353,-1.8425,-1.8576,-1.8238,-1.8638,-1.9186,-1.9265,-1.9747,-1.9904,-1.863,-1.9423,-2.0459,-2.0304,-2.0934,-2.1568,-2.1645,-2.045,-1.9502,-1.9659,-1.8399,-1.7925,-1.9423,-1.9571,-1.9972,-2.1405,-2.1492,-2.0857,-1.9423,-1.9502,-1.9265,-1.8479,-1.855,-1.8868,-1.9423,-1.9492,-1.9423,-1.9335,-1.9335,-1.9335,-1.9335,-1.9335,-1.8939,-1.8158,-1.831,-1.8709,-1.9344,-1.9344,-1.9344,-1.9335,-1.9335,-1.8868,-1.8158,-1.8158,-1.7764,-1.7049,-1.7049,-1.7049,-1.7049,-1.6886,-1.6812,-1.673,-2.5895,-2.5895,-2.5895,-2.5895,-2.5895,-2.5895,-2.5895,-2.5895,-2.5812,-2.5464,-2.5464,-2.52,-2.4498,-2.4413,-2.4413,-2.4413,-2.4166,-2.4262,-2.4935,-2.4337,-2.4251,-2.4935,-2.4337,-2.4003,-2.4003,-2.3212,-2.3377,-2.4327,-2.3464,-2.295,-2.2599,-2.2344,-2.2185,-2.2176,-2.183,-2.1603,-2.1383,-2.1383,-2.1414,-2.1353,-2.0708,-2.0476,-2.0448,-1.982,-1.9467,-1.9301,-1.9311,-1.939,-1.9311,-1.9134,-1.9054,-1.8895,-1.8647,-1.8416,-1.8264,-1.8095,-1.8175,-1.8167,-1.7448,-1.7917,-1.847,-1.7997,-1.8078,-1.8158,-1.7448,-1.8638,-1.958,-1.8559,-1.8718,-1.9107,-1.959,-1.9502,-1.9423,-1.9904,-1.9737,-1.9825,-2.0615,-1.9894,-1.9186,-1.8948,-1.9344,-1.9423,-1.863,-1.9018,-1.9107,-1.8789,-1.8709,-1.8709,-1.855,-1.855,-1.831,-1.7836,-1.7836,-1.7836,-1.7836,-1.7836,-1.7683,-1.7286,-1.7286,-1.7448,-1.7836,-1.7836,-1.7836,-1.7836,-1.7836,-1.7602,-1.7286,-1.7286,-1.7049,-1.673,-1.673,-1.673,-1.673,-1.673,-1.673,-1.673]},{"header":{"parameterUnit":"m.s-1","parameterCategory":1,"la1":30.6,"la2":28.766,"lo1":-90.7593,"lo2":-88.6598,"dy":0.0162,"dx":0.0183,"nx":116,"ny":114,"refTime":"2023-06-25T12:00:00:Z","depth":0,"parameterNumber":3,"parameterNumberName":"V-component_of_WINDS"},"data":[0.0,0.0,0.0,0.0,0.0,0.0,0.0,0.0,0.0,0.0,0.0,0.0,0.0,0.0,0.0,0.0,0.0,0.0,0.0,0.0,0.0,0.0,0.0,0.0,0.0,0.0,0.0,0.0,0.0,0.0,0.0,0.0,0.0,0.0,0.0,0.0,0.0,0.0,0.0,0.0,0.0,0.0,0.0,0.0,0.0,0.0,0.0,0.0,0.0,0.0,0.0,0.0,0.0,0.0,0.0,0.0,0.0,0.0,0.0,0.0,0.0,0.0,0.0,0.0,0.0,0.0,0.0,0.0,0.0,0.0,0.0,0.0,0.0,0.0,0.0,0.0,0.0,0.0,0.0,0.0,0.0,0.0,0.0,0.0,0.0,0.0,0.0,0.0,0.0,0.0,0.0,0.0,0.0,0.0,0.0,0.0,0.0,0.0,0.0,0.0,0.0,0.0,0.0,0.0,0.0,0.0,0.0,0.0,0.0,0.0,0.0,0.0,0.0,0.0,0.0,0.0,0.0,0.0,0.0,0.0,0.0,0.0,0.0,0.0,0.0,0.0,0.0,0.0,0.0,0.0,0.0,0.0,0.0,0.0,0.0,0.0,0.0,0.0,0.0,0.0,0.0,0.0,0.0,0.0,0.0,0.0,0.0,0.0,0.0,0.0,0.0,0.0,0.0,0.0,0.0,0.0,0.0,0.0,0.0,0.0,0.0,0.0,0.0,0.0,0.0,0.0,0.0,0.0,0.0,0.0,0.0,0.0,0.0,0.0,0.0,0.0,0.0,0.0,0.0,0.0,0.0,0.0,0.0,0.0,0.0,0.0,0.0,0.0,0.0,0.0,0.0,0.0,0.0,0.0,0.0,0.0,0.0,0.0,0.0,0.0,0.0,0.0,0.0,0.0,0.0,0.0,0.0,0.0,0.0,0.0,0.0,0.0,0.0,0.0,0.0,0.0,0.0,0.0,0.0,0.0,0.0,0.0,0.0,0.0,0.0,0.0,0.0,0.0,0.0,0.0,0.0,0.0,0.0,0.0,0.0,0.0,0.0,0.0,0.0,0.0,0.0,0.0,0.0,0.0,0.0,0.0,0.0,0.0,0.0,0.0,0.0,0.0,0.0,0.0,0.0,0.0,0.0,0.0,0.0,0.0,0.0,0.0,0.0,0.0,0.0,0.0,0.0,0.0,0.0,0.0,0.0,0.0,0.0,0.0,0.0,0.0,0.0,0.0,0.0,0.0,0.0,0.0,0.0,0.0,0.0,0.0,0.0,0.0,0.0,0.0,0.0,0.0,0.0,0.0,0.0,0.0,0.0,0.0,0.0,0.0,0.0,0.0,0.0,0.0,0.0,0.0,0.0,0.0,0.0,0.0,0.0,0.0,0.0,0.0,0.0,0.0,0.0,0.0,0.0,0.0,0.0,0.0,0.0,0.0,0.0,0.0,0.0,0.0,0.0,0.0,0.0,0.0,0.0,0.0,0.0,0.0,0.0,0.0,0.0,0.0,0.0,0.0,0.0,0.0,0.0,0.0,0.0,0.0,0.0,0.0,0.0,0.0,0.0,0.0,0.0,0.0,0.0,0.0,0.0,0.0,0.0,0.0,0.0,0.0,0.0,0.0,0.0,0.0,0.0,0.0,0.0,0.0,0.0,0.0,0.0,0.0,0.0,0.0,0.0,0.0,0.0,0.0,0.0,0.0,0.0,0.0,0.0,0.0,0.0,0.0,0.0,0.0,0.0,0.0,0.0,0.0,0.0,0.0,0.0,0.0,0.0,0.0,0.0,0.0,0.0,0.0,0.0,0.0,0.0,0.0,0.0,0.0,0.0,0.0,0.0,0.0,0.0,0.0,0.0,0.0,0.0,0.0,0.0,0.0,0.0,0.0,0.0,0.0,0.0,0.0,0.0,0.0,0.0,0.0,0.0,0.0,0.0,0.0,0.0,0.0,0.0,0.0,0.0,0.0,0.0,0.0,0.0,0.0,0.0,0.0,0.0,0.0,0.0,0.0,0.0,0.0,0.0,0.0,0.0,0.0,0.0,0.0,0.0,0.0,0.0,0.0,0.0,0.0,0.0,0.0,0.0,0.0,0.0,0.0,0.0,0.0,0.0,0.0,0.0,0.0,0.0,0.0,0.0,0.0,0.0,0.0,0.0,0.0,0.0,0.0,0.0,0.0,0.0,0.0,0.0,0.0,0.0,0.0,0.0,0.0,0.0,0.0,0.0,0.0,0.0,0.0,0.0,0.0,0.0,0.0,0.0,0.0,0.0,0.0,0.0,0.0,0.0,0.0,0.0,0.0,0.0,0.0,0.0,0.0,0.0,0.0,0.0,0.0,0.0,0.0,0.0,0.0,0.0,0.0,0.0,0.0,0.0,0.0,0.0,0.0,0.0,0.0,0.0,0.0,0.0,0.0,0.0,0.0,0.0,0.0,0.0,0.0,0.0,0.0,0.0,0.0,0.0,0.0,0.0,0.0,0.0,0.0,0.0,0.0,0.0,0.0,0.0,0.0,0.0,0.0,0.0,0.0,0.0,0.0,0.0,0.0,0.0,0.0,0.0,0.0,0.0,0.0,0.0,0.0,0.0,0.0,0.0,0.0,0.0,0.0,0.0,0.0,0.0,0.0,0.0,0.0,0.0,0.0,0.0,0.0,0.0,0.0,0.0,0.0,0.0,0.0,0.0,0.0,0.0,0.0,0.0,0.0,0.0,0.0,0.0,0.0,0.0,0.0,0.0,0.0,0.0,0.0,0.0,0.0,0.0,0.0,0.0,0.0,0.0,0.0,0.0,0.0,0.0,0.0,0.0,0.0,0.0,0.0,0.0,0.0,0.0,0.0,0.0,0.0,0.0,0.0,0.0,0.0,0.0,0.0,0.0,0.0,0.0,0.0,0.0,0.0,0.0,0.0,0.0,0.0,0.0,0.0,0.0,0.0,0.0,0.0,0.0,0.0,0.0,0.0,0.0,0.0,0.0,0.0,0.0,0.0,0.0,0.0,0.0,0.0,0.0,0.0,0.0,0.0,0.0,0.0,0.0,0.0,0.0,0.0,0.0,0.0,0.0,0.0,0.0,0.0,0.0,0.0,0.0,0.0,0.0,0.0,0.0,0.0,0.0,0.0,0.0,0.0,0.0,0.0,0.0,0.0,0.0,0.0,0.0,0.0,0.0,0.0,0.0,0.0,0.0,0.0,0.0,0.0,0.0,0.0,0.0,0.0,0.0,0.0,0.0,0.0,0.0,0.0,0.0,0.0,0.0,0.0,0.0,0.0,0.0,0.0,0.0,0.0,0.0,0.0,0.0,0.0,0.0,0.0,0.0,0.0,0.0,0.0,0.0,0.0,0.0,0.0,0.0,0.0,0.0,0.0,0.0,0.0,0.0,0.0,0.0,0.0,0.0,0.0,0.0,0.0,0.0,0.0,0.0,0.0,0.0,0.0,0.0,0.0,0.0,0.0,0.0,0.0,0.0,0.0,0.0,0.0,0.0,0.0,0.0,0.0,0.0,0.0,0.0,0.0,0.0,0.0,0.0,0.0,0.0,0.0,0.0,0.0,0.0,0.0,0.0,0.0,0.0,0.0,0.0,0.0,0.0,0.0,0.0,0.0,0.0,0.0,0.0,0.0,0.0,0.0,0.0,0.0,0.0,0.0,0.0,0.0,0.0,0.0,0.0,0.0,0.0,0.0,0.0,0.0,0.0,0.0,0.0,0.0,0.0,0.0,0.0,0.0,0.0,0.0,0.0,0.0,0.0,0.0,0.0,0.0,0.0,0.0,0.0,0.0,0.0,0.0,0.0,0.0,0.0,0.0,0.0,0.0,0.0,0.0,0.0,0.0,0.0,0.0,0.0,0.0,0.0,0.0,0.0,0.0,0.0,0.0,0.0,0.0,0.0,0.0,0.0,0.0,0.0,0.0,0.0,0.0,0.0,0.0,0.0,0.0,0.0,0.0,0.0,0.0,0.0,0.0,0.0,0.0,0.0,0.0,0.0,0.0,0.0,0.0,0.0,0.0,0.0,0.0,0.0,0.0,0.0,0.0,0.0,0.0,0.0,0.0,0.0,0.0,0.0,0.0,0.0,0.0,0.0,0.0,0.0,0.0,0.0,0.0,0.0,0.0,0.0,0.0,0.0,0.0,0.0,0.0,0.0,0.0,0.0,0.0,0.0,0.0,0.0,0.0,0.0,0.0,0.0,0.0,0.0,0.0,0.0,0.0,0.0,0.0,0.0,0.0,0.0,0.0,0.0,0.0,0.0,0.0,0.0,0.0,0.0,0.0,0.0,0.0,0.0,0.0,0.0,0.0,0.0,0.0,0.0,0.0,0.0,0.0,0.0,0.0,0.0,0.0,0.0,0.0,0.0,0.0,0.0,0.0,0.0,0.0,0.0,0.0,0.0,0.0,0.0,0.0,0.0,0.0,0.0,0.0,0.0,0.0,0.0,0.0,0.0,0.0,0.0,0.0,0.0,0.0,0.0,0.0,0.0,0.0,0.0,0.0,0.0,0.0,0.0,0.0,0.0,0.0,0.0,0.0,0.0,0.0,0.0,0.0,0.0,0.0,0.0,0.0,0.0,0.0,0.0,0.0,0.0,0.0,0.0,0.0,0.0,0.0,0.0,0.0,0.0,0.0,0.0,0.0,0.0,0.0,0.0,0.0,0.0,0.0,0.0,0.0,0.0,0.0,0.0,0.0,0.0,0.0,0.0,0.0,0.0,0.0,0.0,0.0,0.0,0.0,0.0,0.0,0.0,0.0,0.0,0.0,0.0,0.0,0.0,0.0,0.0,0.0,0.0,0.0,0.0,0.0,0.0,0.0,0.0,0.0,0.0,0.0,0.0,0.0,0.0,0.0,0.0,0.0,0.0,0.0,0.0,0.0,0.0,0.0,0.0,0.0,0.0,0.0,0.0,0.0,0.0,0.0,0.0,0.0,0.0,0.0,0.0,0.0,0.0,0.0,0.0,0.0,0.0,0.0,0.0,0.0,0.0,0.0,0.0,0.0,0.0,0.0,0.0,0.0,0.0,0.0,0.0,0.0,0.0,0.0,0.0,0.0,0.0,0.0,0.0,0.0,0.0,0.0,0.0,0.0,0.0,0.0,0.0,0.0,0.0,0.0,0.0,0.0,0.0,0.0,0.0,0.0,0.0,0.0,0.0,0.0,0.0,0.0,0.0,0.0,0.0,0.0,0.0,0.0,0.0,0.0,0.0,0.0,0.0,0.0,0.0,0.0,0.0,0.0,0.0,0.0,0.0,0.0,0.0,0.0,0.0,0.0,0.0,0.0,0.0,0.0,0.0,0.0,0.0,0.0,0.0,0.0,0.0,0.0,0.0,0.0,0.0,0.0,0.0,0.0,0.0,0.0,0.0,0.0,0.0,0.0,0.0,0.0,0.0,0.0,0.0,0.0,0.0,0.0,0.0,0.0,0.0,0.0,0.0,0.0,0.0,0.0,0.0,0.0,0.0,0.0,0.0,0.0,0.0,0.0,0.0,0.0,0.0,0.0,0.0,0.0,0.0,0.0,0.0,0.0,0.0,0.0,0.0,0.0,0.0,0.0,0.0,0.0,0.0,0.0,0.0,0.0,0.0,0.0,0.0,0.0,0.0,0.0,0.0,0.0,0.0,0.0,0.0,0.0,0.0,0.0,0.0,0.0,0.0,0.0,0.0,0.0,0.0,0.0,0.0,0.0,0.0,0.0,0.0,0.0,0.0,0.0,0.0,0.0,0.0,0.0,0.0,0.0,0.0,0.0,0.0,0.0,0.0,0.0,0.0,0.0,0.0,0.0,0.0,0.0,0.0,0.0,0.0,0.0,0.0,0.0,0.0,0.0,0.0,0.0,0.0,0.0,0.0,0.0,0.0,0.0,0.0,0.0,0.0,0.0,0.0,0.0,0.0,0.0,0.0,0.0,0.0,0.0,0.0,0.0,0.0,0.0,0.0,0.0,0.0,0.0,0.0,0.0,0.0,0.0,0.0,0.0,0.0,0.0,0.0,0.0,0.0,0.0,0.0,0.0,0.0,0.0,0.0,0.0,0.0,0.0,0.0,0.0,0.0,0.0,0.0,0.0,0.0,0.0,0.0,0.0,0.0,0.0,-1.7466,0.0,0.0,0.0,0.0,0.0,0.0,0.0,0.0,0.0,0.0,0.0,0.0,0.0,0.0,0.0,0.0,0.0,0.0,0.0,0.0,0.0,0.0,0.0,0.0,0.0,0.0,0.0,0.0,0.0,0.0,0.0,0.0,0.0,0.0,0.0,0.0,0.0,0.0,0.0,0.0,0.0,0.0,0.0,0.0,0.0,0.0,0.0,0.0,0.0,0.0,0.0,0.0,0.0,0.0,0.0,0.0,0.0,0.0,0.0,0.0,0.0,0.0,0.0,0.0,0.0,0.0,0.0,0.0,0.0,0.0,0.0,0.0,0.0,0.0,0.0,0.0,0.0,0.0,0.0,0.0,0.0,0.0,0.0,0.0,0.0,0.0,0.0,0.0,0.0,0.0,0.0,0.0,0.0,0.0,0.0,0.0,0.0,0.0,0.0,0.0,0.0,0.0,0.0,0.0,0.0,0.0,0.0,0.0,0.0,0.0,0.0,0.0,0.0,0.0,0.0,0.0,-1.8149,0.0,0.0,0.0,0.0,0.0,0.0,0.0,0.0,0.0,0.0,0.0,0.0,0.0,0.0,0.0,0.0,0.0,0.0,0.0,0.0,0.0,0.0,0.0,0.0,0.0,0.0,0.0,0.0,0.0,0.0,0.0,0.0,0.0,0.0,0.0,0.0,0.0,0.0,0.0,0.0,0.0,0.0,0.0,0.0,0.0,0.0,0.0,0.0,0.0,0.0,0.0,0.0,0.0,0.0,0.0,0.0,0.0,0.0,0.0,0.0,0.0,0.0,0.0,0.0,0.0,0.0,0.0,0.0,0.0,0.0,0.0,0.0,0.0,0.0,0.0,0.0,0.0,0.0,0.0,0.0,0.0,0.0,0.0,0.0,0.0,0.0,0.0,0.0,0.0,0.0,0.0,0.0,0.0,0.0,0.0,0.0,0.0,0.0,0.0,0.0,0.0,0.0,0.0,0.0,0.0,0.0,0.0,0.0,0.0,-1.7582,-1.7582,-1.7582,-1.7582,-1.7582,-1.7905,-1.8122,-1.8122,0.0,0.0,0.0,0.0,0.0,0.0,0.0,0.0,0.0,0.0,0.0,0.0,0.0,0.0,0.0,0.0,0.0,0.0,0.0,0.0,0.0,0.0,0.0,0.0,0.0,0.0,0.0,0.0,0.0,0.0,0.0,0.0,0.0,0.0,0.0,0.0,0.0,0.0,0.0,0.1513,0.0505,0.0706,0.1713,0.2413,0.0,0.0,0.0,0.0,0.0,0.0,0.0,0.0,0.0,0.0,0.0,0.0,0.0,0.0,0.0,0.0,0.0,0.0,0.0,0.0,0.0,0.0,0.0,0.0,0.0,0.0,0.0,0.0,0.0,0.0,0.0,0.0,0.0,0.0,0.0,0.0,0.0,0.0,0.0,0.0,0.0,0.0,0.0,-1.6485,-1.7108,0.0,0.0,0.0,0.0,0.0,0.0,0.0,0.0,0.0,0.0,0.0,0.0,0.0,0.0,-1.7582,-1.7582,-1.7582,-1.7582,-1.7582,-1.7582,-1.7582,-1.7582,-1.7582,-1.7582,-1.8108,0.0,-1.8429,-1.8757,0.0,0.0,0.0,0.0,0.0,0.0,0.0,0.0,0.0,0.0,0.0,0.0,0.0,0.0,0.0,0.0,0.0,0.0,0.0,0.0,0.0,0.0,0.0,0.0,0.0,0.0,0.0,0.0,0.0,0.0,0.0,0.0,0.0,0.0,0.0,0.0,0.1713,0.0908,0.0202,-0.0404,-0.0505,-0.0101,0.0101,0.0302,0.0604,0.1408,0.0,0.0,0.0,0.0,0.0,0.0,0.0,0.0,0.0,0.0,0.0,0.0,0.0,0.0,0.0,0.0,0.0,0.0,0.0,0.0,0.0,0.0,0.0,0.0,0.0,0.0,0.0,0.0,0.0,0.0,0.0,0.0,0.0,0.0,0.0,0.0,0.0,0.0,0.0,-1.5752,-1.6658,-1.6199,-1.6964,-1.7442,0.0,0.0,0.0,0.0,0.0,0.0,0.0,0.0,0.0,-1.7842,-1.8003,-1.8096,-1.8096,-1.8096,-1.8096,-1.8096,-1.8096,-1.8096,-1.8096,-1.8096,-1.8198,-1.8293,-1.8545,-1.8794,-1.8893,-1.9038,-1.9583,-2.0181,0.0,0.0,0.0,0.0,0.0,-2.5118,0.0,0.0,0.0,0.0,0.0,0.0,0.0,0.0,0.0,0.0,0.0,0.0,0.0,0.0,0.0,0.2521,0.0,0.0,0.0,0.0,0.0,0.0,0.0,0.0,0.0,0.0,0.0,0.0908,0.0908,0.0404,-0.0606,-0.0909,-0.101,-0.1111,-0.1415,-0.1211,-0.0806,-0.0706,-0.1108,0.0,0.0,0.0,0.0,0.0,0.0,0.0,0.0,0.0,0.0,0.0,0.0,0.0,0.0,0.0,0.0,0.0,0.0,0.0,0.0,0.0,0.0,0.0,0.0,0.0,0.0,0.0,0.0,0.0,0.0,0.0,0.0,0.0,0.0,0.0,0.0,0.0,0.0,-1.5403,-1.6599,-1.6062,-1.6942,-1.7582,0.0,0.0,0.0,0.0,0.0,0.0,-1.7702,-1.7989,-1.8163,-1.8163,-1.8377,-1.849,-1.849,-1.849,-1.849,-1.849,-1.849,-1.849,-1.849,-1.849,-1.8601,-1.8795,-1.9,-1.9118,-1.9313,-1.9342,-1.9776,-2.0483,-2.0783,-2.2089,0.0,-2.3989,-2.4805,-2.5742,0.0,0.0,0.0,0.0,0.0,0.0,0.0,0.0,0.0,0.0,0.0,0.0,0.0,0.0,0.1713,0.3022,0.3123,0.3324,0.0,0.0,0.0,0.0,0.0,0.0,0.0,0.0,0.0,0.0101,0.0101,0.0,0.0,-0.0303,-0.0606,-0.0808,-0.1111,-0.1919,-0.2927,-0.1917,-0.2116,-0.3022,0.0,0.0,0.0,0.0,0.0,0.0,0.0,0.0,0.0,0.0,0.0,0.0,0.0,0.0,0.0,0.0,0.0,0.0,0.0,0.0,0.0,0.0,0.0,0.0,0.0,0.0,0.0,0.0,0.0,0.0,0.0,0.0,0.0,0.0,0.0,0.0,0.0,0.0,0.0,-1.7364,-1.7582,0.0,0.0,0.0,0.0,-1.7582,-1.7856,-1.8023,-1.8023,-1.8303,-1.847,-1.847,-1.8484,-1.849,-1.849,-1.849,-1.849,-1.849,-1.849,-1.849,-1.849,-1.849,-1.849,-1.8594,-1.9119,-1.9332,-1.9393,-1.9324,-1.9376,-1.948,-2.0483,-2.1591,-2.2685,-2.3692,-2.4805,-2.5742,0.0,0.0,0.0,0.0,0.0,0.0,0.0,0.0,0.0,0.0,0.0,0.0,0.0,-0.0101,0.0706,0.1312,0.1412,0.1513,0.1817,0.0,0.0,0.0,0.0,0.0,0.0,0.0,0.101,0.0505,0.0505,0.0404,0.0202,0.0,-0.0303,-0.0606,-0.101,-0.1615,-0.2422,-0.2522,-0.3026,-0.3629,-0.2923,-0.2821,0.0,0.0,0.0,0.0,0.0,0.0,0.0,0.0,0.0,0.0,0.0,0.0,0.0,0.0,0.0,0.0,0.0,0.0,0.0,0.0,0.0,0.0,0.0,0.0,0.0,0.0,0.0,0.0,0.0,0.0,0.0,0.0,0.0,0.0,0.0,0.0,0.0,-1.6193,-1.6842,0.0,0.0,-1.7762,-1.7883,-1.7883,-1.8163,-1.833,-1.833,-1.8611,-1.8771,-1.8771,-1.8951,-1.9052,-1.9052,-1.9052,-1.9052,-1.9052,-1.9052,-1.9052,-1.9052,-1.9052,-1.9166,-1.9373,-1.9514,-1.9766,-1.9968,-1.986,-2.0308,-2.1015,-2.1922,-2.2954,-2.3943,-2.481,-2.5323,-2.5742,0.0,0.0,0.0,0.0,0.0,0.0,0.0,0.0,0.0,0.0,0.0,-0.2318,-0.1916,-0.0707,0.0202,0.0404,0.0505,0.0606,0.0909,0.0,0.0,0.0,0.0,0.0,0.0,0.1413,0.0909,0.0808,0.0808,0.0707,0.0505,0.0303,0.0,-0.0303,-0.0808,-0.1313,-0.1817,-0.2826,-0.3531,-0.4033,-0.393,-0.4029,-0.4228,0.0,0.0,0.0,0.0,0.0,0.0,0.0,0.0,0.0,0.0,0.0,0.0,0.0,0.0,0.0,0.0,0.0,0.0,0.0,0.0,0.0,0.0,0.0,0.0,0.0,0.0,0.0,0.0,0.0,0.0,0.0,0.0,0.0,0.0,0.0,-1.6086,-1.5873,-1.6636,-1.7318,-1.7616,-1.7815,-1.809,-1.819,-1.847,-1.8637,-1.8637,-1.8918,-1.9072,-1.9072,-1.9265,-1.9366,-1.9366,-1.9366,-1.9366,-1.9366,-1.9366,-1.9366,-1.9366,-1.9366,-1.9597,-1.9802,-1.9939,-2.0196,-2.0415,-2.0974,-2.1532,-2.2235,-2.2917,-2.3867,-2.4988,-2.5852,-2.6172,-2.6152,0.0,0.0,0.0,0.0,0.0,0.0,0.0,0.0,0.0,0.0,-0.4522,-0.3119,-0.1814,-0.0404,0.0404,0.0404,0.0707,0.0909,0.1212,0.1212,0.0,0.0,0.0,0.0,0.1212,0.1212,0.1111,0.0808,0.0808,0.0808,0.0808,0.0505,0.0303,0.0,-0.0505,-0.0909,-0.1313,-0.2625,-0.343,-0.4033,-0.4839,-0.5338,-0.5534,0.0,0.0,0.0,0.0,0.0,0.0,0.0,0.0,0.0,0.0,0.0,0.0,0.0,0.0,0.0,0.0,0.0,0.0,0.0,0.0,0.0,0.0,0.0,0.0,0.0,0.0,0.0,0.0,0.0,0.0,0.0,0.0,0.0,-1.4685,-1.5013,-1.5441,-1.6518,-1.6961,-1.7297,-1.757,-1.784,-1.8087,-1.8484,-1.8771,-1.8938,-1.8938,-1.9212,-1.9366,-1.9366,-1.9366,-1.9366,-1.9366,-1.9366,-1.9366,-1.9366,-1.9366,-1.9366,-1.9366,-1.9366,-1.9597,-1.9815,-2.0155,-2.0493,-2.0831,-2.241,-2.2974,-2.3127,-2.3493,-2.4377,-2.5552,-2.6602,-2.7012,-2.6953,0.0,0.0,0.0,0.0,0.0,0.0,0.0,0.0,0.0,0.0,-0.6119,-0.4225,-0.2922,-0.1613,-0.0404,0.0606,0.0909,0.1313,0.1718,0.0,0.0,0.0,0.0,0.0,0.1516,0.1918,0.1918,0.1718,0.1718,0.1617,0.1415,0.0909,0.0505,0.0303,-0.0303,-0.0707,-0.101,-0.1917,-0.2724,-0.3531,-0.4535,-0.5236,-0.5534,0.0,0.0,0.0,0.0,0.0,0.0,0.0,0.0,0.0,0.0,0.0,0.0,0.0,0.0,0.0,0.0,0.0,0.0,0.0,0.0,0.0,0.0,0.0,0.0,0.0,0.0,0.0,0.0,0.0,0.0,0.0,0.0,-1.2852,-1.4266,-1.5131,-1.5885,-1.6318,-1.6706,-1.6971,-1.7162,-1.7648,-1.8149,-1.844,-1.8715,-1.9001,-1.9245,-1.9325,-1.9366,-1.9366,-1.9366,-1.9366,-1.9366,-1.9366,-1.9366,-1.9366,-1.9366,-1.9366,-1.9366,-1.9366,-1.9597,-1.9815,-2.0155,-2.0493,-2.0831,-2.241,-2.3528,-2.4352,-2.4977,-2.5439,-2.5835,-2.6708,-2.7012,-2.6992,0.0,0.0,0.0,0.0,0.0,0.0,0.0,0.0,0.0,0.0,-0.6722,-0.4929,-0.4126,-0.2618,-0.121,0.0,0.0606,0.1212,0.1921,0.0,0.0,0.0,0.0,0.2121,0.1919,0.222,0.2321,0.2121,0.2121,0.202,0.1718,0.0908,0.0303,-0.0101,-0.111,-0.1815,-0.2218,-0.3021,-0.3726,-0.4431,-0.5334,-0.5634,-0.5636,-0.5636,-0.5937,-0.6337,-0.6237,-0.6337,-0.6437,-0.6437,0.0,0.0,0.0,0.0,0.0,0.0,0.0,0.0,0.0,0.0,0.0,0.0,0.0,0.0,0.0,0.0,0.0,0.0,0.0,0.0,0.0,0.0,0.0,0.0,-1.2768,-1.3181,-1.3398,-1.4046,-1.4911,-1.5998,-1.6012,-1.632,-1.7114,-1.7635,-1.8052,-1.8391,-1.8667,-1.8997,-1.912,-1.9366,-1.9366,-1.9366,-1.9366,-1.9366,-1.9366,-1.9366,-1.9366,-1.9366,-1.9366,-1.9366,-1.9366,-1.9366,-1.9591,0.0,-2.027,-2.05,-2.1074,-2.2966,-2.4069,0.0,0.0,0.0,0.0,0.0,-2.7441,-2.7285,0.0,0.0,0.0,0.0,0.0,0.0,0.0,0.0,0.0,0.0,0.0,-0.5527,-0.5427,-0.372,-0.2215,-0.1108,-0.0202,0.0807,0.0,0.0,0.0,0.2422,0.2422,0.2422,0.2422,0.2422,0.2522,0.2521,0.2522,0.2322,0.2021,0.0706,-0.0202,-0.0907,-0.2417,-0.3323,-0.3924,-0.4728,-0.5429,-0.6029,-0.6528,-0.6331,-0.5737,-0.5737,-0.5937,-0.6337,-0.6042,-0.6139,-0.6437,-0.6437,0.0,0.0,0.0,0.0,0.0,0.0,0.0,0.0,0.0,0.0,0.0,0.0,0.0,0.0,0.0,0.0,0.0,0.0,0.0,0.0,0.0,0.0,0.0,0.0,-1.329,-1.3511,-1.2743,-1.2417,-1.3073,-1.5493,-1.539,-1.5754,-1.7042,-1.766,-1.8039,-1.8286,-1.8648,-1.8881,-1.8874,0.0,0.0,0.0,0.0,-1.9366,-1.9366,-1.9366,-1.9366,-1.9366,-1.9366,-1.9366,-1.9366,-1.9366,-1.9707,-2.027,-2.027,-2.0737,-2.1539,-2.3735,-2.4829,-2.5168,-2.6291,-2.7403,-2.8291,-2.8291,-2.8057,0.0,0.0,0.0,0.0,0.0,0.0,0.0,0.0,0.0,0.0,-1.175,-0.9587,-0.771,-0.6608,-0.502,-0.3624,-0.2517,-0.1108,0.0403,0.0,0.0,0.2422,0.2422,0.2623,0.2623,0.2422,0.2826,0.3127,0.3327,0.2925,0.2622,0.2317,0.1211,0.0,-0.1109,-0.1713,-0.2418,-0.3425,-0.3728,-0.463,-0.5734,-0.6032,-0.6232,-0.6237,-0.6237,-0.6137,-0.6042,-0.6042,-0.6139,-0.6437,-0.6437,-0.693,-0.7723,-0.7922,0.0,0.0,0.0,0.0,0.0,0.0,0.0,0.0,0.0,0.0,0.0,0.0,0.0,0.0,0.0,0.0,0.0,0.0,0.0,0.0,-1.3665,-1.2417,-1.1982,-1.3619,-1.22,-1.1928,-1.4532,-1.5777,-1.6606,-1.7104,-1.7371,-1.7781,-1.8077,-1.8083,-1.8428,-1.8874,-1.8997,0.0,-1.9366,-1.9366,-1.9366,-1.9366,-1.9366,-1.9366,-1.9366,0.0,0.0,-1.9366,-1.9366,-1.9707,-2.027,-2.027,-2.1174,-2.2757,-2.4181,-2.5836,-2.7618,-2.7843,-2.8067,-2.8291,-2.8291,-2.8242,-2.8174,0.0,0.0,0.0,0.0,0.0,0.0,0.0,0.0,0.0,0.0,-1.0872,-0.9099,-0.7902,-0.6719,-0.5327,-0.3522,-0.1812,0.0,0.0,0.1109,0.121,0.121,0.1613,0.1714,0.1613,0.2017,0.2218,0.2418,0.2218,0.2017,0.1613,0.0504,-0.0605,-0.1613,-0.2621,-0.3425,-0.4227,-0.4933,-0.5834,-0.6836,-0.7132,-0.7232,-0.7335,-0.6936,-0.7036,-0.7335,-0.6639,-0.7135,-0.7925,-0.7033,-0.7726,-0.8814,-0.9106,-0.9604,-1.0096,0.0,0.0,0.0,0.0,0.0,0.0,0.0,0.0,0.0,0.0,0.0,0.0,0.0,0.0,-1.1102,0.0,0.0,-1.286,-1.2452,-1.2464,-1.2417,-1.2417,-1.2617,-1.3162,-1.4388,-1.5289,-1.622,-1.7062,-1.7328,-1.7602,-1.7726,-1.7966,-1.8083,-1.8428,-1.8765,-1.9063,-1.9331,-1.9462,-1.9653,-1.98,-1.98,-1.98,-1.98,-1.98,-1.9726,-1.9586,-1.9586,-1.9733,-2.004,-2.0838,-2.1737,-2.2862,-2.4855,-2.6626,-2.8291,-2.8291,-2.8291,-2.8291,-2.8291,-2.8291,-2.8291,0.0,0.0,0.0,0.0,0.0,0.0,0.0,0.0,0.0,0.0,0.0,-1.048,-0.9592,-0.8414,-0.6725,0.0,0.0,0.0,0.0,-0.0302,-0.0201,-0.0201,0.0302,0.0605,0.0605,0.1008,0.121,0.131,0.1513,0.1312,0.0808,-0.0303,-0.121,-0.2118,-0.363,-0.4636,-0.5131,-0.6239,-0.7141,-0.7839,-0.8237,-0.8432,-0.8531,-0.7836,-0.8031,-0.8425,-0.7434,-0.8028,-0.9114,-0.7932,-0.8421,-0.9706,-1.0096,-1.0391,-1.069,-1.1585,-1.1487,0.0,0.0,0.0,0.0,0.0,0.0,0.0,0.0,0.0,-0.9817,-1.0199,-1.0514,-1.0838,-1.1472,-1.2402,-1.2585,-1.1048,-1.229,-1.2965,-1.1219,-1.2817,-1.4309,-1.4689,-1.5131,-1.5835,-1.7026,-1.7358,-1.7485,-1.7485,-1.7726,-1.7966,-1.7972,-1.8538,-1.9011,-1.9292,-1.9674,-1.994,-2.0227,-2.0234,-2.0234,-2.0234,-2.0234,-2.0107,-1.9887,-1.9887,-1.9956,-2.0123,-2.1873,-2.2741,-2.3183,-2.5744,-2.7413,-2.8291,-2.8291,-2.8291,-2.8291,-2.8291,-2.8291,-2.8291,0.0,0.0,0.0,0.0,0.0,0.0,0.0,0.0,0.0,0.0,0.0,0.0,0.0,0.0,0.0,0.0,0.0,0.0,-0.1513,-0.1208,-0.1107,-0.1107,-0.0302,0.0101,0.0101,0.0806,0.1412,0.1916,0.1714,0.131,0.0806,-0.0302,-0.131,-0.2422,-0.353,-0.4236,-0.4537,-0.5641,-0.6539,-0.7338,-0.7839,-0.8439,-0.9133,-0.9034,-0.8432,-0.773,-0.812,-0.8226,-0.8233,-0.8528,-0.9019,-0.9608,-0.9706,-1.0301,-1.1096,-1.1292,0.0,-1.0511,-1.0413,-1.0019,-0.9628,-0.9628,-0.943,-0.9525,0.0,0.0,-1.137,-1.137,-1.197,-1.2242,-1.1744,-1.095,-1.0841,-1.1861,-1.1522,-1.1328,-1.2087,-1.2597,-1.3359,-1.4799,-1.6074,-1.7032,-1.7412,-1.7467,-1.7485,-1.7485,-1.7485,-1.7726,-1.7966,-1.8311,-1.8777,-1.9292,-1.9674,-1.994,-2.0227,-2.0234,-2.0234,-2.0234,-2.0234,-2.0214,-2.0187,-2.0187,-2.038,-2.0772,-2.3303,-2.4394,-2.4616,-2.707,-2.8184,-2.8291,-2.8291,-2.8291,-2.8291,-2.8291,-2.8291,-2.8291,0.0,0.0,0.0,0.0,0.0,0.0,0.0,0.0,0.0,0.0,0.0,0.0,0.0,0.0,0.0,0.0,0.0,0.0,-0.3525,-0.3224,-0.3022,-0.3022,-0.2016,-0.1412,-0.1412,-0.0504,0.0101,0.0101,0.0303,0.0202,-0.0404,-0.0808,-0.1514,-0.2422,-0.3327,-0.4033,-0.4539,-0.5842,-0.6742,-0.7238,-0.7739,-0.8439,-0.9137,-0.9031,-0.8928,-0.8726,-0.8124,-0.8421,0.0,0.0,-0.8916,-0.9903,-1.0006,-1.0404,-1.0708,-1.0708,-1.0609,0.0,-1.0998,-1.0216,-0.943,0.0,-0.9521,-0.9221,-1.01,-1.0489,-1.0779,-1.1268,-1.2047,-1.2467,-1.1579,-1.1769,-1.1817,0.0,-1.1344,-1.1873,-1.2309,-1.3367,-1.4526,-1.5879,-1.6827,-1.7364,-1.7473,-1.7485,-1.7485,-1.7485,-1.7485,-1.7602,-1.7726,-1.796,-1.8437,-1.9067,-1.9487,-2.0079,-2.0488,-2.0655,-2.0742,-2.0742,-2.0742,-2.0655,-2.0494,-2.0494,-2.1293,-2.2883,-2.5008,-2.6271,-2.6834,-2.7843,-2.8291,-2.8291,-2.8291,-2.8291,-2.8291,-2.8291,-2.8291,-2.8291,0.0,0.0,0.0,0.0,0.0,0.0,0.0,0.0,0.0,0.0,0.0,0.0,0.0,0.0,0.0,0.0,0.0,0.0,0.0,-0.5035,-0.4738,-0.4738,-0.3428,-0.2723,-0.2623,-0.1414,-0.0909,-0.1111,-0.0606,-0.0707,-0.1313,-0.1515,-0.2019,-0.2723,-0.3728,-0.4332,-0.4736,-0.6437,-0.7238,-0.7335,-0.8035,-0.8634,-0.9137,-0.9031,-0.9229,-0.9426,-0.8223,-0.8513,0.0,0.0,-0.8414,-0.9304,-0.9916,-1.0015,-1.0015,-1.0019,-1.0015,-1.0113,-1.0801,-1.0019,0.0,-1.0216,-0.9715,-0.9312,-1.0194,-1.0587,-1.0877,-1.117,-1.2047,-1.2262,-1.1049,-1.175,-1.2019,-1.0414,-1.1434,-1.2526,-1.2852,-1.4119,-1.5327,-1.6582,-1.6813,-1.712,-1.7485,-1.7485,-1.7485,-1.7485,-1.7485,-1.7485,-1.7485,-1.7849,-1.8326,-1.8835,-1.9406,-2.0057,-2.0675,-2.0882,-2.1029,-2.1109,-2.1109,-2.0995,-2.0795,-2.1197,-2.2337,-2.4201,-2.5952,-2.7179,-2.8016,-2.8233,-2.8291,-2.8291,-2.8291,-2.8291,-2.8291,-2.8291,-2.8291,-2.8291,0.0,0.0,0.0,0.0,0.0,0.0,0.0,0.0,0.0,0.0,0.0,0.0,0.0,0.0,0.0,0.0,0.0,0.0,0.0,-0.6426,-0.5536,-0.5536,-0.423,-0.3428,-0.323,-0.1615,-0.0808,-0.0808,-0.0505,-0.0808,-0.1613,-0.2422,-0.3026,-0.3629,-0.4933,-0.5434,-0.5329,-0.7123,-0.7826,-0.763,-0.8722,-0.9225,-0.9236,-0.9236,-0.9331,-0.9525,-0.8704,0.0,0.0,0.0,-0.7713,-0.7521,-0.8829,-0.9031,0.0,-0.9133,-0.9031,-0.8924,-0.9232,-0.9031,-0.9023,-1.0113,-1.0203,-1.0194,-1.1268,-1.2145,-1.2339,-1.1365,-1.2047,-1.2114,-1.0239,-1.0018,-1.0301,-1.0486,-1.1527,-1.2852,-1.3948,-1.4579,-1.5332,-1.6588,-1.6107,-1.6172,0.0,-1.7485,-1.7485,-1.7485,-1.7485,-1.7485,-1.7485,-1.7849,-1.8326,-1.8835,-1.9199,-1.9712,-2.0675,-2.0681,-2.0828,-2.1109,-2.1109,-2.1109,-2.1082,-2.2378,-2.3187,-2.3739,-2.5838,-2.6891,-2.7308,-2.8026,-2.8291,-2.8291,-2.8291,-2.8291,-2.8291,-2.8291,-2.8291,-2.8291,0.0,0.0,0.0,0.0,0.0,0.0,0.0,0.0,0.0,0.0,0.0,0.0,0.0,0.0,0.0,0.0,0.0,0.0,0.0,-0.8209,-0.7325,-0.6933,-0.5331,-0.4031,-0.3226,-0.2017,-0.111,-0.0808,-0.111,-0.1513,-0.2118,-0.2924,-0.3828,-0.473,-0.5334,-0.6132,-0.7123,-0.8506,-0.9201,-0.9505,-1.019,-1.0498,-1.0511,-0.992,-0.9924,-0.9916,0.0,0.0,0.0,0.0,0.0,0.0,-0.8627,-0.8825,-0.8825,-0.8928,-0.8825,-0.8924,-0.9513,-0.9122,-0.8924,-1.0493,-1.0293,-1.0194,-1.195,-1.2533,-1.2635,-1.2242,-1.2436,-1.251,-1.2039,-1.1545,-1.1548,-1.2495,-1.325,-1.3727,-1.4164,-1.5248,-1.6245,-1.67,-1.6813,0.0,0.0,0.0,0.0,-1.7485,-1.7485,-1.7485,-1.7485,-1.7602,-1.7886,-1.8338,-1.8746,-1.9283,-1.9712,-2.0352,-2.0728,-2.0822,-2.1015,-2.1109,-2.1229,-2.3802,-2.4956,-2.4819,-2.75,-2.8506,-2.833,-2.8359,-2.8291,-2.8291,-2.8291,-2.8291,-2.8291,-2.8291,-2.8291,-2.8291,0.0,0.0,0.0,0.0,0.0,0.0,0.0,0.0,0.0,0.0,0.0,0.0,0.0,0.0,0.0,0.0,0.0,0.0,0.0,0.0,-0.8312,-0.7521,-0.5527,-0.3927,-0.262,-0.131,-0.0504,-0.0404,-0.0907,-0.1712,-0.272,-0.4026,-0.5325,-0.662,-0.7114,-0.8107,-0.9489,-1.0471,-1.096,-1.1258,-1.1658,-1.1765,-1.1477,-1.0605,-1.0413,0.0,0.0,0.0,0.0,0.0,0.0,0.0,-0.8329,-0.8627,-0.8627,-0.8627,-0.8627,-0.8726,-0.9706,-0.941,-0.9312,-1.1268,-1.1268,-1.117,-1.2926,-1.3318,-1.3119,-1.2829,-1.2727,-1.2731,-1.2646,-1.2108,-1.2091,-1.3551,-1.3842,-1.4083,-1.4608,-1.5754,-1.6506,-1.6488,-1.6988,-1.7367,0.0,0.0,0.0,-1.7479,-1.7485,-1.7485,-1.7485,-1.7485,-1.7719,-1.8083,-1.8481,-1.897,-1.9424,-2.0046,-2.0414,-2.0521,-2.0708,-2.0795,-2.092,-2.3559,-2.4995,-2.5225,-2.7541,-2.8718,-2.8887,-2.8467,-2.8291,-2.8291,-2.8291,-2.8291,-2.8291,-2.8291,-2.8291,-2.8291,0.0,0.0,0.0,0.0,0.0,0.0,0.0,0.0,0.0,0.0,0.0,0.0,0.0,0.0,0.0,0.0,0.0,0.0,0.0,0.0,0.0,-0.7502,-0.5318,-0.3422,-0.1713,0.0101,0.0807,0.0404,-0.0201,-0.1407,-0.3316,-0.542,-0.7512,-0.9296,-1.0075,-1.1049,-1.2022,-1.2818,-1.3011,-1.2802,-1.3113,-1.2926,-1.2242,-1.1287,0.0,0.0,0.0,0.0,0.0,0.0,0.0,-0.703,-0.8031,-0.8333,-0.8333,-0.8333,-0.8233,-0.8333,-0.9608,-0.9801,-1.0194,-1.2145,-1.2727,-1.3022,-1.41,-1.4298,-1.4004,-1.3022,-1.2727,-1.2578,0.0,0.0,-1.1931,-1.3542,-1.3511,-1.3806,-1.5263,-1.5852,-1.6226,0.0,0.0,0.0,0.0,0.0,0.0,-1.7485,0.0,-1.7485,-1.7485,-1.7485,-1.7713,-1.8305,-1.8421,-1.8783,-1.9773,-1.9793,-1.9947,-2.0234,-2.0234,-2.0234,-2.0227,-2.1886,-2.352,-2.5003,-2.6136,-2.7567,-2.8887,-2.8467,-2.8291,-2.8291,-2.8291,-2.8291,-2.8291,-2.8291,-2.8291,-2.8398,0.0,0.0,0.0,0.0,0.0,0.0,0.0,0.0,0.0,0.0,0.0,0.0,0.0,0.0,0.0,0.0,0.0,0.0,0.0,0.0,0.0,0.0,0.0,0.0,0.0,0.0,0.0,0.0,0.0,-0.2712,-0.4407,-0.6418,-0.8411,-1.0382,-1.076,-1.1731,-1.3091,-1.3861,-1.4351,-1.4465,0.0,-1.428,-1.3414,0.0,0.0,0.0,0.0,0.0,0.0,0.0,0.0,-0.8031,-0.8038,-0.8137,-0.8137,-0.8137,-0.863,-0.9312,-0.9608,-1.0194,-1.1072,-1.2339,-1.2727,-1.3022,-1.41,-1.4298,-1.4202,-1.3908,-1.3125,-1.2785,0.0,0.0,0.0,-1.4415,-1.46,0.0,-1.5372,-1.5735,0.0,-1.6138,0.0,-1.6655,-1.6655,-1.6903,0.0,0.0,-1.7367,-1.7485,-1.7485,-1.7485,-1.7602,-1.7719,-1.8188,-1.8453,-1.8764,-1.945,-1.9947,-2.0234,-2.0234,-2.0234,-2.0227,-2.1886,-2.352,-2.5003,-2.6136,-2.7567,-2.8887,-2.8467,-2.8291,-2.8291,-2.8291,-2.8291,-2.8291,-2.8291,-2.8291,-2.8398,0.0,0.0,0.0,0.0,0.0,0.0,0.0,0.0,0.0,0.0,0.0,0.0,0.0,0.0,0.0,0.0,0.0,0.0,0.0,0.0,0.0,0.0,0.0,0.0,0.0,0.0,0.0,0.0,0.0,0.0,0.0,-0.8294,-1.048,-1.2145,-1.2711,-1.3771,-1.5032,-1.5311,0.0,0.0,0.0,0.0,0.0,0.0,0.0,0.0,0.0,0.0,0.0,0.0,0.0,-0.8924,-0.8627,-0.8627,-0.8726,-0.9118,0.0,-0.9801,-1.0681,-1.1365,-1.2145,-1.3119,-1.3414,-1.3516,-1.4196,-1.4298,-1.4298,-1.4112,-1.3227,0.0,-1.3523,-1.3078,0.0,0.0,0.0,0.0,-1.5083,-1.5474,-1.5693,0.0,-1.6105,0.0,-1.6312,-1.6543,-1.6785,0.0,-1.7256,-1.7485,-1.7485,-1.7485,-1.7602,-1.7726,-1.8188,-1.8538,-1.8894,-1.9409,-1.9693,-1.9853,-1.9853,-1.9853,-1.9853,-2.1473,-2.3076,-2.453,0.0,-2.7297,-2.8633,-2.8389,-2.8291,-2.8291,-2.8291,-2.8291,-2.8291,-2.8291,-2.8291,-2.8398,0.0,0.0,0.0,0.0,0.0,0.0,0.0,0.0,0.0,0.0,0.0,0.0,0.0,0.0,0.0,0.0,0.0,0.0,0.0,0.0,0.0,0.0,0.0,0.0,0.0,0.0,0.0,0.0,0.0,0.0,0.0,0.0,0.0,0.0,0.0,0.0,0.0,0.0,0.0,0.0,0.0,0.0,0.0,0.0,0.0,0.0,0.0,0.0,0.0,0.0,-0.9801,-0.9608,-0.941,-0.9608,-0.9903,-1.0587,-1.0391,-1.0386,-1.2242,-1.2823,-1.3119,-1.41,-1.4298,-1.4298,-1.4298,-1.4298,-1.4202,-1.4022,0.0,-1.2515,-1.2542,-1.2486,-1.2506,-1.2815,0.0,-1.4352,-1.4815,-1.5117,-1.5412,-1.5542,-1.5844,-1.6081,-1.6081,-1.6307,-1.6661,-1.6903,-1.725,-1.7485,-1.7485,-1.7485,-1.7608,-1.7972,-1.8311,-1.8655,-1.9366,-1.9366,-1.9366,-1.9366,-1.9366,-1.9482,-1.9707,-2.1052,-2.25,-2.4164,0.0,0.0,-2.8291,-2.8291,-2.8291,-2.8291,-2.8291,-2.8291,-2.8291,-2.8291,-2.8291,-2.8398,0.0,0.0,0.0,0.0,0.0,0.0,0.0,0.0,0.0,0.0,0.0,0.0,0.0,0.0,0.0,0.0,0.0,0.0,0.0,0.0,0.0,0.0,0.0,0.0,0.0,0.0,0.0,0.0,0.0,0.0,0.0,0.0,0.0,0.0,0.0,0.0,0.0,0.0,0.0,0.0,0.0,0.0,0.0,0.0,0.0,0.0,0.0,0.0,-0.8924,-0.9509,-0.9608,-0.9706,-1.0293,-1.0583,-1.0587,-1.0779,-1.1463,-1.2242,-1.2635,-1.3318,-1.41,-1.4292,-1.4298,-1.4298,-1.4298,-1.4298,0.0,0.0,-1.3721,-1.3413,-1.3562,-1.3409,-1.3344,-1.3567,-1.3923,-1.4352,-1.4815,-1.4999,-1.5178,0.0,-1.5601,0.0,0.0,0.0,0.0,0.0,0.0,0.0,-1.7485,-1.7485,-1.7608,-1.7972,-1.8311,-1.8532,-1.8997,-1.9243,-1.9366,-1.9366,-1.9366,-1.9931,-2.0952,-2.1373,-2.2934,-2.5287,0.0,0.0,-2.8291,-2.8291,-2.8291,-2.8291,-2.8291,-2.8291,-2.8291,-2.8291,-2.8291,-2.8408,0.0,0.0,0.0,0.0,0.0,0.0,0.0,0.0,0.0,0.0,0.0,0.0,0.0,0.0,0.0,0.0,0.0,0.0,0.0,0.0,0.0,0.0,0.0,0.0,0.0,0.0,0.0,0.0,0.0,0.0,0.0,0.0,0.0,0.0,0.0,0.0,0.0,0.0,0.0,0.0,0.0,0.0,0.0,0.0,0.0,0.0,0.0,0.0,-0.9509,-0.9998,-1.0493,-1.089,-1.1282,-1.1473,-1.1663,-1.2058,-1.2446,-1.2829,-1.3414,-1.3908,-1.4298,-1.4298,-1.4298,-1.4298,-1.4298,0.0,0.0,0.0,-1.3925,-1.3477,-1.2795,-1.3222,0.0,-1.2883,-1.3625,-1.4352,-1.4815,-1.4885,0.0,-1.5542,-1.5601,0.0,0.0,0.0,0.0,0.0,0.0,0.0,-1.7479,-1.7485,-1.7608,-1.7972,-1.8311,-1.8532,-1.8874,-1.9243,-1.9366,-1.9366,-1.9366,-2.0046,-2.1174,-2.1949,-2.3511,-2.5626,0.0,0.0,-2.8291,-2.8291,-2.8291,-2.8291,-2.8291,-2.8291,-2.8291,-2.8291,-2.8408,-2.8514,0.0,0.0,0.0,0.0,0.0,0.0,0.0,0.0,0.0,0.0,0.0,0.0,0.0,0.0,0.0,0.0,0.0,0.0,0.0,0.0,0.0,0.0,0.0,0.0,0.0,0.0,0.0,0.0,0.0,0.0,0.0,0.0,0.0,0.0,0.0,0.0,0.0,0.0,0.0,0.0,0.0,0.0,0.0,0.0,0.0,0.0,0.0,0.0,0.0,0.0,-1.1473,-1.2078,-1.2175,-1.236,-1.2646,-1.334,-1.3238,-1.3125,-1.41,-1.4298,-1.4298,-1.4298,-1.4298,-1.4298,-1.4298,-1.4298,0.0,-1.4022,-1.3931,-1.3534,-1.2252,-1.3047,-1.3577,0.0,-1.334,-1.4352,-1.4815,-1.4885,-1.5063,0.0,-1.5601,0.0,0.0,0.0,0.0,0.0,0.0,0.0,0.0,-1.7485,-1.7608,-1.7849,-1.8194,-1.8421,-1.8765,-1.912,-1.9366,-1.9366,-1.9366,-2.0162,-2.1623,-2.2636,-2.4189,-2.6073,0.0,0.0,0.0,-2.8291,-2.8291,-2.8291,-2.8291,-2.8291,-2.8291,-2.8291,-2.8514,-2.8727,0.0,0.0,0.0,0.0,0.0,0.0,0.0,0.0,0.0,0.0,0.0,0.0,0.0,0.0,0.0,0.0,0.0,0.0,0.0,0.0,0.0,0.0,0.0,0.0,0.0,0.0,0.0,0.0,0.0,0.0,0.0,0.0,0.0,0.0,0.0,0.0,0.0,0.0,0.0,0.0,0.0,0.0,0.0,0.0,0.0,0.0,0.0,0.0,0.0,0.0,0.0,-1.2078,-1.2759,-1.305,-1.3147,-1.3443,0.0,0.0,-1.4202,-1.4298,-1.4298,-1.4298,-1.4298,-1.4298,-1.4298,0.0,-1.4298,-1.4298,-1.4118,-1.3738,-1.3443,-1.3657,-1.3788,-1.3372,-1.3879,-1.4352,-1.4815,-1.4885,-1.5063,-1.5542,0.0,0.0,0.0,0.0,0.0,0.0,0.0,0.0,0.0,-1.7485,-1.7485,-1.7485,-1.7849,-1.82,-1.8415,-1.8765,-1.912,-1.9366,-1.9366,-2.0608,-2.2869,-2.3175,-2.4735,-2.7314,0.0,0.0,0.0,-2.8291,-2.8291,-2.8291,-2.8291,-2.8291,-2.8291,-2.8291,-2.8514,-2.8727,0.0,0.0,0.0,0.0,0.0,0.0,0.0,0.0,0.0,0.0,0.0,0.0,0.0,0.0,0.0,0.0,0.0,0.0,0.0,0.0,0.0,0.0,0.0,0.0,0.0,0.0,0.0,0.0,0.0,0.0,0.0,0.0,0.0,0.0,0.0,0.0,0.0,0.0,0.0,0.0,0.0,0.0,0.0,0.0,0.0,0.0,0.0,0.0,0.0,0.0,0.0,0.0,-1.2958,-1.2958,0.0,0.0,-1.3738,-1.3931,-1.4208,-1.4298,-1.4298,-1.4298,-1.4298,-1.4298,-1.4298,0.0,-1.4298,-1.4298,-1.4202,-1.4063,-1.3831,-1.3947,-1.4026,-1.3762,-1.397,0.0,-1.4815,-1.4885,-1.5063,0.0,0.0,0.0,0.0,0.0,0.0,0.0,0.0,0.0,0.0,-1.766,-1.7485,-1.7485,-1.7843,-1.8083,-1.8421,-1.8765,-1.912,-1.9366,-1.9366,-2.0608,-2.2974,-2.3287,-2.4837,-2.7431,0.0,0.0,0.0,-2.8291,-2.8291,-2.8291,-2.8291,-2.8291,-2.8291,-2.8291,-2.8514,-2.8727,0.0,0.0,0.0,0.0,0.0,0.0,0.0,0.0,0.0,0.0,0.0,0.0,0.0,0.0,0.0,0.0,0.0,0.0,0.0,0.0,0.0,0.0,0.0,0.0,0.0,0.0,0.0,0.0,0.0,0.0,0.0,0.0,0.0,0.0,0.0,0.0,0.0,0.0,0.0,0.0,0.0,0.0,0.0,0.0,0.0,0.0,0.0,0.0,0.0,0.0,0.0,0.0,0.0,-1.2861,-1.2861,0.0,-1.3539,-1.3829,-1.4112,-1.4202,-1.4298,-1.4298,-1.4298,-1.4298,0.0,0.0,-1.4298,-1.4298,-1.4298,-1.428,-1.4063,-1.411,-1.4151,-1.3991,0.0,-1.4352,-1.4815,-1.4885,-1.5063,0.0,0.0,0.0,0.0,0.0,0.0,0.0,0.0,0.0,0.0,-1.769,-1.7521,-1.7599,-1.7966,-1.8164,-1.8421,-1.8765,-1.9229,-1.9931,-1.9931,-2.1174,-2.3544,-2.3743,-2.5075,0.0,0.0,0.0,0.0,-2.8291,-2.8291,-2.8291,-2.8291,-2.8291,-2.8291,-2.8291,-2.8514,-2.8834,0.0,0.0,0.0,0.0,0.0,0.0,0.0,0.0,0.0,0.0,0.0,0.0,0.0,0.0,0.0,0.0,0.0,0.0,0.0,0.0,0.0,0.0,0.0,0.0,0.0,0.0,0.0,0.0,0.0,0.0,0.0,0.0,0.0,0.0,0.0,0.0,0.0,0.0,0.0,0.0,0.0,0.0,0.0,0.0,0.0,0.0,0.0,0.0,0.0,0.0,0.0,0.0,0.0,-1.2958,-1.2861,-1.305,-1.3244,-1.3539,-1.3835,-1.4118,-1.4298,-1.4298,-1.4298,-1.4298,0.0,-1.4298,-1.4298,-1.4298,-1.4298,-1.4286,-1.4266,-1.4211,-1.4259,-1.4316,-1.4248,0.0,-1.4815,-1.4885,0.0,0.0,0.0,0.0,0.0,0.0,0.0,0.0,0.0,0.0,0.0,0.0,-1.7599,-1.7859,-1.8243,-1.8351,-1.8421,-1.8765,-1.9679,-2.1174,-2.1174,-2.2418,-2.4778,-2.4778,0.0,0.0,0.0,0.0,0.0,-2.8291,-2.8291,-2.8291,-2.8291,-2.8291,-2.8291,-2.8291,-2.8611,-2.9132,0.0,0.0,0.0,0.0,0.0,0.0,0.0,0.0,0.0,0.0,0.0,0.0,0.0,0.0,0.0,0.0,0.0,0.0,0.0,0.0,0.0,0.0,0.0,0.0,0.0,0.0,0.0,0.0,0.0,0.0,0.0,0.0,0.0,0.0,0.0,0.0,0.0,0.0,0.0,0.0,0.0,0.0,0.0,0.0,0.0,0.0,0.0,0.0,0.0,0.0,0.0,0.0,0.0,0.0,0.0,-1.2958,-1.305,-1.3346,-1.3738,-1.3931,-1.4118,-1.4298,-1.4298,-1.4298,-1.4298,-1.4298,-1.4298,-1.4298,-1.4449,-1.4568,-1.4524,-1.468,-1.4723,-1.4557,-1.4597,0.0,0.0,0.0,0.0,0.0,0.0,0.0,0.0,0.0,0.0,0.0,0.0,0.0,0.0,0.0,-1.7702,-1.7612,-1.7972,-1.8164,-1.8421,-1.8765,-1.9679,-2.1174,-2.1174,-2.2418,-2.4787,-2.4982,0.0,0.0,0.0,0.0,0.0,-2.7756,-2.7685,-2.7422,-2.7422,-2.7422,-2.7422,-2.7422,-2.7525,-2.7722,0.0,0.0,0.0,0.0,0.0,0.0,0.0,0.0,0.0,0.0,0.0,0.0,0.0,0.0,0.0,0.0,0.0,0.0,0.0,0.0,0.0,0.0,0.0,0.0,0.0,0.0,0.0,0.0,0.0,0.0,0.0,0.0,0.0,0.0,0.0,0.0,0.0,0.0,0.0,0.0,0.0,0.0,-1.3528,0.0,0.0,0.0,0.0,0.0,0.0,0.0,0.0,0.0,0.0,0.0,0.0,0.0,-1.2861,-1.305,-1.3443,-1.3738,-1.3931,-1.4118,-1.4208,-1.4298,-1.4298,-1.4298,-1.4328,-1.4431,-1.4594,-1.4724,-1.4981,-1.5074,-1.5054,-1.5001,-1.504,-1.5177,0.0,0.0,0.0,0.0,0.0,0.0,0.0,0.0,0.0,0.0,0.0,0.0,0.0,0.0,-1.7654,-1.7491,-1.8059,-1.8294,-1.8421,-1.9339,-2.0422,-2.1654,-2.2104,-2.3259,-2.5019,0.0,0.0,0.0,0.0,0.0,0.0,-2.7308,-2.7256,-2.7012,-2.7012,-2.7012,-2.7012,-2.7012,-2.7114,-2.7317,0.0,0.0,0.0,0.0,0.0,0.0,0.0,0.0,0.0,0.0,0.0,0.0,0.0,0.0,0.0,0.0,0.0,0.0,0.0,0.0,0.0,0.0,0.0,0.0,0.0,0.0,0.0,0.0,-1.6494,-1.6581,-1.6683,0.0,0.0,0.0,0.0,0.0,0.0,0.0,0.0,0.0,0.0,0.0,0.0,0.0,0.0,0.0,0.0,0.0,0.0,0.0,0.0,0.0,0.0,0.0,0.0,0.0,0.0,0.0,0.0,-1.3443,-1.3835,-1.3931,-1.4112,-1.4304,-1.4322,-1.4424,0.0,-1.4684,-1.4856,-1.5114,-1.5512,-1.5505,-1.5497,-1.5648,-1.5699,0.0,0.0,0.0,0.0,0.0,0.0,0.0,0.0,0.0,0.0,0.0,0.0,0.0,0.0,0.0,0.0,-1.7683,-1.8494,-1.8743,-1.8506,-2.0315,-2.1616,-2.2504,-2.3603,-2.4623,-2.5372,0.0,0.0,0.0,0.0,0.0,0.0,-2.6861,-2.6953,-2.6924,-2.6924,-2.6924,-2.6924,-2.6924,-2.7219,-2.7723,0.0,0.0,0.0,0.0,0.0,0.0,0.0,0.0,0.0,0.0,0.0,0.0,0.0,0.0,0.0,0.0,0.0,0.0,0.0,0.0,0.0,0.0,0.0,0.0,0.0,0.0,0.0,-1.7621,-1.6958,-1.677,-1.7145,-1.7239,0.0,0.0,0.0,0.0,0.0,0.0,0.0,0.0,0.0,0.0,0.0,0.0,0.0,0.0,-1.479,-1.4496,0.0,0.0,0.0,0.0,0.0,0.0,0.0,0.0,-1.3346,-1.3346,-1.3346,0.0,-1.3732,-1.4112,-1.4298,-1.4352,0.0,-1.5291,-1.5752,-1.5157,-1.6472,-1.767,-1.6896,-1.7612,-1.8199,-1.806,-1.8406,-1.8666,0.0,0.0,0.0,0.0,0.0,0.0,0.0,0.0,0.0,0.0,0.0,0.0,0.0,0.0,0.0,-1.9885,-2.0067,-1.9843,-1.9326,-2.0656,-2.2024,-2.3342,-2.3564,-2.4272,-2.5372,0.0,0.0,0.0,0.0,0.0,0.0,-2.6423,-2.6338,-2.6045,-2.6045,-2.6045,-2.6045,-2.6045,-2.6222,-2.6506,0.0,0.0,0.0,0.0,0.0,0.0,0.0,0.0,0.0,0.0,0.0,0.0,0.0,0.0,0.0,0.0,0.0,0.0,0.0,0.0,0.0,0.0,0.0,0.0,0.0,0.0,0.0,0.0,0.0,-1.6958,0.0,0.0,0.0,0.0,0.0,0.0,0.0,0.0,0.0,0.0,-1.5267,0.0,0.0,0.0,0.0,0.0,-1.4879,-1.4592,0.0,-1.4298,-1.4202,-1.4112,0.0,0.0,0.0,0.0,-1.3539,-1.3539,-1.3636,-1.3636,-1.3732,-1.4022,-1.4304,-1.4625,-1.5354,-1.6072,-1.6632,-1.6733,-1.7827,-1.8695,0.0,-1.869,-1.9168,0.0,-1.9642,0.0,0.0,0.0,0.0,0.0,0.0,0.0,0.0,0.0,0.0,0.0,0.0,0.0,0.0,0.0,0.0,0.0,-2.1128,-2.0978,-2.0229,-2.1588,-2.2601,-2.3286,-2.393,-2.436,-2.4812,0.0,0.0,0.0,0.0,0.0,-2.5669,-2.5985,-2.5947,-2.5742,-2.5742,-2.5742,-2.5742,-2.5742,-2.5917,-2.6294,0.0,0.0,0.0,0.0,0.0,0.0,0.0,0.0,0.0,0.0,0.0,0.0,0.0,0.0,0.0,0.0,0.0,0.0,0.0,0.0,0.0,0.0,0.0,0.0,0.0,0.0,0.0,0.0,0.0,0.0,0.0,0.0,0.0,0.0,0.0,0.0,0.0,0.0,0.0,0.0,-1.5356,0.0,0.0,0.0,0.0,0.0,0.0,0.0,0.0,-1.449,-1.4208,-1.4027,-1.3931,0.0,0.0,0.0,0.0,0.0,-1.4118,-1.4334,-1.4461,-1.4274,-1.4735,-1.5509,-1.6562,-1.7069,-1.7638,-1.8658,-1.913,0.0,0.0,-1.9717,0.0,0.0,0.0,0.0,0.0,0.0,0.0,0.0,0.0,0.0,0.0,0.0,0.0,0.0,0.0,0.0,0.0,0.0,0.0,0.0,-2.2198,-2.222,-2.1495,-2.279,-2.3389,-2.3393,-2.4386,-2.4592,-2.4244,-2.4189,0.0,0.0,0.0,0.0,-2.5333,-2.5635,-2.5742,-2.5742,-2.5742,-2.5742,-2.5742,-2.5732,-2.611,-2.6496,0.0,0.0,0.0,0.0,0.0,0.0,0.0,0.0,0.0,0.0,0.0,0.0,0.0,0.0,0.0,0.0,0.0,0.0,0.0,0.0,0.0,0.0,0.0,0.0,0.0,0.0,0.0,0.0,0.0,0.0,-1.8427,-1.7606,-1.7239,0.0,0.0,0.0,0.0,-1.6878,-1.6588,-1.6393,-1.6123,0.0,0.0,0.0,0.0,0.0,0.0,0.0,0.0,-1.4688,-1.4592,-1.4502,-1.4298,0.0,0.0,0.0,0.0,0.0,-1.552,-1.6368,-1.7049,-1.6186,-1.6704,-1.7552,-1.8282,-1.9245,-1.9783,-1.9295,-2.0703,0.0,0.0,-2.1867,-2.2616,0.0,0.0,0.0,0.0,0.0,0.0,0.0,0.0,0.0,0.0,0.0,0.0,0.0,0.0,0.0,0.0,0.0,0.0,0.0,0.0,-2.3602,-2.3965,-2.4184,-2.4587,-2.5063,-2.4838,-2.4748,-2.4675,-2.4317,-2.444,0.0,0.0,0.0,-2.5635,-2.5635,-2.5742,-2.5742,-2.5742,-2.5742,-2.5732,-2.5917,-2.6197,-2.6592,0.0,0.0,0.0,0.0,0.0,0.0,0.0,0.0,0.0,0.0,0.0,0.0,0.0,0.0,0.0,0.0,0.0,0.0,0.0,0.0,0.0,0.0,0.0,0.0,0.0,0.0,0.0,0.0,0.0,-1.9521,-1.8519,-1.7419,-1.7052,-1.7333,0.0,0.0,0.0,-1.7066,-1.6878,-1.6588,0.0,0.0,0.0,0.0,0.0,0.0,0.0,0.0,0.0,0.0,-1.4892,-1.4981,-1.5248,0.0,0.0,0.0,0.0,0.0,-1.6756,-1.7772,-1.8747,-1.8618,-1.8511,-1.8585,-1.9491,-2.021,-2.0796,-2.0955,0.0,0.0,0.0,0.0,-2.3537,0.0,0.0,0.0,0.0,0.0,0.0,0.0,0.0,0.0,0.0,0.0,0.0,0.0,0.0,0.0,0.0,0.0,0.0,0.0,0.0,0.0,-2.5147,-2.5138,-2.5254,-2.5372,-2.5188,-2.5096,-2.5096,-2.4895,-2.4886,0.0,0.0,-2.5338,-2.5538,-2.5635,-2.5742,-2.5742,-2.5742,-2.5742,-2.5732,-2.6207,-2.6496,-2.6794,0.0,0.0,0.0,0.0,0.0,0.0,0.0,0.0,0.0,0.0,0.0,0.0,0.0,0.0,0.0,0.0,0.0,0.0,0.0,0.0,0.0,0.0,0.0,0.0,0.0,0.0,0.0,-2.2059,-2.1606,-2.0421,-1.8427,-1.7512,-1.7138,0.0,0.0,0.0,0.0,-1.716,-1.6878,-1.669,0.0,0.0,0.0,0.0,0.0,0.0,0.0,0.0,0.0,0.0,0.0,0.0,0.0,0.0,0.0,-1.7196,-1.7211,-1.7094,-1.8192,-1.9216,-2.0191,-2.0744,-2.0169,-1.9783,-2.078,-2.1107,-2.153,-2.2553,0.0,0.0,0.0,-2.3682,0.0,0.0,0.0,0.0,0.0,0.0,0.0,0.0,0.0,0.0,0.0,0.0,0.0,0.0,0.0,0.0,0.0,0.0,0.0,0.0,0.0,0.0,-2.5679,-2.5688,-2.5712,-2.5656,-2.5555,-2.5509,-2.5509,-2.5408,-2.5395,-2.5284,-2.5588,-2.5562,-2.5477,-2.5791,-2.583,-2.5742,-2.5742,-2.5732,-2.5927,-2.6304,-2.6699,-2.6986,0.0,0.0,0.0,0.0,0.0,0.0,0.0,0.0,0.0,0.0,0.0,0.0,0.0,0.0,0.0,0.0,0.0,0.0,0.0,0.0,0.0,0.0,0.0,0.0,0.0,-2.3057,-2.3047,-2.296,-2.2148,-2.0692,-1.8788,-1.8427,-1.7878,-1.7333,0.0,0.0,-1.7326,-1.7232,-1.7153,-1.6979,-1.6979,0.0,0.0,0.0,0.0,0.0,0.0,0.0,0.0,0.0,0.0,0.0,0.0,0.0,-1.7908,-1.8399,-1.9154,-1.9808,-2.007,-2.1126,-2.2123,-2.1978,-2.1799,-2.1883,-2.2323,-2.2426,-2.2545,-2.2997,0.0,0.0,0.0,0.0,0.0,0.0,0.0,0.0,0.0,0.0,0.0,0.0,0.0,0.0,0.0,0.0,0.0,0.0,0.0,0.0,0.0,0.0,0.0,0.0,0.0,0.0,-2.5679,-2.5688,-2.599,-2.6499,-2.6105,-2.5913,-2.5903,-2.5537,-2.557,-2.574,-2.6031,-2.5999,-2.591,-2.6229,-2.6103,-2.5742,-2.5742,-2.6024,-2.64,-2.6496,-2.6784,-2.7262,0.0,0.0,0.0,0.0,0.0,0.0,0.0,0.0,0.0,0.0,0.0,0.0,0.0,0.0,0.0,0.0,0.0,0.0,0.0,0.0,0.0,0.0,0.0,-2.5196,-2.3555,-2.3271,-2.3135,-2.3135,-2.2148,-2.1329,-2.061,-1.9877,0.0,0.0,0.0,0.0,0.0,-1.7606,-1.7512,-1.78,-1.7254,-1.7153,0.0,0.0,0.0,0.0,0.0,0.0,0.0,0.0,-1.8048,-1.8234,0.0,0.0,-1.8848,-2.0118,-2.0506,-2.0662,-2.1645,-2.2258,-2.2646,-2.2676,-2.2637,-2.2572,-2.2619,-2.2644,-2.2655,-2.3032,-2.3297,0.0,0.0,0.0,0.0,0.0,0.0,0.0,0.0,0.0,0.0,0.0,0.0,0.0,0.0,0.0,0.0,0.0,0.0,0.0,0.0,0.0,0.0,0.0,0.0,0.0,0.0,-2.5666,-2.5766,-2.6197,-2.6298,-2.6353,-2.6344,-2.6197,-2.5954,-2.558,-2.5985,-2.5793,-2.5267,-2.578,-2.5889,-2.5742,-2.5742,-2.5927,-2.6294,-2.64,-2.6699,-2.7081,0.0,0.0,0.0,0.0,0.0,0.0,0.0,0.0,0.0,0.0,0.0,0.0,0.0,0.0,0.0,0.0,0.0,0.0,0.0,0.0,0.0,0.0,0.0,-2.6209,-2.4326,-2.3919,-2.3525,-2.3135,-2.2422,-2.1961,-2.1695,0.0,0.0,0.0,0.0,0.0,0.0,0.0,-1.8511,-1.888,-1.8249,-1.8334,0.0,0.0,0.0,0.0,0.0,0.0,0.0,0.0,0.0,0.0,0.0,0.0,0.0,0.0,-2.1942,-2.1829,-2.2841,-2.3153,-2.3126,-2.3085,-2.3147,-2.3046,-2.2846,-2.284,-2.2835,-2.3211,-2.3682,-2.4187,-2.4727,0.0,0.0,0.0,0.0,0.0,0.0,0.0,0.0,0.0,0.0,0.0,0.0,0.0,0.0,0.0,0.0,0.0,0.0,0.0,0.0,0.0,0.0,0.0,0.0,-2.5442,-2.5457,-2.5775,-2.6068,-2.6206,-2.6206,-2.6206,-2.5903,-2.5476,-2.5881,-2.5784,-2.5131,-2.5741,-2.5859,-2.5742,-2.5742,-2.582,-2.6091,-2.64,-2.6699,-2.69,0.0,0.0,0.0,0.0,0.0,0.0,0.0,0.0,0.0,0.0,0.0,0.0,0.0,0.0,0.0,0.0,0.0,0.0,0.0,0.0,0.0,0.0,0.0,-2.8231,-2.5378,-2.5347,-2.4604,-2.3135,-2.3135,-2.2599,-2.1695,-2.1695,0.0,0.0,0.0,0.0,0.0,0.0,-2.0232,-2.0232,-2.0232,-2.0232,-2.0232,0.0,0.0,0.0,0.0,0.0,0.0,0.0,-2.0863,0.0,0.0,0.0,0.0,0.0,-2.3547,-2.3542,-2.3746,-2.3755,-2.3755,-2.3447,0.0,0.0,-2.3456,-2.3251,-2.322,-2.3588,-2.4282,-2.4821,-2.4821,0.0,0.0,0.0,0.0,0.0,0.0,0.0,0.0,0.0,0.0,0.0,0.0,0.0,0.0,0.0,0.0,0.0,0.0,0.0,0.0,0.0,0.0,0.0,0.0,-2.5126,-2.5032,-2.5362,-2.5362,-2.5362,-2.5372,-2.5372,-2.5372,-2.5466,-2.5966,-2.5926,-2.5538,-2.6168,-2.6133,-2.5742,-2.5742,-2.582,-2.61,-2.64,-2.6699,-2.69,0.0,0.0,0.0,0.0,0.0,0.0,0.0,0.0,0.0,0.0,0.0,0.0,0.0,0.0,0.0,0.0,0.0,0.0,0.0,0.0,0.0,0.0,0.0,0.0,0.0,0.0,-2.4604,-2.3135,-2.3135,-2.296,0.0,0.0,0.0,-2.1239,0.0,0.0,0.0,0.0,0.0,0.0,-2.0503,-2.0593,0.0,0.0,0.0,0.0,0.0,0.0,0.0,0.0,0.0,0.0,0.0,0.0,0.0,-2.3666,-2.3846,-2.3996,-2.4026,-2.4053,-2.4053,-2.3755,0.0,0.0,0.0,-2.3768,0.0,0.0,-2.4898,-2.5128,-2.5128,0.0,0.0,0.0,0.0,0.0,0.0,0.0,0.0,0.0,0.0,0.0,0.0,0.0,0.0,0.0,0.0,0.0,0.0,0.0,0.0,0.0,0.0,0.0,0.0,0.0,-2.4847,-2.495,-2.4656,-2.4812,-2.5372,-2.5372,-2.5225,-2.5061,-2.5534,-2.55,-2.5121,-2.5731,-2.5859,-2.5742,-2.5742,-2.5732,-2.583,-2.6304,-2.6592,-2.6699,0.0,0.0,0.0,0.0,0.0,0.0,0.0,0.0,0.0,0.0,0.0,0.0,0.0,0.0,0.0,0.0,0.0,0.0,0.0,0.0,0.0,0.0,0.0,0.0,0.0,-2.6251,-2.4684,0.0,0.0,0.0,0.0,0.0,0.0,-2.2725,0.0,-2.2725,0.0,0.0,0.0,0.0,-2.1898,-2.2023,0.0,0.0,0.0,0.0,0.0,0.0,0.0,0.0,0.0,0.0,0.0,0.0,0.0,-2.4225,-2.4352,-2.4341,-2.4341,-2.4251,0.0,-2.3954,-2.3954,-2.4099,-2.4467,0.0,0.0,0.0,0.0,-2.545,0.0,0.0,0.0,0.0,0.0,0.0,0.0,0.0,0.0,0.0,0.0,0.0,0.0,0.0,0.0,0.0,0.0,0.0,0.0,0.0,0.0,0.0,0.0,0.0,0.0,0.0,0.0,-2.4528,-2.4271,-2.4409,-2.4886,-2.4886,-2.4757,-2.4638,-2.5011,-2.5258,-2.5235,-2.5538,-2.5742,-2.5742,-2.5742,-2.5742,-2.5732,-2.6304,-2.6496,-2.6592,0.0,0.0,0.0,0.0,0.0,0.0,0.0,0.0,0.0,0.0,0.0,0.0,0.0,0.0,0.0,0.0,0.0,0.0,0.0,0.0,0.0,0.0,0.0,0.0,0.0,0.0,0.0,0.0,0.0,0.0,0.0,0.0,-2.4053,-2.4414,0.0,-2.4414,0.0,0.0,0.0,0.0,0.0,0.0,0.0,0.0,0.0,0.0,0.0,0.0,0.0,0.0,0.0,0.0,-2.4467,-2.4546,-2.4449,-2.4827,-2.4735,-2.4529,-2.4529,-2.4341,-2.4251,-2.4251,-2.4279,0.0,-2.5197,-2.5261,-2.5335,-2.5717,0.0,0.0,0.0,0.0,0.0,0.0,0.0,0.0,0.0,0.0,0.0,0.0,0.0,0.0,0.0,0.0,0.0,0.0,0.0,0.0,0.0,0.0,0.0,0.0,0.0,0.0,0.0,0.0,0.0,0.0,-2.4042,-2.4042,-2.4042,-2.4115,-2.4251,-2.4251,-2.4735,-2.5235,-2.5742,-2.5742,-2.5742,-2.5742,-2.5742,-2.5732,-2.583,-2.6304,-2.6496,-2.6592,0.0,0.0,0.0,0.0,0.0,0.0,0.0,0.0,0.0,0.0,0.0,0.0,0.0,0.0,0.0,0.0,0.0,0.0,0.0,0.0,0.0,0.0,0.0,0.0,0.0,0.0,0.0,0.0,0.0,0.0,0.0,0.0,0.0,-2.4414,0.0,-2.4414,0.0,0.0,0.0,0.0,0.0,0.0,-2.4277,0.0,0.0,0.0,0.0,0.0,0.0,0.0,0.0,0.0,-2.4915,-2.5025,-2.512,-2.5206,-2.503,-2.4833,-2.4833,-2.4637,0.0,-2.444,-2.46,-2.4776,-2.5262,-2.5569,-2.5971,-2.6273,0.0,0.0,0.0,0.0,0.0,0.0,0.0,0.0,0.0,0.0,0.0,0.0,0.0,0.0,0.0,0.0,0.0,0.0,0.0,0.0,0.0,0.0,0.0,0.0,0.0,0.0,-2.3804,-2.3409,-2.3208,0.0,-2.3208,-2.3208,-2.3235,-2.3868,-2.4449,-2.4745,-2.5039,-2.544,-2.5742,-2.5742,-2.5742,-2.5742,-2.5742,-2.582,-2.6004,-2.64,-2.6602,-2.689,0.0,0.0,0.0,0.0,0.0,0.0,0.0,0.0,0.0,0.0,0.0,0.0,0.0,0.0,0.0,0.0,0.0,0.0,0.0,0.0,0.0,0.0,0.0,0.0,0.0,0.0,0.0,0.0,0.0,0.0,0.0,0.0,0.0,-2.5049,0.0,-2.5049,0.0,0.0,0.0,0.0,0.0,-2.4727,-2.4707,-2.4492,0.0,0.0,-2.4414,0.0,0.0,0.0,0.0,0.0,0.0,0.0,-2.5538,-2.5538,-2.5333,-2.5128,-2.5128,0.0,0.0,-2.5285,0.0,-2.5062,-2.5384,-2.6085,-2.6901,0.0,0.0,0.0,0.0,0.0,0.0,0.0,0.0,0.0,0.0,0.0,0.0,0.0,0.0,0.0,0.0,0.0,0.0,0.0,0.0,0.0,0.0,0.0,0.0,0.0,0.0,0.0,-2.39,-2.3241,-2.2857,-2.2857,-2.3045,-2.3148,-2.3261,-2.3583,-2.4057,-2.4517,-2.4612,-2.4813,-2.5107,-2.5107,-2.5107,-2.5107,-2.5107,-2.5202,-2.5476,-2.5769,-2.606,-2.6247,0.0,0.0,0.0,0.0,0.0,0.0,0.0,0.0,0.0,0.0,0.0,0.0,0.0,0.0,0.0,0.0,0.0,0.0,0.0,0.0,0.0,0.0,0.0,0.0,0.0,0.0,0.0,0.0,0.0,0.0,0.0,0.0,0.0,-2.5742,0.0,0.0,0.0,0.0,0.0,0.0,-2.5332,-2.5185,-2.5146,-2.4785,-2.4648,-2.4648,-2.4648,-2.4648,-2.4697,-2.5059,0.0,0.0,0.0,0.0,-2.5742,-2.5742,-2.5538,-2.543,-2.5616,0.0,-2.6617,-2.6406,-2.5918,0.0,-2.5852,-2.6972,-2.8014,0.0,0.0,0.0,0.0,0.0,0.0,0.0,0.0,0.0,0.0,0.0,0.0,0.0,0.0,0.0,0.0,0.0,0.0,0.0,0.0,0.0,0.0,0.0,0.0,0.0,0.0,-2.4369,-2.4195,-2.3317,-2.2926,-2.2749,-2.3029,-2.3307,-2.3502,-2.3307,-2.3456,-2.4034,-2.4034,-2.422,-2.4414,-2.4414,-2.4414,-2.4414,-2.4414,-2.4608,-2.4894,-2.5087,-2.5361,-2.5624,0.0,0.0,0.0,0.0,0.0,0.0,0.0,0.0,0.0,0.0,0.0,0.0,0.0,0.0,0.0,0.0,0.0,0.0,-3.24,0.0,0.0,-3.1661,0.0,0.0,0.0,0.0,0.0,0.0,0.0,0.0,0.0,0.0,0.0,-2.5742,0.0,0.0,0.0,0.0,0.0,0.0,-2.5674,-2.5644,-2.5644,-2.5586,-2.5557,-2.5557,-2.5557,-2.5557,-2.5576,-2.5635,-2.5644,0.0,0.0,0.0,-2.5742,-2.5742,-2.5635,-2.582,-2.6733,0.0,-2.7934,0.0,-2.7589,-2.7651,0.0,0.0,0.0,0.0,0.0,0.0,0.0,0.0,0.0,0.0,0.0,0.0,0.0,0.0,0.0,0.0,0.0,0.0,0.0,0.0,0.0,0.0,0.0,0.0,0.0,0.0,-2.7136,-2.7017,-2.5717,0.0,-2.3757,-2.3289,-2.2761,-2.2175,-2.2434,-2.2701,-2.2878,-2.2878,-2.3271,-2.4034,-2.4229,-2.4322,-2.4414,-2.4414,-2.4414,-2.4414,-2.4414,-2.471,-2.5178,-2.5189,-2.5442,-2.5885,0.0,0.0,0.0,0.0,0.0,0.0,0.0,0.0,0.0,0.0,0.0,0.0,0.0,0.0,0.0,-3.3081,-3.281,-3.2475,-3.2213,-3.1849,-3.1661,-3.1661,-3.1661,0.0,0.0,0.0,0.0,0.0,0.0,0.0,0.0,-2.7115,-2.638,0.0,0.0,0.0,0.0,0.0,0.0,-2.5917,-2.637,-2.6658,-2.6658,-2.6014,-2.611,-2.6668,-2.5917,-2.61,-2.6552,-2.6552,-2.6552,-2.6648,-2.72,0.0,0.0,0.0,-2.7389,-2.7579,-2.8588,-2.868,-2.8588,0.0,-2.8588,-2.8145,-2.8402,0.0,0.0,0.0,0.0,0.0,0.0,0.0,0.0,0.0,0.0,0.0,0.0,0.0,0.0,0.0,0.0,0.0,0.0,0.0,0.0,0.0,0.0,0.0,0.0,-2.7985,-2.7469,-2.72,-2.6097,0.0,-2.4854,-2.3794,-2.3028,-2.2451,-2.2627,-2.2706,-2.2969,-2.2969,-2.3163,-2.3512,-2.3611,-2.3701,-2.3701,-2.3701,-2.3701,-2.3701,-2.3701,-2.3969,-2.4434,-2.4434,-2.469,-2.513,0.0,0.0,0.0,0.0,0.0,0.0,0.0,0.0,0.0,0.0,0.0,0.0,0.0,0.0,0.0,0.0,-3.281,-3.2463,-3.1937,-3.1749,-3.1661,-3.1661,-3.1661,-3.1661,0.0,0.0,0.0,0.0,0.0,0.0,-2.9143,-2.8319,-2.7494,0.0,-2.638,-2.6466,0.0,0.0,0.0,-2.6924,-2.7474,-2.7851,-2.7861,-2.6935,-2.721,-2.7955,-2.6935,0.0,0.0,-2.7558,-2.7558,-2.7746,-2.8495,-2.8215,0.0,0.0,0.0,-2.9235,0.0,0.0,-2.9612,-3.0181,-2.9715,-2.915,0.0,0.0,0.0,0.0,0.0,0.0,0.0,0.0,0.0,0.0,0.0,0.0,0.0,0.0,0.0,0.0,0.0,0.0,0.0,0.0,0.0,0.0,0.0,0.0,-2.7839,-2.7793,-2.7621,-2.7242,-2.6528,-2.6091,-2.5913,-2.4392,-2.3464,-2.3135,-2.2969,-2.2969,-2.3135,-2.3135,-2.3135,-2.3135,-2.3135,-2.3135,-2.3135,-2.3135,-2.3135,-2.3135,-2.3135,-2.3406,-2.3841,-2.3841,-2.41,-2.454,0.0,0.0,0.0,0.0,0.0,0.0,0.0,0.0,0.0,0.0,0.0,0.0,-3.3081,-3.3081,-3.3081,-3.3081,-3.2649,-3.2213,-3.1761,-3.1673,-3.1661,-3.1661,-3.1661,0.0,-3.1661,0.0,0.0,0.0,0.0,0.0,-3.0351,-2.9418,-2.9039,-2.9131,-2.8204,-2.8287,-2.9223,0.0,0.0,0.0,-2.9131,-2.9131,-2.8958,-2.9131,0.0,0.0,0.0,0.0,0.0,0.0,-2.8588,-2.8588,-2.868,-2.8669,-2.8588,0.0,0.0,0.0,0.0,-3.0824,0.0,-3.1572,-3.156,0.0,0.0,0.0,0.0,0.0,0.0,0.0,0.0,0.0,0.0,0.0,0.0,0.0,0.0,0.0,0.0,0.0,0.0,0.0,0.0,0.0,0.0,0.0,0.0,0.0,-2.73,-2.7265,-2.7254,-2.7231,-2.7149,-2.6798,-2.6196,-2.4819,-2.4049,-2.4049,-2.3387,-2.3057,-2.3135,-2.3135,-2.3135,-2.3135,-2.3135,-2.3135,-2.3135,-2.3135,-2.3135,-2.3135,-2.3135,-2.3406,-2.3841,-2.3841,-2.41,-2.454,0.0,0.0,0.0,0.0,0.0,0.0,0.0,0.0,0.0,0.0,0.0,0.0,0.0,-3.2315,-3.2516,-3.2516,-3.2438,-3.2388,-3.2363,-3.2025,-3.1849,-3.1849,-3.1849,-3.1849,-3.1661,0.0,0.0,0.0,0.0,-3.1383,-3.1472,-3.0812,-3.0878,-3.1424,-2.9681,-2.912,-2.9681,-3.0147,0.0,0.0,0.0,0.0,0.0,0.0,0.0,0.0,0.0,0.0,0.0,0.0,-3.0068,-3.0158,-3.0633,-3.0351,-2.9977,-3.0453,-3.1003,-3.1294,0.0,0.0,0.0,-3.1849,-3.1761,-3.1749,0.0,0.0,0.0,0.0,0.0,0.0,0.0,0.0,0.0,0.0,0.0,0.0,0.0,0.0,0.0,0.0,0.0,0.0,0.0,0.0,0.0,0.0,0.0,0.0,-2.7242,-2.7231,-2.7231,-2.7231,-2.729,-2.7103,-2.6577,-2.6069,-2.5316,-2.4317,-2.4155,-2.3647,-2.3135,-2.3135,-2.3135,-2.3135,-2.3135,-2.3135,-2.3135,-2.3135,-2.3135,-2.3135,-2.3319,-2.358,-2.3841,-2.4024,-2.4196,-2.454,0.0,0.0,0.0,0.0,0.0,0.0,0.0,0.0,0.0,0.0,0.0,0.0,0.0,0.0,-3.2014,-3.2118,-3.2327,-3.2562,-3.255,-3.23,-3.2125,-3.2125,-3.2038,-3.1937,-3.1937,0.0,0.0,0.0,0.0,0.0,0.0,-3.1901,-3.2164,-3.2797,-3.1335,-3.0777,0.0,0.0,0.0,-3.0777,0.0,0.0,-3.1601,0.0,0.0,0.0,0.0,0.0,0.0,0.0,0.0,0.0,-3.1937,-3.1661,-3.1282,-3.1749,-3.2025,-3.2125,-3.1937,0.0,0.0,0.0,0.0,0.0,0.0,0.0,0.0,0.0,0.0,0.0,0.0,0.0,0.0,0.0,0.0,0.0,0.0,0.0,0.0,0.0,0.0,0.0,0.0,0.0,0.0,0.0,0.0,0.0,-2.7394,-2.7394,-2.7394,-2.7394,-2.7615,-2.7592,-2.7244,-2.7069,-2.6412,-2.5421,-2.4744,-2.4155,-2.356,-2.3222,-2.3135,-2.3135,-2.3135,-2.3135,-2.3135,-2.3135,-2.3135,-2.3232,-2.3406,-2.3677,-2.3937,-2.411,-2.4292,-2.454,0.0,0.0,0.0,0.0,0.0,0.0,0.0,0.0,0.0,-3.1348,0.0,0.0,0.0,0.0,0.0,-3.1854,-3.24,-3.2636,-3.2388,-3.2388,-3.2388,-3.2388,-3.2125,-3.2125,-3.2388,0.0,0.0,0.0,0.0,0.0,0.0,0.0,-3.281,-3.3081,-3.3081,-3.3081,-3.3081,0.0,-3.2982,-3.2711,0.0,-3.2896,-3.2723,0.0,0.0,0.0,-3.281,-3.2711,0.0,-3.2475,0.0,0.0,0.0,-3.24,-3.24,-3.24,-3.24,-3.2388,0.0,0.0,0.0,0.0,0.0,0.0,0.0,0.0,0.0,0.0,0.0,0.0,0.0,0.0,0.0,0.0,0.0,0.0,0.0,0.0,0.0,0.0,0.0,0.0,0.0,0.0,0.0,0.0,0.0,-2.7893,-2.7893,-2.7893,-2.7893,-2.7893,-2.8111,-2.8179,-2.8179,-2.7592,-2.7267,-2.7185,-2.5421,-2.4488,-2.4498,-2.356,-2.3135,-2.3135,-2.3135,-2.3135,-2.3135,-2.3135,-2.3232,-2.3503,-2.3503,-2.3764,-2.4206,-2.4206,-2.4368,-2.454,0.0,0.0,0.0,0.0,0.0,0.0,0.0,0.0,-3.061,0.0,0.0,0.0,-3.0231,-3.0934,-3.1612,-3.2093,-3.2473,-3.2723,-3.2909,-3.2723,-3.2636,-3.2636,-3.255,-3.2463,-3.24,0.0,0.0,0.0,0.0,0.0,0.0,0.0,0.0,0.0,-3.3081,-3.3081,-3.3081,-3.3081,0.0,0.0,-3.3068,-3.3081,0.0,0.0,0.0,0.0,0.0,-3.2982,-3.2982,0.0,-3.2909,-3.2909,0.0,0.0,-3.24,-3.24,-3.2475,-3.255,-3.2475,0.0,0.0,0.0,0.0,0.0,0.0,0.0,0.0,0.0,0.0,0.0,0.0,0.0,0.0,0.0,0.0,0.0,0.0,0.0,0.0,0.0,0.0,0.0,0.0,0.0,0.0,0.0,0.0,-2.7893,-2.7893,-2.7893,-2.7962,-2.8111,-2.8179,-2.8259,-2.8431,-2.8259,-2.7846,-2.7185,-2.5997,-2.5073,-2.4498,-2.356,-2.3135,-2.3135,-2.3135,-2.3232,-2.3416,-2.3416,-2.3406,-2.3503,-2.3851,-2.412,-2.4206,-2.4368,-2.4454,-2.454,0.0,0.0,0.0,0.0,0.0,0.0,0.0,0.0,-3.0292,0.0,0.0,0.0,-2.9792,-3.0557,-3.1286,-3.1825,-3.2209,-3.2646,-3.3056,-3.2982,-3.2896,-3.2896,-3.2723,-3.2723,-3.2649,0.0,0.0,0.0,0.0,0.0,0.0,0.0,0.0,0.0,0.0,0.0,0.0,0.0,0.0,0.0,-3.3081,0.0,0.0,-3.3081,-3.3081,0.0,0.0,0.0,-3.3081,-3.3081,-3.3081,0.0,0.0,0.0,0.0,0.0,0.0,-3.281,-3.2736,-3.281,-3.2896,0.0,0.0,0.0,-3.281,-3.2822,0.0,0.0,0.0,0.0,0.0,0.0,0.0,0.0,0.0,0.0,0.0,0.0,0.0,0.0,0.0,0.0,0.0,0.0,0.0,0.0,-2.8512,-2.8348,-2.8134,-2.8122,-2.8191,-2.8339,-2.8351,-2.8339,-2.851,-2.851,-2.8259,-2.7765,-2.6835,-2.5913,-2.4988,-2.4069,-2.3474,-2.3135,-2.3135,-2.3232,-2.3503,-2.359,-2.3677,-2.3851,-2.411,-2.4292,-2.4378,-2.4454,-2.454,-2.454,0.0,0.0,0.0,0.0,0.0,0.0,0.0,0.0,0.0,0.0,-3.0011,-2.9792,-2.9792,-3.0281,-3.0821,-3.1348,-3.1888,-3.2453,-3.3043,-3.3081,-3.3081,-3.3081,-3.2896,-3.2896,-3.3068,0.0,0.0,0.0,0.0,0.0,0.0,0.0,0.0,0.0,0.0,0.0,0.0,0.0,0.0,-3.3081,-3.3081,-3.3081,0.0,0.0,-3.3081,-3.3081,-3.3081,-3.3081,-3.3081,-3.3081,-3.3081,0.0,0.0,0.0,0.0,0.0,-3.3081,-3.3081,-3.3081,-3.3081,-3.3056,0.0,0.0,0.0,-3.2905,-3.2893,0.0,0.0,0.0,0.0,0.0,0.0,0.0,0.0,0.0,0.0,0.0,0.0,0.0,0.0,0.0,0.0,0.0,0.0,0.0,-2.9244,-2.9208,-2.9003,-2.8534,-2.851,-2.851,-2.851,-2.851,-2.851,-2.851,-2.851,-2.851,-2.851,-2.7603,-2.6753,-2.5902,-2.4904,-2.4069,-2.3222,-2.3144,-2.3319,-2.359,-2.3754,-2.4024,-2.4206,-2.4196,-2.4368,-2.454,-2.454,-2.454,-2.454,-3.492,0.0,0.0,0.0,0.0,0.0,0.0,0.0,0.0,-3.1294,-3.0508,-3.0011,-2.9792,-3.0281,-3.0821,-3.1348,-3.1888,-3.2453,-3.3043,-3.3081,-3.3081,-3.3081,-3.3081,-3.3081,-3.3081,-3.2968,0.0,0.0,0.0,0.0,0.0,0.0,0.0,0.0,0.0,0.0,0.0,0.0,0.0,-3.3081,-3.3081,0.0,-3.3081,-3.3081,-3.3081,-3.3081,-3.3081,-3.3081,-3.3081,-3.3081,-3.3081,-3.3081,0.0,0.0,0.0,-3.3081,0.0,0.0,0.0,0.0,0.0,0.0,0.0,0.0,-3.1813,-3.1712,-3.1712,0.0,0.0,0.0,0.0,0.0,0.0,0.0,0.0,0.0,0.0,0.0,0.0,0.0,0.0,0.0,0.0,0.0,-2.9163,-2.8894,-2.8735,-2.8619,-2.8522,-2.851,-2.851,-2.851,-2.851,-2.851,-2.851,-2.851,-2.851,-2.851,-2.7603,-2.7092,-2.6846,-2.5253,-2.4413,-2.4155,-2.3667,-2.358,-2.3754,-2.4024,-2.411,-2.4206,-2.4368,-2.4454,-2.454,-2.454,-2.454,-2.454,-3.5424,0.0,0.0,0.0,0.0,0.0,0.0,0.0,0.0,-3.2263,-3.1904,-3.1289,-3.0272,-3.1067,-3.1682,-3.175,-3.2051,-3.2453,-3.3043,-3.3081,-3.3081,-3.3081,-3.3081,-3.3081,-3.3081,-3.3081,-3.3081,0.0,0.0,0.0,0.0,0.0,0.0,0.0,0.0,0.0,0.0,0.0,-3.3081,-3.3081,-3.3081,0.0,-3.3081,-3.3081,-3.3081,-3.3081,-3.3081,-3.3081,-3.3081,-3.3081,-3.3081,0.0,0.0,-3.3081,-3.3081,0.0,-3.3081,-3.3081,0.0,0.0,0.0,-3.229,0.0,0.0,0.0,-3.1386,-3.1386,0.0,0.0,0.0,0.0,0.0,0.0,0.0,0.0,0.0,0.0,0.0,0.0,0.0,0.0,0.0,0.0,0.0,-2.9738,-2.9389,-2.8882,-2.8657,-2.8657,-2.859,-2.851,-2.851,-2.851,-2.851,-2.851,-2.851,-2.851,-2.851,-2.8099,-2.7603,-2.7185,-2.6257,-2.5337,-2.4498,-2.4251,-2.4003,-2.3841,-2.411,-2.4292,-2.4368,-2.4454,-2.454,-2.454,-2.454,-2.454,-2.4625,-3.5504,0.0,0.0,0.0,0.0,0.0,0.0,0.0,0.0,-3.3269,-3.3484,-3.3057,-3.1512,-3.2359,-3.3014,-3.279,-3.2841,-3.3014,-3.336,-3.3398,-3.3313,-3.3081,-3.3081,-3.3081,-3.3081,-3.3081,-3.3081,0.0,0.0,0.0,0.0,0.0,0.0,0.0,0.0,0.0,0.0,0.0,0.0,-3.3154,0.0,-3.3154,-3.3081,-3.3081,-3.3081,-3.3081,-3.3081,-3.3081,-3.3081,-3.3081,0.0,-3.3081,-3.3081,-3.3081,0.0,0.0,0.0,0.0,0.0,0.0,0.0,0.0,0.0,-3.136,0.0,0.0,0.0,0.0,0.0,0.0,0.0,0.0,0.0,0.0,0.0,0.0,0.0,0.0,0.0,0.0,0.0,0.0,0.0,0.0,-3.0399,-2.9807,-2.9352,-2.9028,-2.8882,-2.8736,-2.859,-2.8578,-2.8578,-2.851,-2.851,-2.851,-2.851,-2.851,-2.851,-2.8099,-2.7429,-2.7267,-2.6257,-2.4744,-2.484,-2.4509,-2.3841,-2.411,-2.4368,-2.454,-2.454,-2.454,-2.454,-2.454,-2.4625,-2.4861,-3.5504,-3.5439,0.0,0.0,0.0,0.0,0.0,0.0,0.0,-3.4609,-3.4635,-3.4571,-3.4197,-3.4266,-3.4541,-3.4991,-3.5032,0.0,-3.4555,0.0,-3.4108,-3.3154,-3.3081,-3.3081,-3.3081,-3.3081,-3.3081,-3.3081,0.0,0.0,0.0,0.0,0.0,0.0,-3.4108,0.0,0.0,0.0,-3.4037,0.0,-3.3398,-3.324,0.0,-3.3081,-3.3081,-3.3081,-3.3081,-3.3081,-3.3081,0.0,-3.3081,-3.3081,0.0,-3.3081,-3.3081,0.0,0.0,0.0,0.0,0.0,0.0,0.0,-3.1487,0.0,0.0,0.0,0.0,0.0,0.0,0.0,0.0,0.0,0.0,0.0,0.0,0.0,0.0,0.0,0.0,0.0,0.0,0.0,0.0,0.0,0.0,-2.9518,-2.9908,-2.9793,-2.9131,-2.9052,-2.8973,-2.8803,-2.8803,-2.8645,-2.851,-2.851,-2.851,-2.851,-2.851,-2.8431,-2.8351,-2.751,-2.6588,-2.5663,-2.5263,-2.4605,-2.3841,-2.4282,-2.4454,-2.454,-2.454,-2.454,-2.454,-2.454,-2.502,-2.5663,-3.5504,-3.5504,-3.5504,0.0,0.0,0.0,0.0,0.0,0.0,0.0,0.0,0.0,0.0,0.0,0.0,-3.5903,0.0,-3.5792,0.0,0.0,-3.5224,-3.4746,-3.4581,-3.4581,-3.4746,-3.4746,-3.4815,-3.487,-3.487,0.0,0.0,0.0,0.0,0.0,-3.544,0.0,-3.5142,0.0,0.0,0.0,0.0,0.0,0.0,-3.3641,-3.3484,-3.3484,-3.3484,-3.3484,-3.3484,0.0,-3.3398,0.0,0.0,0.0,0.0,0.0,0.0,0.0,0.0,0.0,0.0,0.0,0.0,0.0,-3.042,0.0,-3.0444,0.0,0.0,0.0,0.0,0.0,0.0,0.0,0.0,0.0,0.0,0.0,0.0,0.0,0.0,0.0,0.0,0.0,0.0,0.0,0.0,-3.0317,-3.0012,-2.9431,-2.9275,-2.9639,-2.9184,-2.8961,-2.8816,-2.8816,-2.8816,-2.8816,-2.8736,-2.8736,-2.8816,-2.8315,-2.773,-2.6976,-2.6905,-2.608,-2.4829,-2.5673,-2.5673,-2.5337,-2.5841,-2.5673,-2.5263,-2.5432,-2.5997,-2.6883,-3.5504,-3.5504,-3.5504,0.0,0.0,0.0,0.0,0.0,0.0,0.0,0.0,0.0,-3.6599,-3.7404,0.0,0.0,-3.7084,-3.693,0.0,0.0,-3.6318,0.0,0.0,0.0,-3.6001,-3.6001,-3.6067,-3.6198,0.0,0.0,0.0,0.0,0.0,0.0,0.0,-3.6618,-3.6476,0.0,0.0,-3.5453,-3.6067,-3.5987,-3.5453,-3.465,-3.4262,-3.4037,-3.4037,-3.3869,-3.3713,-3.3713,-3.3641,0.0,-3.3641,0.0,0.0,0.0,0.0,0.0,-3.3713,0.0,0.0,0.0,0.0,0.0,0.0,0.0,0.0,0.0,0.0,0.0,0.0,0.0,0.0,-3.1402,0.0,0.0,0.0,0.0,0.0,0.0,0.0,0.0,0.0,0.0,0.0,0.0,-3.0996,0.0,-3.0482,-2.9947,-2.9793,-3.0024,-2.9496,-2.9131,-2.9131,-2.9131,-2.9131,-2.9131,-2.8961,-2.8961,-2.9131,-2.8961,-2.8462,-2.7799,-2.7971,-2.7232,-2.5902,-2.6741,-2.6741,-2.6235,-2.6894,-2.6976,-2.6648,-2.6483,-2.7058,-2.8039,-3.5504,-3.5504,-3.5504,0.0,0.0,0.0,0.0,0.0,0.0,0.0,0.0,0.0,0.0,0.0,0.0,0.0,0.0,-3.887,-3.7829,0.0,-3.7266,0.0,0.0,-3.6198,0.0,-3.6198,-3.6198,-3.6198,0.0,0.0,0.0,0.0,0.0,0.0,0.0,-3.719,-3.629,-3.7343,-3.7266,-3.6568,-3.6568,-3.6724,-3.6802,0.0,-3.5668,-3.4979,-3.4979,0.0,0.0,-3.3713,-3.3713,0.0,0.0,0.0,0.0,0.0,0.0,0.0,0.0,0.0,0.0,-3.3301,0.0,0.0,0.0,0.0,-3.2932,0.0,0.0,0.0,0.0,0.0,-3.2961,-3.2426,-3.2765,0.0,0.0,0.0,0.0,0.0,0.0,0.0,0.0,0.0,0.0,0.0,-3.2861,0.0,-3.0216,-3.0758,-3.0594,-2.9484,-2.9419,-2.9275,-2.9131,-2.9131,-2.9131,-2.9131,-2.9131,-2.9131,-2.9131,-2.9131,-2.8633,-2.7799,-2.7971,-2.7557,-2.6812,-2.6987,-2.7069,-2.7069,-2.7383,-2.7971,-2.8633,-2.7799,-2.8051,-2.8791,0.0,-3.5504,-3.5504,0.0,0.0,0.0,0.0,-3.8108,0.0,0.0,0.0,0.0,0.0,-3.9424,-3.9424,0.0,0.0,-3.9265,-3.887,-3.8708,0.0,0.0,0.0,-3.7965,0.0,0.0,0.0,0.0,0.0,0.0,0.0,0.0,0.0,0.0,0.0,-3.8443,0.0,0.0,0.0,0.0,0.0,-3.8008,-3.8383,0.0,0.0,-3.6253,-3.6253,-3.6094,0.0,-3.5855,-3.5695,-3.5615,-3.5775,-3.5842,-3.5668,-3.5156,-3.5087,0.0,0.0,0.0,-3.3426,-3.3826,0.0,0.0,0.0,0.0,0.0,0.0,0.0,0.0,0.0,-3.3213,-3.3157,-3.2946,-3.2736,-3.24,0.0,0.0,0.0,0.0,0.0,0.0,0.0,0.0,0.0,-3.1019,-3.1909,-3.1909,0.0,-3.0259,-3.0158,-3.0051,-2.9554,-2.9377,-2.9546,-2.9546,-2.9546,-2.9546,-2.9365,-2.9365,-2.9546,-2.9365,-2.9197,-2.9131,-2.9221,-2.8712,-2.7971,-2.8633,-2.8554,-2.8131,-2.8937,-2.9431,-2.9586,-2.8991,-2.9316,-3.0062,-3.5504,0.0,0.0,0.0,0.0,0.0,0.0,0.0,0.0,0.0,-3.9424,0.0,-3.9738,0.0,-3.9858,0.0,-4.0113,-4.0113,-4.0113,-3.9742,0.0,-3.9534,-3.9223,0.0,0.0,0.0,0.0,0.0,0.0,-3.929,0.0,0.0,0.0,0.0,0.0,-3.8796,-3.8437,0.0,-3.9119,0.0,0.0,-3.8958,0.0,0.0,-3.7601,0.0,0.0,-3.7127,-3.688,-3.688,-3.6802,-3.6724,-3.688,-3.688,-3.6802,-3.6267,-3.6036,-3.5852,-3.5247,-3.4561,0.0,0.0,-3.403,0.0,-3.3561,0.0,0.0,0.0,0.0,0.0,0.0,0.0,-3.393,-3.3739,-3.3312,-3.2895,0.0,-3.229,0.0,0.0,0.0,0.0,0.0,0.0,-3.2076,-3.1293,-3.1752,-3.1687,0.0,0.0,-3.0252,-3.0445,-2.9941,-2.9812,-3.0048,-2.9973,-2.9934,-2.9856,-2.9677,-2.9611,-2.9792,-2.9611,-2.9611,-2.9792,-2.9792,-2.9534,-2.9106,-2.9689,-2.9599,-2.925,-2.9985,-3.0305,-3.0305,-2.996,-3.0279,-3.0849,0.0,0.0,0.0,0.0,-3.7584,0.0,0.0,0.0,-3.9424,0.0,-3.9454,-3.9709,-4.0337,-4.0427,-4.0696,-4.1324,-4.1384,-4.1384,-4.1384,-4.0771,0.0,0.0,-3.9768,-3.9424,-3.9424,0.0,0.0,0.0,0.0,0.0,0.0,0.0,0.0,0.0,-3.8078,0.0,-3.8392,-3.911,-3.9424,-3.9424,-3.9424,-3.9424,-3.9424,-3.9424,0.0,-3.8277,-3.8277,-3.7706,-3.7035,-3.7035,-3.7035,-3.7035,-3.7035,-3.7615,-3.8113,-3.7175,-3.7053,-3.7025,-3.6123,-3.5026,-3.4356,-3.5047,0.0,0.0,0.0,0.0,-3.5344,0.0,0.0,0.0,0.0,0.0,0.0,-3.4813,-3.4538,-3.398,-3.2854,0.0,0.0,0.0,0.0,0.0,0.0,-3.3395,-3.3149,-3.2431,-3.2402,-3.199,0.0,0.0,0.0,-3.0554,-3.0492,-3.0472,-3.0453,-3.0186,-3.005,-3.0075,-2.9934,-2.9792,-2.9792,-2.9792,-2.9792,-2.9792,-2.9792,-2.9934,-3.0075,-3.0075,-3.0228,-3.0444,-3.0609,-3.0698,-3.0698,-3.0698,-3.0849,-3.0986,-3.6148,-3.7135,-3.7898,0.0,-3.8167,-3.8556,0.0,0.0,0.0,0.0,-3.9843,-4.0217,-4.0382,-4.0831,-4.119,-4.1369,-4.1384,0.0,0.0,0.0,0.0,-4.0397,-3.9768,-3.9424,-3.9424,-3.9424,-3.9424,-3.9424,0.0,0.0,-3.8392,0.0,0.0,0.0,0.0,0.0,-3.7734,-3.8916,-3.9424,-3.9424,-3.9424,-3.9424,0.0,0.0,-3.9265,-3.9104,-3.9104,-3.8958,-3.8782,-3.8782,-3.8782,-3.8782,-3.8782,-3.8943,-3.8855,-3.7504,-3.717,-3.691,-3.5683,-3.518,-3.4975,-3.537,-3.5332,-3.5198,0.0,0.0,0.0,0.0,0.0,0.0,0.0,0.0,0.0,-3.4766,-3.397,-3.3078,-3.2304,0.0,0.0,0.0,0.0,0.0,0.0,-3.2282,-3.2165,-3.1989,-3.1974,0.0,0.0,0.0,0.0,-2.9497,-2.9456,-2.9548,-2.9792,-2.9664,-2.9883,-3.0292,-3.0152,-3.0011,-3.0011,-2.9869,-2.9869,-3.0011,-3.0011,-3.0152,-3.0292,-3.0292,-3.0368,-3.0444,-3.0609,-3.0773,-3.0911,-3.0911,-3.0986,-3.0986,-3.697,0.0,0.0,-3.8796,0.0,0.0,-3.9364,0.0,0.0,-3.9843,-4.0427,0.0,-4.122,-4.1594,-4.1923,-4.2207,-4.2237,0.0,-4.2237,0.0,0.0,-4.0846,-4.0202,-3.9709,-3.9424,-3.9424,0.0,-3.9424,0.0,0.0,-3.7958,0.0,0.0,0.0,0.0,-3.7509,0.0,-3.8856,-3.9424,-3.9424,-3.9424,0.0,0.0,-3.9424,-3.9424,-3.9424,-3.9424,-3.9424,-3.9424,-3.9424,-3.9424,-3.9424,-3.9424,-3.9215,-3.8814,-3.7984,-3.734,-3.6752,-3.5947,-3.5536,-3.5377,-3.5549,-3.5604,-3.5604,-3.5668,-3.5782,-3.5831,0.0,0.0,0.0,0.0,0.0,0.0,-3.4091,-3.3226,0.0,0.0,0.0,0.0,0.0,0.0,0.0,0.0,0.0,-3.1898,0.0,0.0,0.0,0.0,0.0,0.0,0.0,-3.0113,-3.006,-2.9877,-3.0039,-3.0108,-3.0147,-3.0177,-3.0228,-3.0228,-3.0075,-3.0152,-3.0228,-3.0228,-3.0381,-3.0533,-3.0533,-3.0596,-3.0672,-3.0761,-3.0911,-3.0986,-3.0986,-3.0986,-3.0986,0.0,0.0,0.0,0.0,0.0,0.0,0.0,-3.9976,0.0,-4.0471,0.0,-4.1715,-4.2374,-4.2509,-4.2794,-4.3284,0.0,-4.3344,-4.3344,-4.2809,-4.2149,-4.149,-4.083,-4.0171,-3.9511,-3.9496,-3.9496,0.0,-3.9424,-3.8766,-3.7539,0.0,0.0,0.0,0.0,0.0,0.0,-3.8886,-3.9424,0.0,-3.9424,-3.9424,-3.9424,-3.9424,-3.9424,-3.9424,-3.9424,-3.9424,-3.9424,-3.9424,-3.9424,-3.9409,-3.932,-3.8871,-3.8362,-3.8182,-3.7413,-3.6528,-3.6439,-3.6004,-3.5619,-3.5703,-3.5752,-3.5767,-3.5973,-3.6037,-3.6037,-3.6211,-3.6148,0.0,0.0,0.0,0.0,0.0,0.0,0.0,0.0,0.0,0.0,0.0,0.0,0.0,0.0,0.0,0.0,0.0,0.0,0.0,0.0,0.0,0.0,0.0,-3.1319,0.0,-3.0409,0.0,-3.0419,-2.9952,-3.0235,-3.0367,-3.0444,-3.0444,-3.0444,-3.0444,-3.0444,-3.0533,-3.0773,-3.0773,-3.0849,-3.0986,-3.0986,-3.0986,-3.0986,-3.1061,-3.1061,-3.1061,0.0,0.0,0.0,0.0,0.0,-3.9925,-3.9925,-4.0031,-4.0304,-4.0849,-4.1501,-4.2108,-4.262,-4.3255,-4.3618,-4.3314,-4.3518,0.0,0.0,0.0,0.0,-4.1955,-4.1273,-4.0607,-3.994,-3.9854,-3.9768,0.0,-3.9625,-3.9148,-3.8197,0.0,0.0,0.0,0.0,0.0,-3.8272,-3.908,0.0,-3.9424,-3.9424,-3.9424,-3.9424,-3.9424,-3.9424,-3.9424,-3.9424,-3.9424,-3.9424,-3.9424,-3.9424,-3.932,-3.8751,-3.8482,-3.8252,-3.7241,-3.6842,-3.6607,-3.6179,-3.6001,-3.591,-3.5973,-3.5973,-3.5973,-3.5973,-3.6085,-3.6148,-3.6211,-3.6289,-3.6183,-3.5554,0.0,0.0,0.0,0.0,0.0,0.0,0.0,0.0,0.0,0.0,0.0,0.0,0.0,0.0,0.0,0.0,0.0,0.0,0.0,0.0,0.0,0.0,0.0,0.0,0.0,0.0,-3.0851,-3.0189,-3.0144,-3.0622,-3.0444,-3.052,-3.0622,-3.0622,-3.0773,-3.0911,-3.0911,-3.0986,-3.0986,-3.0986,-3.0986,-3.1061,-3.1347,-3.1482,-3.1482,0.0,0.0,0.0,0.0,0.0,0.0,0.0,-4.0512,0.0,-4.1422,-4.2394,-4.3153,-4.3333,-4.3713,-4.3895,-4.366,-4.3754,-4.3832,-4.3832,-4.3529,-4.2986,-4.2045,-4.168,0.0,-4.0026,-4.0011,-3.9925,-3.9854,-3.9768,-3.9279,-3.8532,0.0,0.0,0.0,0.0,-3.7451,0.0,0.0,0.0,-3.9711,-3.9711,-3.9711,-3.9711,-3.9711,-3.9711,-3.9666,-3.932,-3.9199,-3.9199,-3.8957,-3.8957,-3.8923,-3.8247,-3.788,-3.7556,-3.699,-3.6617,-3.6254,-3.6064,-3.5973,-3.6037,-3.6085,-3.6085,-3.6148,-3.6226,-3.6289,-3.6352,-3.6352,-3.6414,-3.6168,-3.5062,-3.3989,0.0,0.0,0.0,0.0,0.0,0.0,0.0,0.0,0.0,0.0,0.0,0.0,0.0,0.0,0.0,0.0,0.0,0.0,0.0,0.0,0.0,0.0,0.0,0.0,0.0,-3.0153,-3.0374,-3.0619,-3.0849,-3.0761,-3.0761,-3.0836,-3.0836,-3.0911,-3.0986,-3.0986,-3.1123,-3.1347,-3.1347,-3.1421,-3.1556,-3.1776,-3.185,-3.185,0.0,-4.0207,0.0,0.0,-4.0277,0.0,0.0,-4.13,-4.1858,-4.2086,-4.3183,-4.3975,-4.405,-4.4127,-4.4065,-4.3988,-4.4065,-4.405,-4.405,-4.405,-4.3457,-4.2208,-4.2147,-4.1507,-4.0167,-4.0137,-4.0066,0.0,-3.991,-3.9345,0.0,-3.788,0.0,0.0,0.0,0.0,0.0,0.0,-3.9707,-3.9571,-3.9571,-3.9571,-3.9571,-3.9571,-3.9571,-3.9495,-3.8979,-3.8781,-3.8698,-3.8241,-3.8286,-3.8439,-3.779,-3.7298,-3.699,-3.6838,-3.6462,-3.6037,-3.61,-3.61,-3.6163,-3.6211,-3.6274,-3.6274,-3.6492,-3.6492,-3.6492,-3.6492,-3.6261,-3.5691,-3.4475,-3.3675,0.0,0.0,0.0,0.0,0.0,0.0,0.0,0.0,0.0,0.0,0.0,0.0,0.0,0.0,0.0,0.0,0.0,0.0,0.0,0.0,0.0,0.0,-3.0254,0.0,-3.0764,0.0,-3.0395,-3.0783,-3.0803,-3.0934,-3.0986,-3.0986,-3.0986,-3.0986,-3.0986,-3.1061,-3.1347,-3.1629,-3.1703,-3.1836,-3.2128,-3.22,-3.2273,-3.2403,0.0,0.0,0.0,0.0,0.0,0.0,0.0,-4.2078,-4.254,-4.2529,-4.3144,-4.382,-4.422,-4.4435,-4.4435,-4.4065,-4.4143,-4.4281,-4.4281,-4.4281,-4.3761,-4.259,-4.2529,-4.1884,-4.0486,-4.0455,-4.0401,0.0,0.0,-3.9466,-3.797,-3.7955,0.0,0.0,0.0,0.0,0.0,-3.8781,-3.8736,-3.8076,-3.8076,-3.8076,-3.8076,-3.8076,-3.8076,-3.8076,-3.8016,-3.7985,-3.7895,-3.7334,-3.7516,-3.7879,-3.7243,-3.7066,-3.6884,-3.6438,-3.6257,-3.6211,-3.6414,-3.6429,-3.6429,-3.6492,-3.6492,-3.6492,-3.6492,-3.6492,-3.6492,-3.6492,-3.5522,-3.4429,-3.3644,-3.2952,-3.2459,0.0,0.0,0.0,0.0,0.0,0.0,0.0,0.0,0.0,0.0,0.0,0.0,0.0,0.0,0.0,0.0,0.0,0.0,0.0,0.0,-3.1925,-3.1811,-3.0881,0.0,-3.0451,-3.0133,-2.9998,-3.0228,-3.0751,-3.0986,-3.0986,-3.0986,-3.0986,-3.1061,-3.1421,-3.1556,-3.1629,-3.1909,-3.2055,-3.2128,-3.2489,-3.296,-3.3437,0.0,0.0,0.0,0.0,0.0,0.0,0.0,-4.2171,-4.274,-4.314,-4.3756,-4.4279,-4.448,-4.4572,-4.4511,-4.4358,-4.4435,-4.4511,-4.4511,-4.4511,-4.3912,-4.2663,-4.2602,-4.1955,-4.0555,-4.0524,-4.0455,0.0,0.0,-3.9986,-3.9314,0.0,0.0,0.0,0.0,-3.7897,-3.7547,-3.8366,-3.8504,-3.8228,-3.8228,-3.8228,-3.8228,-3.8228,-3.8228,-3.8183,-3.777,-3.7632,-3.7525,-3.6947,-3.7018,-3.7364,-3.6709,-3.6575,-3.6672,-3.6428,-3.6352,-3.6414,-3.6492,-3.6492,-3.6492,-3.6492,-3.6492,-3.6492,-3.6492,-3.6492,-3.6384,-3.5968,-3.4783,-3.3737,-3.346,-3.3042,-3.2648,0.0,0.0,0.0,0.0,0.0,0.0,0.0,0.0,-3.2973,0.0,0.0,0.0,0.0,0.0,0.0,0.0,0.0,0.0,-3.2342,0.0,-3.2007,-3.1507,-3.1465,-3.1055,-3.0303,-3.0308,-3.0283,-3.0415,-3.0446,-3.0808,-3.1347,-3.1556,-3.1823,-3.2101,-3.1982,-3.2259,-3.2747,-3.2547,-3.2832,-3.3311,-3.3451,-3.3865,-3.4327,-4.0904,0.0,-4.1024,0.0,-4.0768,-4.1024,-4.1755,-4.2309,-4.291,-4.3756,-4.4279,-4.4572,-4.4572,-4.4572,-4.4572,-4.4572,-4.4572,-4.4572,-4.4572,-4.4387,-4.3787,-4.2663,-4.2417,0.0,-4.0555,-4.0524,-4.0524,-4.0524,-4.0401,0.0,0.0,0.0,0.0,0.0,-3.8111,-3.7943,-3.7315,-3.7935,-3.8092,-3.7923,-3.7923,-3.7923,-3.7923,-3.7923,-3.7923,-3.7861,-3.7384,-3.72,-3.7138,-3.6661,-3.6737,-3.6901,-3.6427,-3.6414,-3.6492,-3.6492,-3.6492,-3.6492,-3.6492,-3.6492,-3.6492,-3.6492,-3.6492,-3.6492,-3.6492,-3.6338,-3.5938,-3.506,-3.4091,-3.3352,-3.3264,-3.3044,-3.2843,0.0,0.0,0.0,0.0,0.0,0.0,0.0,-3.3309,-3.3309,-3.3309,0.0,0.0,0.0,0.0,0.0,0.0,0.0,0.0,0.0,0.0,0.0,0.0,0.0,-3.1499,-3.0452,-3.0714,-3.0862,-3.0975,-3.0913,-3.1288,-3.1982,-3.2055,-3.239,-3.2861,-3.2605,-3.303,-3.3713,-3.3451,-3.3728,-3.4356,-3.4356,-3.4677,-3.5154,-4.1459,-4.2013,-4.2269,-4.1575,-4.1459,-4.1747,-4.2458,-4.2602,-4.3079,-4.4387,-4.4572,-4.4572,-4.4572,-4.4572,-4.4572,-4.4572,-4.4572,-4.4572,-4.4572,-4.3956,-4.3294,0.0,0.0,-4.1278,-4.0539,-4.0524,-4.0524,-4.0524,0.0,0.0,-3.8523,0.0,-3.7877,-3.8492,-3.8508,-3.8138,-3.7507,-3.7507,-3.7123,-3.6507,-3.6507,-3.6507,-3.6507,-3.6507,-3.6507,-3.6507,-3.6507,-3.6507,-3.6507,-3.6492,-3.6492,-3.6507,-3.6492,-3.6492,-3.6492,-3.6492,-3.6492,-3.6492,-3.6492,-3.6492,-3.6492,-3.6492,-3.6492,-3.6492,-3.6492,-3.5984,-3.5106,-3.3706,-3.3413,-3.3326,-3.2983,-3.2912,-3.3005,-3.3256,0.0,0.0,0.0,0.0,0.0,0.0,-3.3309,-3.3309,-3.3309,0.0,0.0,0.0,0.0,0.0,0.0,0.0,0.0,-3.2398,-3.2398,0.0,-3.2398,-3.1951,-3.1537,-3.1188,-3.1331,-3.1536,-3.1925,-3.2568,-3.2847,-3.2861,-3.2331,-3.239,-3.2932,-3.3297,-3.3768,-3.4312,-3.4728,-3.4876,-3.4876,-3.4876,-3.5219,-3.5752,-4.2269,-4.2332,-4.2458,-4.2205,-4.2205,-4.2285,-4.2548,-4.2958,-4.3441,-4.3846,-4.4295,-4.4572,-4.4572,-4.4572,-4.4572,0.0,-4.4572,-4.4387,0.0,-4.3694,-4.3079,-4.1971,-4.1709,-4.1263,-4.0539,-4.0524,-4.0524,-4.0524,0.0,0.0,0.0,-3.9677,-3.9185,-3.8508,-3.8508,-3.7877,-3.6815,-3.6815,-3.6692,-3.6492,-3.6492,-3.6492,-3.6492,-3.6492,-3.6492,-3.6492,-3.6492,-3.6492,-3.6492,-3.6492,-3.6492,-3.6492,-3.6492,-3.6492,-3.6492,-3.6492,-3.6492,-3.6492,-3.6492,-3.6492,-3.6492,-3.6492,-3.6153,-3.5799,-3.5799,-3.4906,-3.3994,-3.3789,-3.341,-3.3092,-3.3143,-3.3309,-3.3398,-3.3309,0.0,0.0,0.0,0.0,0.0,0.0,-3.3848,-3.3848,0.0,-3.371,0.0,0.0,0.0,0.0,0.0,0.0,0.0,0.0,-3.2398,0.0,-3.2398,-3.2231,-3.1936,-3.1537,-3.1353,-3.1474,-3.1911,-3.2806,-3.3421,-3.3822,-3.3973,-3.4312,-3.4795,-3.4528,-3.4795,-3.5204,-3.5008,-3.5154,-3.5479,-3.5672,-3.6148,-3.66,-4.2802,-4.3092,-4.3273,-4.2847,-4.2953,-4.3075,-4.3071,-4.3419,-4.3759,-4.3914,-4.4313,-4.4507,-4.4246,-4.4246,0.0,-4.4247,-4.3972,0.0,-4.3233,-4.2971,-4.2463,-4.1632,-4.134,-4.0986,-4.0539,0.0,0.0,-4.0524,-4.0524,-4.0524,-4.0524,-4.0262,-3.9554,-3.8492,-3.8246,-3.7523,-3.6492,-3.6492,-3.6492,-3.6492,-3.6492,-3.6492,-3.6492,-3.6492,-3.6492,-3.6492,-3.6492,-3.6492,-3.6492,-3.6492,-3.6492,-3.6492,-3.6492,-3.6492,-3.6492,-3.6492,-3.6492,-3.6492,-3.6492,-3.6492,-3.643,-3.6184,-3.5799,-3.5397,-3.5007,-3.4218,-3.3619,-3.3662,-3.3341,-3.315,-3.3398,-3.3607,-3.371,-3.3607,0.0,-3.405,0.0,0.0,0.0,0.0,0.0,0.0,0.0,-3.3899,0.0,0.0,0.0,0.0,0.0,0.0,0.0,-3.2398,-3.2398,0.0,-3.2398,-3.2398,-3.2231,-3.1951,-3.1992,-3.2169,-3.2485,-3.3162,-3.3824,-3.4427,-3.4507,-3.4981,-3.5688,-3.535,-3.5494,-3.5958,-3.5752,-3.5879,-3.6211,-3.6507,-3.6892,-3.721,-4.3141,-4.4064,0.0,0.0,-4.3764,0.0,-4.3807,-4.3828,-4.4041,-4.4528,-4.4592,-4.4359,-4.3781,-4.368,-4.3623,-4.3577,0.0,0.0,0.0,-4.1955,-4.1571,-4.1524,-4.0893,0.0,-4.0524,-4.0524,-4.0524,-4.0524,-4.0524,-4.0524,-4.0524,-3.9831,-3.9154,-3.8477,-3.78,-3.7123,-3.6492,-3.6492,-3.6492,-3.6492,-3.6492,-3.6492,-3.6492,-3.6492,-3.6492,-3.6492,-3.6492,-3.6492,-3.6492,-3.6492,-3.6492,-3.6554,-3.6554,-3.6554,-3.6554,-3.6492,-3.6492,-3.6476,-3.6492,-3.6415,-3.6261,-3.5629,-3.5428,-3.5161,-3.4114,-3.3873,-3.374,-3.3382,-3.3361,-3.3398,-3.371,-3.3761,-3.3797,-3.405,-3.4101,-3.4101,-3.4101,0.0,0.0,0.0,0.0,0.0,0.0,-3.3949,-3.4101,0.0,0.0,0.0,0.0,0.0,0.0,-3.2453,-3.2398,-3.2398,-3.2398,-3.2398,-3.2398,-3.2398,-3.3029,-3.3352,-3.3429,-3.359,-3.4061,-3.4633,-3.4178,-3.4614,-3.5691,-3.5676,-3.6039,-3.6554,-3.6877,-3.6999,-3.706,-3.7298,-3.7401,-3.746,0.0,0.0,-4.4869,-4.4519,-4.4631,-4.4553,-4.3879,-4.4301,-4.4577,-4.4183,-4.4625,-4.4821,-4.4691,-4.4205,-4.3832,-4.3764,-4.3036,-4.2386,-4.1878,-4.1694,-4.1355,-4.0801,-4.0616,-4.0524,-4.0524,-4.0524,-4.0524,-4.0524,-4.0524,-4.0524,-4.0524,-3.9831,-3.9154,-3.8477,-3.78,-3.7123,-3.6492,-3.6492,-3.6492,-3.6492,-3.6492,-3.6492,-3.6492,-3.6492,-3.6492,-3.6492,-3.6492,-3.6492,-3.6492,-3.6492,-3.6693,-3.6877,-3.6877,-3.7029,-3.7134,-3.6662,-3.6492,-3.643,-3.6149,-3.5888,-3.5674,-3.5388,-3.4939,-3.4384,-3.3628,-3.3439,-3.3482,-3.3587,-3.3607,-3.371,-3.3949,-3.4,-3.405,-3.4101,-3.4101,-3.4101,-3.4101,0.0,0.0,0.0,-3.405,-3.4101,-3.4,-3.405,-3.4,0.0,0.0,0.0,0.0,0.0,-3.2973,-3.2773,-3.2523,-3.2398,-3.2398,-3.2398,-3.2398,-3.2398,-3.2552,-3.2906,-3.3413,-3.3453,-3.3854,-3.4513,-3.4393,-3.4835,-3.5585,-3.5752,-3.6243,-3.6938,-3.7194,-3.7314,-3.7373,-3.7653,-3.777,-3.7828,-4.4686,-4.4742,-4.4686,-4.4463,-4.4669,-4.4669,-4.4202,-4.4693,-4.4946,-4.4507,-4.4799,-4.4853,-4.4594,-4.4247,-4.3833,-4.3464,-4.2957,-4.2333,-4.1563,-4.1548,-4.1255,-4.0539,-4.0524,-4.0524,-4.0524,-4.0524,-4.0524,-4.0524,-4.0524,-4.0524,-4.0509,-3.9524,-3.8862,-3.8477,-3.7477,-3.683,-3.6492,-3.6492,-3.6492,-3.6492,-3.6492,-3.6492,-3.6492,-3.6492,-3.6492,-3.6492,-3.6492,-3.6492,-3.6492,-3.6492,-3.6739,-3.7015,-3.7015,-3.6946,-3.69,-3.656,-3.6456,-3.6422,-3.6225,-3.5779,-3.5315,-3.4967,-3.4329,-3.3767,-3.3546,-3.3503,-3.3555,-3.3848,-3.3899,-3.3949,-3.405,-3.4101,-3.4101,-3.4101,-3.4101,-3.4101,-3.4101,-3.4101,0.0,-3.4101,-3.4101,-3.4101,-3.4101,-3.4101,-3.405,-3.3899,0.0,0.0,-3.3642,-3.3555,-3.3293,-3.2897,-3.2718,-3.2523,-3.2398,-3.2398,-3.2398,-3.2398,-3.2398,-3.2582,-3.2936,-3.2936,-3.3321,-3.3983,-3.4171,-3.4616,-3.5236,-3.5529,-3.5864,-3.6256,-3.6875,-3.7102,-3.7208,-3.7889,-3.8148,-3.8132,-4.4558,-4.4614,-4.4558,-4.4259,-4.4541,-4.4763,-4.4614,-4.4961,-4.5194,-4.5086,-4.5032,-4.4852,-4.4282,-4.4226,-4.3963,-4.336,-4.3257,-4.2769,-4.1771,-4.1706,-4.1459,-4.0888,-4.0904,-4.0836,-4.0836,-4.0715,-4.0646,-4.0646,-4.0524,-4.0478,-4.0355,-3.9093,-3.8462,-3.8308,-3.7046,-3.6492,-3.6492,-3.6492,-3.6492,-3.6492,-3.6492,-3.6492,-3.6492,-3.6492,-3.6492,-3.6492,-3.6554,-3.6554,-3.6554,-3.6616,-3.6862,-3.7105,-3.6995,-3.6778,-3.6521,-3.641,-3.6315,-3.622,-3.6163,-3.564,-3.496,-3.4374,-3.3789,-3.3503,-3.371,-3.3745,-3.3797,-3.405,-3.4101,-3.4101,-3.4101,-3.4101,-3.4101,-3.4101,-3.4101,-3.4101,-3.4101,0.0,-3.4101,-3.4101,-3.4101,-3.4101,-3.4101,-3.4101,-3.4101,-3.4101,-3.4101,0.0,0.0,-3.3899,-3.3555,-3.3058,-3.3005,-3.2827,-3.2453,-3.2453,-3.2453,-3.2398,-3.2398,-3.2398,-3.2398,-3.2398,-3.2761,-3.3316,-3.3612,-3.417,-3.481,-3.5093,-3.5268,-3.5482,-3.639,-3.6726,-3.6878,-3.7842,-3.823,-3.8246,-4.5194,-4.5247,-4.5194,-4.5069,-4.5194,-4.5247,-4.5123,-4.5247,-4.5371,-4.5318,-4.5318,-4.5318,-4.5177,-4.5177,-4.5123,-4.4872,-4.4818,-4.4266,-4.2876,-4.2753,-4.2753,-4.2629,-4.2613,-4.2567,-4.2474,-4.1706,-4.1327,-4.1327,-4.0768,-4.0232,-3.9662,-3.8877,-3.82,-3.7631,-3.6846,-3.6492,-3.6492,-3.6492,-3.6492,-3.6492,-3.6492,-3.6492,-3.6492,-3.6492,-3.6492,-3.6554,-3.6816,-3.6938,-3.6938,-3.7194,-3.7476,-3.7674,-3.7011,-3.6982,-3.7044,-3.6464,-3.5851,-3.5299,-3.5032,-3.4611,-3.4204,-3.3886,-3.3893,-3.4,-3.405,-3.405,-3.405,-3.4101,-3.4101,-3.4101,-3.4101,-3.4101,-3.4101,-3.4101,-3.4101,-3.4101,0.0,0.0,-3.4101,-3.4101,-3.4101,-3.4101,-3.4101,-3.4101,-3.4101,-3.4101,-3.4101,-3.4101,-3.4101,-3.405,-3.3899,-3.3607,-3.3361,-3.3096,-3.2843,-3.2843,-3.2648,-3.2398,-3.2398,-3.2398,-3.2398,-3.2398,-3.264,-3.2998,-3.3053,-3.3537,-3.4439,-3.4765,-3.5224,-3.5767,-3.6184,-3.6395,-3.6492,-3.7171,-3.7485,-3.7582,-4.53,-4.5194,-4.4998,-4.4944,-4.4998,-4.4998,-4.4944,-4.5194,-4.5423,-4.5423,-4.5423,-4.5423,-4.5423,-4.5177,-4.4998,-4.4944,-4.4725,-4.4356,-4.3963,-4.3672,-4.336,-4.2998,-4.2982,-4.2998,-4.2892,-4.2504,-4.2316,-4.2316,-4.155,-4.1072,-4.0737,-3.967,-3.9001,-3.8667,-3.795,-3.7546,-3.7358,-3.7358,-3.7358,-3.7358,-3.7074,-3.7134,-3.7358,-3.7074,-3.7013,-3.7013,-3.715,-3.721,-3.7194,-3.7358,-3.734,-3.7246,-3.6926,-3.6631,-3.6339,-3.5837,-3.5461,-3.5088,-3.4546,-3.4242,-3.405,-3.3949,-3.4,-3.4101,-3.4101,-3.4101,-3.4101,-3.4101,-3.4101,-3.4101,-3.4101,-3.4101,-3.4101,-3.4101,-3.4101,0.0,0.0,-3.4101,-3.4101,-3.4101,-3.4101,-3.4101,-3.4101,-3.4101,-3.4101,-3.4101,-3.4101,-3.4101,-3.4101,-3.4101,-3.405,-3.3899,-3.3503,-3.3256,-3.3112,-3.3112,-3.3043,-3.2904,-3.2904,-3.2904,-3.2904,-3.2904,-3.2973,-3.3096,-3.3256,-3.3588,-3.398,-3.4294,-3.4591,-3.4929,-3.5489,-3.5704,-3.5785,-3.6513,-3.6772,-3.6821,-4.514,-4.4944,-4.4708,-4.4708,-4.4763,-4.4872,-4.4872,-4.5177,-4.5423,-4.5423,-4.5423,-4.5423,-4.5423,-4.5069,-4.4872,-4.4872,-4.4541,-4.4485,-4.4835,-4.4395,-4.398,-4.3597,-4.3538,-4.3538,-4.3538,-4.336,-4.3098,-4.2813,-4.2043,-4.1422,-4.1021,-3.9875,-3.9332,-3.9154,-3.8618,-3.8222,-3.7927,-3.7927,-3.7927,-3.7943,-3.7535,-3.7653,-3.787,-3.7535,-3.7417,-3.7417,-3.7476,-3.7578,-3.7605,-3.7462,-3.7205,-3.6973,-3.6541,-3.6064,-3.5512,-3.5061,-3.5029,-3.4966,-3.4297,-3.4101,-3.4101,-3.4101,-3.4151,-3.425,-3.425,-3.4284,-3.4333,-3.425,-3.425,-3.4201,-3.4101,-3.4101,-3.4101,-3.4101,0.0,0.0,0.0,-3.4101,-3.4101,-3.4101,-3.4101,-3.4101,-3.4101,-3.4101,-3.4101,-3.4101,-3.4101,-3.4101,-3.4101,-3.4101,-3.4101,-3.4101,-3.3694,-3.345,-3.3398,-3.3398,-3.3346,-3.3309,-3.3309,-3.3309,-3.3309,-3.3309,-3.3346,-3.3398,-3.3607,-3.3761,-3.3797,-3.4,-3.4101,-3.4165,-3.4716,-3.4926,-3.5024,-3.5768,-3.6044,-3.6076,-4.4652,-4.4708,-4.4708,-4.4708,-4.5069,-4.5371,-4.5371,-4.5371,-4.5423,-4.5423,-4.5423,-4.5423,-4.5423,-4.5371,-4.5371,-4.5371,-4.5318,-4.53,-4.5371,-4.4889,-4.4818,-4.5194,-4.5123,-4.5052,-4.5052,-4.4282,-4.3356,-4.2285,-4.159,-4.0347,-3.8647,-3.8537,-3.8157,-3.7599,-3.7551,-3.746,-3.7476,-3.7476,-3.7476,-3.7476,-3.7417,-3.7417,-3.7476,-3.7417,-3.7417,-3.7417,-3.777,-3.8084,-3.8309,-3.7543,-3.7541,-3.7551,-3.5841,-3.5266,-3.5091,-3.4376,-3.4431,-3.466,-3.4217,-3.4101,-3.4101,-3.4101,-3.4399,-3.4659,-3.4659,-3.4913,-3.5038,-3.4739,-3.4659,-3.4546,-3.4151,-3.4101,-3.4101,-3.4101,0.0,0.0,-3.4101,-3.4101,-3.4101,-3.4101,-3.4101,-3.4101,-3.4101,-3.4101,-3.4101,-3.4101,-3.4101,-3.4101,-3.4101,-3.4101,-3.4101,-3.4101,-3.405,-3.3899,-3.3642,-3.3642,-3.3555,-3.3309,-3.3309,-3.3309,-3.3309,-3.3309,-3.345,-3.3642,-3.3694,-3.3848,-3.405,-3.4101,-3.4101,-3.4101,-3.4165,-3.4182,-3.4262,-3.4991,-3.5266,-3.5364,-4.4524,-4.4708,-4.4763,-4.5069,-4.53,-4.5423,-4.5423,-4.5423,-4.5423,-4.5423,-4.5423,-4.5423,-4.5423,-4.5123,-4.4944,-4.4944,-4.4725,-4.4669,-4.4944,-4.4818,-4.4763,-4.4944,-4.4944,-4.4685,-4.4295,-4.3698,-4.3032,-4.2387,-4.1698,-4.1109,-4.0648,-4.0144,-3.9776,-3.9577,-3.9577,-3.9262,-3.8778,-3.9065,-3.8882,-3.8383,-3.8383,-3.8383,-3.8399,-3.8132,-3.8033,-3.8033,-3.8148,-3.8028,-3.7702,-3.7404,-3.6959,-3.6403,-3.5709,-3.553,-3.5546,-3.5261,-3.5085,-3.5008,-3.4802,-3.4802,-3.4802,-3.4802,-3.4897,-3.5008,-3.5008,-3.4961,-3.4866,-3.4739,-3.4497,-3.43,-3.4151,-3.4101,-3.4101,-3.4101,0.0,-3.4101,-3.4101,-3.4101,-3.4101,-3.4101,-3.4101,-3.4101,-3.4101,-3.4101,-3.4101,-3.4101,-3.4101,-3.4101,-3.4101,-3.4101,-3.4101,-3.4101,-3.4101,-3.405,-3.3949,-3.3949,-3.3899,-3.3813,-3.3813,-3.3813,-3.3813,-3.3813,-3.3848,-3.3949,-3.3949,-3.4,-3.4101,-3.4101,-3.4101,-3.4101,-3.4101,-3.4101,-3.4133,-3.4408,-3.4556,-3.4706,-4.4128,-4.4243,-4.4356,-4.4652,-4.4835,-4.5015,-4.5177,-4.5194,-4.5247,-4.5371,-4.5423,-4.5423,-4.5423,-4.4917,-4.4585,-4.4585,-4.4092,-4.3919,-4.419,-4.4243,-4.4346,-4.4568,-4.4363,-4.4004,-4.3578,-4.3226,-4.2782,-4.2141,-4.1648,-4.1358,-4.1252,-4.0591,-4.0303,-4.0303,-4.0154,-3.9782,-3.9259,-3.9556,-3.9345,-3.8805,-3.8805,-3.8805,-3.8766,-3.8504,-3.8391,-3.8375,-3.83,-3.7987,-3.7605,-3.7147,-3.6569,-3.6022,-3.5661,-3.5562,-3.5588,-3.5515,-3.5407,-3.5362,-3.5224,-3.5362,-3.5436,-3.5148,-3.5038,-3.5085,-3.5178,-3.5148,-3.5008,-3.4866,-3.4626,-3.4382,-3.4151,-3.4101,-3.4101,-3.4101,-3.4101,-3.4101,-3.4101,-3.4101,-3.4101,-3.4101,-3.4101,-3.4101,-3.4101,-3.4101,-3.4101,-3.4101,-3.4101,-3.4101,-3.4101,-3.4101,-3.4101,-3.4101,-3.4101,-3.4101,-3.4101,-3.4101,-3.4101,-3.4101,-3.4101,-3.4101,-3.4101,-3.4101,-3.4101,-3.4101,-3.4101,-3.4101,-3.4101,-3.4101,-3.4151,-3.4151,-3.4151,-3.4201,-3.425,-3.425,-3.43,-3.4349,-4.3202,-4.3306,-4.3306,-4.3306,-4.3663,-4.4145,-4.4652,-4.4691,-4.4872,-4.53,-4.5353,-4.5353,-4.5353,-4.4716,-4.4268,-4.4268,-4.3595,-4.3182,-4.3214,-4.3214,-4.3542,-4.4234,-4.3561,-4.3164,-4.3214,-4.3164,-4.2568,-4.1376,-4.1376,-4.0781,-3.961,-3.9222,-3.9023,-3.9023,-3.8616,-3.8391,-3.8408,-3.8391,-3.8391,-3.8391,-3.8391,-3.8391,-3.8391,-3.8391,-3.8391,-3.8351,-3.804,-3.8164,-3.8238,-3.6783,-3.6548,-3.6673,-3.558,-3.5224,-3.5131,-3.4835,-3.5241,-3.5739,-3.5316,-3.5766,-3.6028,-3.4961,-3.4691,-3.4787,-3.5131,-3.5498,-3.5677,-3.527,-3.5178,-3.4991,-3.4234,-3.4101,-3.4101,-3.4101,-3.4101,-3.4101,-3.4101,-3.4101,-3.4101,-3.4101,-3.4101,-3.4101,-3.4101,-3.4101,-3.4101,-3.4101,-3.4101,-3.4101,-3.4101,-3.4101,-3.4101,-3.4101,-3.4101,-3.4101,-3.4101,-3.4101,-3.4101,-3.4101,-3.4101,-3.4101,-3.4101,-3.4101,-3.4101,-3.4101,-3.4101,-3.4101,-3.4101,-3.4101,-3.4201,-3.43,-3.43,-3.4399,-3.4497,-3.4497,-3.4497,-3.4497,-4.3087,-4.3306,-4.3426,-4.3722,-4.3914,-4.403,-4.4202,-4.4045,-4.3997,-4.4121,-4.3714,-4.3372,-4.3372,-4.2904,-4.2591,-4.2591,-4.2669,-4.2826,-4.3164,-4.2647,-4.244,-4.2664,-4.2723,-4.2484,-4.1954,-4.1595,-4.1188,-4.0628,-4.0628,-4.0608,-4.05,-4.0402,-4.0303,-4.032,-4.0204,-4.002,-3.9764,-4.0003,-3.9782,-3.9259,-3.9592,-3.954,-3.9259,-3.9259,-3.8944,-3.8479,-3.8351,-3.772,-3.6883,-3.6449,-3.6211,-3.61,-3.601,-3.5985,-3.5941,-3.5854,-3.5985,-3.6071,-3.5722,-3.5588,-3.5588,-3.5766,-3.5633,-3.5515,-3.5588,-3.5316,-3.5008,-3.4866,-3.4626,-3.4382,-3.4151,-3.4101,-3.4101,-3.4101,-3.4101,-3.4101,-3.4101,-3.4101,-3.4151,-3.425,-3.4151,-3.4151,-3.425,-3.4151,-3.4201,-3.4497,-3.4723,-3.4658,-3.4151,-3.4349,-3.4399,-3.4101,-3.4101,-3.4101,-3.4101,-3.4101,-3.4101,-3.4101,-3.4101,-3.4101,-3.4101,-3.4101,-3.4101,-3.4101,-3.4101,-3.4151,-3.425,-3.425,-3.43,-3.4448,-3.4448,-3.4675,-3.5005,-3.5005,-3.5068,-3.5115,-4.2087,-4.2168,-4.2288,-4.2584,-4.2642,-4.27,-4.2874,-4.2718,-4.2783,-4.3107,-4.277,-4.2585,-4.2775,-4.2278,-4.1918,-4.1918,-4.1887,-4.1986,-4.2268,-4.1673,-4.13,-4.13,-4.1308,-4.1307,-4.1218,-4.0917,-4.0713,-4.0534,-4.0534,-4.0631,-4.0888,-4.0745,-4.0631,-4.0631,-4.0468,-4.0254,-4.007,-4.0303,-4.007,-3.9594,-3.9901,-3.9833,-3.9577,-3.9292,-3.8907,-3.8455,-3.8017,-3.7275,-3.6485,-3.6349,-3.6185,-3.6028,-3.6259,-3.6301,-3.6259,-3.5941,-3.6071,-3.6216,-3.5677,-3.5588,-3.5722,-3.6028,-3.5722,-3.5424,-3.5543,-3.5224,-3.4913,-3.4913,-3.4626,-3.4349,-3.4201,-3.4201,-3.425,-3.425,-3.425,-3.425,-3.425,-3.4201,-3.425,-3.4497,-3.4399,-3.4431,-3.4626,-3.4578,-3.4626,-3.4756,-3.4771,-3.4626,-3.43,-3.4448,-3.4448,-3.425,-3.425,-3.425,-3.425,-3.425,-3.4201,-3.4101,-3.4101,-3.4151,-3.4201,-3.4201,-3.4201,-3.425,-3.425,-3.43,-3.4399,-3.4399,-3.4448,-3.4594,-3.4594,-3.4771,-3.5115,-3.5283,-3.5419,-3.5509,-4.048,-4.0496,-4.0496,-4.0496,-4.0496,-4.0658,-4.1066,-4.1132,-4.1405,-4.2168,-4.2223,-4.2346,-4.279,-4.2154,-4.1675,-4.1675,-4.1106,-4.0776,-4.0776,-4.0485,-4.0305,-4.0238,-3.9885,-4.0037,-4.084,-4.0823,-4.0823,-4.084,-4.084,-4.0871,-4.0871,-4.0551,-4.0337,-4.0337,-3.9885,-3.9714,-3.9714,-3.9714,-3.9714,-3.9714,-3.9714,-3.9664,-3.9546,-3.8875,-3.8556,-3.8254,-3.7242,-3.6791,-3.6667,-3.6354,-3.6301,-3.6301,-3.6301,-3.6301,-3.6156,-3.5543,-3.5766,-3.6114,-3.5436,-3.5722,-3.6131,-3.5783,-3.5195,-3.4835,-3.5085,-3.5131,-3.5131,-3.5131,-3.4961,-3.4739,-3.4399,-3.4448,-3.4578,-3.4578,-3.4578,-3.4626,-3.4578,-3.4431,-3.4497,-3.4851,-3.4739,-3.4835,-3.5131,-3.5224,-3.5178,-3.493,-3.4546,-3.4333,-3.4497,-3.4399,-3.4399,-3.4497,-3.4497,-3.4497,-3.4497,-3.4497,-3.4399,-3.4151,-3.4151,-3.4201,-3.43,-3.43,-3.4399,-3.4497,-3.4497,-3.4546,-3.4594,-3.4594,-3.4691,-3.4818,-3.4818,-3.4913,-3.5148,-3.5571,-3.5705,-3.5776,-4.0383,-4.0496,-4.0496,-4.0496,-4.0496,-4.0556,-4.0674,-4.0476,-4.0414,-4.0619,-4.0105,-3.981,-3.9917,-3.9445,-3.9199,-3.9199,-3.9606,-3.9868,-3.9868,-4.0171,-4.0121,-3.9782,-4.002,-4.0238,-4.0453,-4.0054,-4.0037,-4.0436,-4.0436,-4.0583,-4.0888,-4.0823,-4.0776,-4.0776,-4.0662,-4.0614,-4.0614,-4.0614,-4.0614,-4.0614,-4.0614,-4.0237,-3.9671,-3.9517,-3.8728,-3.7682,-3.7445,-3.6754,-3.5987,-3.5922,-3.6071,-3.6301,-3.6301,-3.6301,-3.6301,-3.636,-3.6233,-3.6002,-3.5688,-3.5481,-3.5258,-3.4866,-3.4883,-3.4994,-3.4977,-3.4771,-3.4626,-3.4626,-3.4643,-3.4546,-3.4448,-3.4802,-3.5052,-3.5052,-3.5374,-3.5464,-3.5098,-3.5005,-3.4927,-3.4739,-3.4643,-3.4594,-3.4787,-3.5283,-3.5448,-3.5144,-3.5571,-3.5436,-3.4546,-3.4787,-3.4804,-3.4497,-3.4497,-3.4497,-3.4497,-3.4497,-3.4448,-3.4399,-3.4399,-3.4448,-3.4448,-3.4448,-3.4448,-3.4497,-3.4497,-3.4754,-3.5207,-3.5207,-3.5464,-3.5873,-3.5873,-3.6105,-3.6481,-3.6563,-3.662,-3.6563,-3.9428,-3.9493,-3.9493,-3.9493,-3.9493,-3.9493,-3.9493,-3.9357,-3.9339,-3.9545,-3.927,-3.9185,-3.9556,-3.9451,-3.9292,-3.9292,-3.9696,-3.9833,-3.9594,-3.9833,-3.9782,-3.9312,-3.9398,-3.9398,-3.9398,-3.9169,-3.9523,-4.06,-4.06,-4.068,-4.0888,-4.0888,-4.0888,-4.0888,-4.0888,-4.0888,-4.0888,-4.0888,-4.0776,-4.0614,-4.041,-3.9967,-3.9333,-3.8877,-3.8163,-3.7439,-3.706,-3.656,-3.6045,-3.6191,-3.6191,-3.6174,-3.6259,-3.6301,-3.6301,-3.6241,-3.6343,-3.6426,-3.6105,-3.6011,-3.5898,-3.5509,-3.5616,-3.5722,-3.5345,-3.5161,-3.5144,-3.5374,-3.5328,-3.5207,-3.4991,-3.5207,-3.5345,-3.5085,-3.5253,-3.5345,-3.5085,-3.5191,-3.5283,-3.5253,-3.5328,-3.5419,-3.5453,-3.5453,-3.5362,-3.5287,-3.5362,-3.5316,-3.5038,-3.5131,-3.527,-3.5328,-3.5311,-3.5311,-3.5311,-3.5311,-3.5311,-3.5328,-3.4975,-3.4975,-3.5253,-3.5253,-3.5283,-3.5311,-3.5311,-3.5493,-3.5803,-3.5803,-3.5977,-3.6172,-3.6172,-3.6357,-3.6603,-3.6821,-3.7034,-3.7206,-3.8391,-3.8391,-3.8391,-3.8391,-3.8391,-3.8391,-3.8391,-3.8391,-3.856,-3.8969,-3.9023,-3.9292,-4.007,-4.0188,-4.0188,-4.0188,-4.0238,-4.0121,-3.961,-3.9662,-3.9506,-3.9115,-3.886,-3.8711,-3.8711,-3.8821,-3.9382,-4.0583,-4.0583,-4.0614,-4.0662,-4.0776,-4.0793,-4.0776,-4.0888,-4.0888,-4.0888,-4.0888,-4.0611,-4.0197,-3.9817,-3.9358,-3.8717,-3.7823,-3.7404,-3.7198,-3.6483,-3.6199,-3.6259,-3.6377,-3.6293,-3.6105,-3.6259,-3.6343,-3.6301,-3.6037,-3.6392,-3.6891,-3.6557,-3.6696,-3.6794,-3.6457,-3.6392,-3.635,-3.5977,-3.5786,-3.5803,-3.6165,-3.6054,-3.5793,-3.5391,-3.5526,-3.5571,-3.5195,-3.527,-3.5316,-3.5148,-3.5345,-3.5582,-3.5732,-3.5994,-3.6182,-3.6284,-3.5694,-3.5396,-3.5577,-3.5178,-3.5161,-3.5644,-3.5599,-3.5759,-3.619,-3.6172,-3.6172,-3.6172,-3.6172,-3.6232,-3.6298,-3.5742,-3.5715,-3.6139,-3.6139,-3.6165,-3.6172,-3.6172,-3.6274,-3.6316,-3.6316,-3.6357,-3.644,-3.644,-3.644,-3.6481,-3.686,-3.7281,-3.7577,-3.8391,-3.8391,-3.8391,-3.8391,-3.8391,-3.8391,-3.8391,-3.8391,-3.856,-3.8969,-3.9023,-3.9169,-3.961,-3.9714,-3.9714,-3.9714,-4.007,-4.0121,-3.961,-3.9952,-4.002,-3.9558,-3.9867,-4.0037,-4.0037,-4.037,-4.0154,-3.9292,-3.9292,-3.9418,-3.9765,-4.0171,-4.0387,-4.0404,-4.0728,-4.0888,-4.0888,-4.0888,-4.0491,-3.976,-3.9733,-3.8877,-3.7723,-3.756,-3.706,-3.6396,-3.5993,-3.5871,-3.581,-3.5498,-3.5766,-3.6259,-3.6301,-3.6444,-3.6684,-3.6811,-3.6753,-3.6655,-3.6781,-3.658,-3.6274,-3.6232,-3.5994,-3.5907,-3.6563,-3.6147,-3.5616,-3.5705,-3.5362,-3.5024,-3.4977,-3.5599,-3.6105,-3.602,-3.6701,-3.6956,-3.6147,-3.6045,-3.5847,-3.5102,-3.5071,-3.5407,-3.6147,-3.6105,-3.6232,-3.6661,-3.6603,-3.644,-3.6147,-3.6088,-3.6147,-3.6172,-3.6172,-3.6172,-3.6172,-3.6172,-3.6381,-3.6821,-3.6724,-3.6522,-3.619,-3.619,-3.619,-3.6172,-3.6172,-3.644,-3.6821,-3.6821,-3.7034,-3.7411,-3.7411,-3.7411,-3.7411,-3.7485,-3.754,-3.7577,-3.8391,-3.8391,-3.8391,-3.8391,-3.8391,-3.8391,-3.8391,-3.8391,-3.8448,-3.8655,-3.8655,-3.8805,-3.9206,-3.9259,-3.9259,-3.9259,-3.9435,-3.9398,-3.8952,-3.9329,-3.9382,-3.8952,-3.9329,-3.9556,-3.9556,-4.0003,-3.9885,-3.9312,-3.9833,-4.0154,-4.0353,-4.0517,-4.0648,-4.0631,-4.084,-4.0629,-4.0215,-4.0215,-3.9645,-3.8721,-3.8539,-3.7909,-3.7079,-3.6887,-3.6611,-3.6301,-3.6318,-3.6276,-3.6318,-3.6367,-3.6409,-3.6492,-3.6597,-3.6736,-3.6834,-3.6895,-3.6856,-3.6838,-3.7206,-3.6939,-3.6643,-3.69,-3.686,-3.6821,-3.7206,-3.658,-3.6062,-3.662,-3.6539,-3.6316,-3.6079,-3.6105,-3.6147,-3.5907,-3.5977,-3.595,-3.5526,-3.589,-3.6274,-3.6399,-3.619,-3.6147,-3.6563,-3.634,-3.6316,-3.6481,-3.6522,-3.6522,-3.6603,-3.6603,-3.6724,-3.6978,-3.6978,-3.6978,-3.6978,-3.6978,-3.7073,-3.7281,-3.7281,-3.7206,-3.6978,-3.6978,-3.6978,-3.6978,-3.6978,-3.7111,-3.7281,-3.7281,-3.7411,-3.7577,-3.7577,-3.7577,-3.7577,-3.7577,-3.7577,-3.7577]}]]